[[{"header":{"parameterUnit":"m.s-1","parameterCategory":1,"la1":31.0,"la2":29.5877,"lo1":-88.7671,"lo2":-86.6584,"dy":0.0162,"dx":0.0185,"nx":115,"ny":88,"refTime":"2023-03-12T12:00:00:Z","depth":0,"parameterNumber":2,"parameterNumberName":"U-component_of_WINDS"},"data":[0.0,0.0,0.0,0.0,0.0,0.0,0.0,0.0,0.0,0.0,0.0,0.0,0.0,0.0,0.0,0.0,0.0,0.0,0.0,0.0,0.0,0.0,0.0,0.0,0.0,0.0,0.0,0.0,0.0,0.0,0.0,0.0,0.0,0.0,0.0,0.0,0.0,0.0,0.0,0.0,0.0,0.0,0.0,0.0,0.0,0.0,0.0,0.0,0.0,0.0,0.0,0.0,0.0,0.0,0.0,0.0,0.0,0.0,0.0,0.0,0.0,0.0,0.0,0.0,0.0,0.0,0.0,0.0,0.0,0.0,0.0,0.0,0.0,0.0,0.0,0.0,0.0,0.0,0.0,0.0,0.0,0.0,0.0,0.0,0.0,0.0,0.0,0.0,0.0,0.0,0.0,0.0,0.0,0.0,0.0,0.0,0.0,0.0,0.0,0.0,0.0,0.0,0.0,0.0,0.0,0.0,0.0,0.0,0.0,0.0,0.0,0.0,0.0,0.0,0.0,0.0,0.0,0.0,0.0,0.0,0.0,0.0,0.0,0.0,0.0,0.0,0.0,0.0,0.0,0.0,0.0,0.0,0.0,0.0,0.0,0.0,0.0,0.0,0.0,0.0,0.0,0.0,0.0,0.0,0.0,0.0,0.0,0.0,0.0,0.0,0.0,0.0,0.0,0.0,0.0,0.0,0.0,0.0,0.0,0.0,0.0,0.0,0.0,0.0,0.0,0.0,0.0,0.0,0.0,0.0,0.0,0.0,0.0,0.0,0.0,0.0,0.0,0.0,0.0,0.0,0.0,0.0,0.0,0.0,0.0,0.0,0.0,0.0,0.0,0.0,0.0,0.0,0.0,0.0,0.0,0.0,0.0,0.0,0.0,0.0,0.0,0.0,0.0,0.0,0.0,0.0,0.0,0.0,0.0,0.0,0.0,0.0,0.0,0.0,0.0,0.0,0.0,0.0,0.0,0.0,0.0,0.0,0.0,0.0,0.0,0.0,0.0,0.0,0.0,0.0,0.0,0.0,0.0,0.0,0.0,0.0,0.0,0.0,0.0,0.0,0.0,0.0,0.0,0.0,0.0,0.0,0.0,0.0,0.0,0.0,0.0,0.0,0.0,0.0,0.0,0.0,0.0,0.0,0.0,0.0,0.0,0.0,0.0,0.0,0.0,0.0,0.0,0.0,0.0,0.0,0.0,0.0,0.0,0.0,0.0,0.0,0.0,0.0,0.0,0.0,0.0,0.0,0.0,0.0,0.0,0.0,0.0,0.0,0.0,0.0,0.0,0.0,0.0,0.0,0.0,0.0,0.0,0.0,0.0,0.0,0.0,0.0,0.0,0.0,0.0,0.0,0.0,0.0,0.0,0.0,0.0,0.0,0.0,0.0,0.0,0.0,0.0,0.0,0.0,0.0,0.0,0.0,0.0,0.0,0.0,0.0,0.0,0.0,0.0,0.0,0.0,0.0,0.0,0.0,0.0,0.0,0.0,0.0,0.0,0.0,0.0,0.0,0.0,0.0,0.0,0.0,0.0,0.0,0.0,0.0,0.0,0.0,0.0,0.0,0.0,0.0,0.0,0.0,0.0,0.0,0.0,0.0,0.0,0.0,0.0,0.0,0.0,0.0,0.0,0.0,0.0,0.0,0.0,0.0,0.0,0.0,0.0,0.0,0.0,0.0,0.0,0.0,0.0,0.0,0.0,0.0,0.0,0.0,0.0,0.0,0.0,0.0,0.0,0.0,0.0,0.0,0.0,0.0,0.0,0.0,0.0,0.0,0.0,0.0,0.0,0.0,0.0,0.0,0.0,0.0,0.0,0.0,0.0,0.0,0.0,0.0,0.0,0.0,0.0,0.0,0.0,0.0,0.0,0.0,0.0,0.0,0.0,0.0,0.0,0.0,0.0,0.0,0.0,0.0,0.0,0.0,0.0,0.0,0.0,0.0,0.0,0.0,0.0,0.0,0.0,0.0,0.0,0.0,0.0,0.0,0.0,0.0,0.0,0.0,0.0,0.0,0.0,0.0,0.0,0.0,0.0,0.0,0.0,0.0,0.0,0.0,0.0,0.0,0.0,0.0,0.0,0.0,0.0,0.0,0.0,0.0,0.0,0.0,0.0,0.0,0.0,0.0,0.0,0.0,0.0,0.0,0.0,0.0,0.0,0.0,0.0,0.0,0.0,0.0,0.0,0.0,0.0,0.0,0.0,0.0,0.0,0.0,0.0,0.0,0.0,0.0,0.0,0.0,0.0,0.0,0.0,0.0,0.0,0.0,0.0,0.0,0.0,0.0,0.0,0.0,0.0,0.0,0.0,0.0,0.0,0.0,0.0,0.0,0.0,0.0,0.0,0.0,0.0,0.0,0.0,0.0,0.0,0.0,0.0,0.0,0.0,0.0,0.0,0.0,0.0,0.0,0.0,0.0,0.0,0.0,0.0,0.0,0.0,0.0,0.0,0.0,0.0,0.0,0.0,0.0,0.0,0.0,0.0,0.0,0.0,0.0,0.0,0.0,0.0,0.0,0.0,0.0,0.0,0.0,0.0,0.0,0.0,0.0,0.0,0.0,0.0,0.0,0.0,0.0,0.0,0.0,0.0,0.0,0.0,0.0,0.0,0.0,0.0,0.0,0.0,0.0,0.0,0.0,0.0,0.0,0.0,0.0,0.0,0.0,0.0,0.0,0.0,0.0,0.0,0.0,0.0,0.0,0.0,0.0,0.0,0.0,0.0,0.0,0.0,0.0,0.0,0.0,0.0,0.0,0.0,0.0,0.0,0.0,0.0,0.0,0.0,0.0,0.0,0.0,0.0,0.0,0.0,0.0,0.0,0.0,0.0,0.0,0.0,0.0,0.0,0.0,0.0,0.0,0.0,0.0,0.0,0.0,0.0,0.0,0.0,0.0,0.0,0.0,0.0,0.0,0.0,0.0,0.0,0.0,0.0,0.0,0.0,0.0,0.0,0.0,0.0,0.0,0.0,0.0,0.0,0.0,0.0,0.0,0.0,0.0,0.0,0.0,0.0,0.0,0.0,0.0,0.0,0.0,0.0,0.0,0.0,0.0,0.0,0.0,0.0,0.0,0.0,0.0,0.0,0.0,0.0,0.0,0.0,0.0,0.0,0.0,0.0,0.0,0.0,0.0,0.0,0.0,0.0,0.0,0.0,0.0,0.0,0.0,0.0,0.0,0.0,0.0,0.0,0.0,0.0,0.0,0.0,0.0,0.0,0.0,0.0,0.0,0.0,0.0,0.0,0.0,0.0,0.0,0.0,0.0,0.0,0.0,0.0,0.0,0.0,0.0,0.0,0.0,0.0,0.0,0.0,0.0,0.0,0.0,0.0,0.0,0.0,0.0,0.0,0.0,0.0,0.0,0.0,0.0,0.0,0.0,0.0,0.0,0.0,0.0,0.0,0.0,0.0,0.0,0.0,0.0,0.0,0.0,0.0,0.0,0.0,0.0,0.0,0.0,0.0,0.0,0.0,0.0,0.0,0.0,0.0,0.0,0.0,0.0,0.0,0.0,0.0,0.0,0.0,0.0,0.0,0.0,0.0,0.0,0.0,0.0,0.0,0.0,0.0,0.0,0.0,0.0,0.0,0.0,0.0,0.0,0.0,0.0,0.0,0.0,0.0,0.0,0.0,0.0,0.0,0.0,0.0,0.0,0.0,0.0,0.0,0.0,0.0,0.0,0.0,0.0,0.0,0.0,0.0,0.0,0.0,0.0,0.0,0.0,0.0,0.0,0.0,0.0,0.0,0.0,0.0,0.0,0.0,0.0,0.0,0.0,0.0,0.0,0.0,0.0,0.0,0.0,0.0,0.0,0.0,0.0,0.0,0.0,0.0,0.0,0.0,0.0,0.0,0.0,0.0,0.0,0.0,0.0,0.0,0.0,0.0,0.0,0.0,0.0,0.0,0.0,0.0,0.0,0.0,0.0,0.0,0.0,0.0,0.0,0.0,0.0,0.0,0.0,0.0,0.0,0.0,0.0,0.0,0.0,0.0,0.0,0.0,0.0,0.0,0.0,0.0,0.0,0.0,0.0,0.0,0.0,0.0,0.0,0.0,0.0,0.0,0.0,0.0,0.0,0.0,0.0,0.0,0.0,0.0,0.0,0.0,0.0,0.0,0.0,0.0,0.0,0.0,0.0,0.0,0.0,0.0,0.0,0.0,0.0,0.0,0.0,0.0,0.0,0.0,0.0,0.0,0.0,0.0,0.0,0.0,0.0,0.0,0.0,0.0,0.0,0.0,0.0,0.0,0.0,0.0,0.0,5.7255,0.0,0.0,0.0,0.0,0.0,0.0,0.0,0.0,0.0,0.0,0.0,0.0,0.0,0.0,0.0,0.0,0.0,0.0,0.0,0.0,0.0,0.0,0.0,0.0,0.0,0.0,0.0,0.0,0.0,0.0,0.0,0.0,0.0,0.0,0.0,0.0,0.0,0.0,0.0,0.0,0.0,0.0,0.0,0.0,0.0,0.0,0.0,0.0,0.0,0.0,0.0,0.0,0.0,0.0,0.0,0.0,0.0,0.0,0.0,0.0,0.0,0.0,0.0,0.0,0.0,0.0,0.0,0.0,0.0,0.0,0.0,0.0,0.0,0.0,0.0,0.0,0.0,0.0,0.0,0.0,0.0,0.0,0.0,0.0,0.0,0.0,0.0,0.0,0.0,0.0,0.0,0.0,0.0,0.0,0.0,0.0,0.0,0.0,0.0,0.0,0.0,0.0,0.0,0.0,0.0,0.0,0.0,0.0,0.0,0.0,6.0383,5.9978,6.0364,5.9939,5.8664,0.0,0.0,0.0,0.0,0.0,0.0,0.0,0.0,0.0,0.0,0.0,0.0,0.0,0.0,0.0,0.0,0.0,0.0,0.0,0.0,0.0,0.0,0.0,0.0,0.0,0.0,0.0,0.0,0.0,0.0,0.0,0.0,0.0,0.0,0.0,0.0,0.0,0.0,0.0,0.0,0.0,0.0,0.0,0.0,0.0,0.0,0.0,0.0,0.0,0.0,0.0,0.0,0.0,0.0,0.0,0.0,0.0,0.0,0.0,0.0,0.0,0.0,0.0,0.0,0.0,0.0,0.0,0.0,0.0,0.0,0.0,0.0,0.0,0.0,0.0,0.0,0.0,0.0,0.0,0.0,0.0,0.0,0.0,0.0,0.0,0.0,0.0,0.0,0.0,0.0,0.0,0.0,0.0,0.0,0.0,0.0,0.0,0.0,0.0,0.0,0.0,0.0,0.0,0.0,0.0,0.0,0.0,0.0,0.0,0.0,0.0,0.0,6.1118,6.0596,5.9534,0.0,0.0,0.0,0.0,0.0,0.0,0.0,0.0,0.0,0.0,0.0,0.0,0.0,0.0,0.0,0.0,0.0,0.0,0.0,0.0,0.0,0.0,0.0,0.0,0.0,0.0,0.0,0.0,0.0,0.0,0.0,0.0,0.0,0.0,0.0,0.0,0.0,0.0,0.0,0.0,0.0,0.0,0.0,0.0,0.0,0.0,0.0,0.0,0.0,0.0,0.0,0.0,0.0,0.0,0.0,0.0,0.0,0.0,0.0,0.0,0.0,0.0,0.0,0.0,0.0,0.0,0.0,0.0,0.0,0.0,0.0,0.0,0.0,0.0,0.0,0.0,0.0,0.0,0.0,0.0,0.0,0.0,0.0,0.0,0.0,0.0,0.0,0.0,0.0,0.0,0.0,0.0,0.0,0.0,0.0,0.0,0.0,0.0,0.0,0.0,0.0,0.0,0.0,0.0,0.0,0.0,0.0,0.0,0.0,0.0,6.1273,6.1195,6.1195,0.0,5.8703,0.0,0.0,0.0,0.0,0.0,0.0,0.0,0.0,0.0,0.0,0.0,0.0,0.0,0.0,0.0,0.0,0.0,0.0,0.0,0.0,0.0,0.0,0.0,0.0,0.0,0.0,0.0,0.0,0.0,0.0,0.0,0.0,0.0,0.0,0.0,0.0,0.0,0.0,0.0,0.0,0.0,0.0,0.0,0.0,0.0,0.0,0.0,0.0,0.0,0.0,0.0,0.0,0.0,0.0,0.0,0.0,0.0,0.0,0.0,0.0,0.0,0.0,0.0,0.0,0.0,0.0,0.0,0.0,0.0,0.0,0.0,0.0,0.0,0.0,0.0,0.0,0.0,0.0,0.0,0.0,0.0,0.0,0.0,0.0,0.0,0.0,0.0,0.0,0.0,0.0,0.0,0.0,0.0,0.0,0.0,0.0,0.0,0.0,0.0,0.0,0.0,0.0,0.0,0.0,0.0,0.0,0.0,0.0,0.0,0.0,6.1264,6.1275,6.1212,6.0364,0.0,0.0,0.0,0.0,0.0,0.0,0.0,0.0,0.0,0.0,0.0,0.0,0.0,0.0,0.0,0.0,0.0,0.0,0.0,0.0,0.0,0.0,0.0,0.0,0.0,0.0,0.0,0.0,0.0,0.0,0.0,0.0,0.0,0.0,0.0,0.0,0.0,0.0,0.0,0.0,0.0,0.0,0.0,0.0,0.0,0.0,0.0,0.0,0.0,0.0,0.0,0.0,0.0,0.0,0.0,0.0,0.0,0.0,0.0,0.0,0.0,0.0,0.0,0.0,0.0,0.0,0.0,0.0,0.0,0.0,0.0,0.0,0.0,0.0,0.0,0.0,0.0,0.0,0.0,0.0,0.0,0.0,0.0,0.0,0.0,0.0,0.0,0.0,0.0,0.0,0.0,0.0,0.0,0.0,0.0,0.0,0.0,0.0,0.0,0.0,0.0,0.0,0.0,0.0,0.0,0.0,0.0,0.0,0.0,0.0,6.133,6.1322,6.1289,6.1247,6.0383,5.8702,0.0,0.0,0.0,0.0,0.0,0.0,0.0,0.0,0.0,0.0,0.0,0.0,0.0,0.0,0.0,0.0,0.0,0.0,0.0,0.0,0.0,0.0,0.0,0.0,0.0,0.0,0.0,0.0,0.0,0.0,0.0,0.0,0.0,0.0,0.0,0.0,0.0,0.0,0.0,0.0,0.0,0.0,0.0,0.0,0.0,0.0,0.0,0.0,0.0,0.0,0.0,0.0,0.0,0.0,0.0,0.0,0.0,0.0,0.0,0.0,0.0,0.0,0.0,0.0,0.0,0.0,0.0,0.0,0.0,0.0,0.0,0.0,0.0,0.0,0.0,0.0,0.0,0.0,0.0,0.0,0.0,0.0,0.0,0.0,0.0,0.0,0.0,0.0,0.0,0.0,0.0,0.0,0.0,0.0,0.0,0.0,0.0,0.0,0.0,0.0,0.0,0.0,0.0,0.0,0.0,0.0,0.0,0.0,6.1352,6.1415,6.1366,6.1327,6.1225,6.0401,0.0,0.0,0.0,0.0,0.0,0.0,0.0,0.0,0.0,0.0,0.0,0.0,0.0,0.0,0.0,0.0,0.0,0.0,0.0,0.0,0.0,0.0,0.0,0.0,0.0,0.0,0.0,0.0,0.0,0.0,0.0,0.0,0.0,0.0,0.0,0.0,0.0,0.0,0.0,0.0,0.0,0.0,0.0,0.0,0.0,0.0,0.0,0.0,0.0,0.0,0.0,0.0,0.0,0.0,0.0,0.0,0.0,0.0,0.0,0.0,0.0,0.0,0.0,0.0,0.0,0.0,0.0,0.0,0.0,0.0,0.0,0.0,0.0,0.0,0.0,0.0,0.0,0.0,0.0,0.0,0.0,0.0,0.0,0.0,0.0,0.0,0.0,0.0,0.0,0.0,0.0,0.0,0.0,0.0,0.0,0.0,0.0,0.0,0.0,0.0,0.0,0.0,0.0,0.0,0.0,0.0,0.0,0.0,0.0,6.1447,6.1472,6.1691,6.2157,6.1632,6.0738,0.0,0.0,0.0,0.0,0.0,0.0,0.0,0.0,0.0,0.0,0.0,0.0,0.0,0.0,0.0,0.0,0.0,0.0,0.0,0.0,0.0,0.0,0.0,0.0,0.0,0.0,0.0,0.0,0.0,0.0,0.0,0.0,0.0,0.0,0.0,0.0,0.0,0.0,0.0,0.0,0.0,0.0,0.0,0.0,0.0,0.0,0.0,0.0,0.0,0.0,0.0,0.0,0.0,0.0,0.0,0.0,0.0,0.0,0.0,0.0,0.0,0.0,0.0,0.0,0.0,0.0,0.0,0.0,0.0,0.0,0.0,0.0,0.0,0.0,0.0,0.0,0.0,0.0,0.0,0.0,0.0,0.0,0.0,0.0,0.0,0.0,0.0,0.0,0.0,0.0,0.0,0.0,0.0,0.0,0.0,0.0,0.0,0.0,0.0,0.0,0.0,0.0,0.0,0.0,0.0,0.0,0.0,0.0,0.0,6.1896,0.0,6.2303,6.3055,6.2263,6.1361,0.0,0.0,0.0,0.0,0.0,0.0,0.0,0.0,0.0,0.0,0.0,0.0,0.0,0.0,0.0,0.0,0.0,0.0,0.0,0.0,0.0,0.0,0.0,0.0,0.0,0.0,0.0,0.0,0.0,0.0,0.0,0.0,0.0,0.0,0.0,0.0,0.0,0.0,0.0,0.0,0.0,0.0,0.0,0.0,0.0,0.0,0.0,0.0,0.0,0.0,0.0,0.0,0.0,0.0,0.0,0.0,0.0,0.0,0.0,0.0,0.0,0.0,0.0,0.0,0.0,0.0,0.0,0.0,0.0,0.0,0.0,0.0,0.0,0.0,0.0,0.0,0.0,0.0,0.0,0.0,0.0,0.0,0.0,0.0,0.0,0.0,0.0,0.0,0.0,0.0,0.0,0.0,0.0,0.0,0.0,0.0,0.0,0.0,0.0,0.0,0.0,0.0,0.0,0.0,0.0,0.0,0.0,0.0,6.1997,6.2786,6.2844,6.3185,6.3955,6.3132,6.2245,0.0,0.0,0.0,0.0,0.0,0.0,0.0,0.0,0.0,0.0,0.0,0.0,0.0,0.0,0.0,0.0,0.0,0.0,0.0,0.0,0.0,0.0,0.0,0.0,0.0,0.0,0.0,0.0,0.0,0.0,0.0,0.0,0.0,0.0,0.0,0.0,0.0,0.0,0.0,0.0,0.0,0.0,0.0,0.0,0.0,0.0,0.0,0.0,0.0,0.0,0.0,0.0,0.0,0.0,0.0,0.0,0.0,0.0,0.0,0.0,0.0,0.0,0.0,0.0,0.0,0.0,0.0,0.0,0.0,0.0,0.0,0.0,0.0,0.0,0.0,0.0,0.0,0.0,0.0,0.0,0.0,0.0,0.0,0.0,0.0,0.0,0.0,0.0,0.0,0.0,0.0,0.0,0.0,0.0,0.0,0.0,0.0,0.0,0.0,0.0,0.0,0.0,0.0,0.0,0.0,0.0,0.0,0.0,0.0,6.3725,6.376,6.4169,6.487,6.3534,6.2594,0.0,0.0,0.0,0.0,0.0,0.0,0.0,0.0,0.0,0.0,0.0,0.0,0.0,0.0,0.0,0.0,0.0,0.0,0.0,0.0,0.0,0.0,0.0,0.0,0.0,0.0,0.0,0.0,0.0,0.0,0.0,0.0,0.0,0.0,0.0,0.0,0.0,0.0,0.0,0.0,0.0,0.0,0.0,0.0,0.0,0.0,0.0,0.0,0.0,0.0,0.0,0.0,0.0,0.0,0.0,0.0,0.0,0.0,0.0,0.0,0.0,0.0,0.0,0.0,0.0,0.0,0.0,0.0,0.0,0.0,0.0,0.0,0.0,0.0,0.0,0.0,0.0,0.0,0.0,0.0,0.0,0.0,0.0,0.0,0.0,0.0,0.0,0.0,0.0,0.0,0.0,0.0,0.0,0.0,0.0,0.0,0.0,0.0,0.0,0.0,0.0,0.0,0.0,0.0,0.0,0.0,0.0,0.0,0.0,6.5133,6.5184,6.5377,6.5883,6.483,6.3895,6.3138,0.0,0.0,0.0,0.0,0.0,0.0,0.0,0.0,0.0,0.0,0.0,0.0,0.0,0.0,0.0,0.0,0.0,0.0,0.0,0.0,0.0,0.0,0.0,0.0,0.0,0.0,0.0,0.0,0.0,0.0,0.0,0.0,0.0,0.0,0.0,0.0,0.0,0.0,0.0,0.0,0.0,0.0,0.0,0.0,0.0,0.0,0.0,0.0,0.0,0.0,0.0,0.0,0.0,0.0,0.0,0.0,0.0,0.0,0.0,0.0,0.0,0.0,0.0,0.0,0.0,0.0,0.0,0.0,0.0,0.0,0.0,0.0,0.0,0.0,0.0,0.0,0.0,0.0,0.0,0.0,0.0,0.0,0.0,0.0,0.0,0.0,0.0,0.0,0.0,0.0,0.0,0.0,0.0,0.0,0.0,0.0,0.0,0.0,0.0,0.0,0.0,0.0,0.0,0.0,0.0,0.0,0.0,0.0,6.6956,6.7029,6.7,6.6839,6.6712,6.5855,0.0,0.0,0.0,0.0,0.0,0.0,0.0,0.0,0.0,0.0,0.0,0.0,0.0,0.0,0.0,0.0,0.0,0.0,0.0,0.0,0.0,0.0,0.0,0.0,0.0,0.0,0.0,0.0,0.0,0.0,0.0,0.0,0.0,0.0,0.0,0.0,0.0,0.0,0.0,0.0,0.0,0.0,0.0,0.0,0.0,0.0,0.0,0.0,0.0,0.0,0.0,0.0,0.0,0.0,0.0,0.0,0.0,0.0,0.0,0.0,0.0,0.0,0.0,0.0,0.0,0.0,0.0,0.0,0.0,0.0,0.0,0.0,0.0,0.0,0.0,0.0,0.0,0.0,0.0,0.0,0.0,0.0,0.0,0.0,0.0,0.0,0.0,0.0,0.0,0.0,0.0,0.0,0.0,0.0,0.0,0.0,0.0,0.0,0.0,0.0,0.0,0.0,0.0,0.0,0.0,0.0,0.0,0.0,0.0,6.8708,6.9957,6.9991,6.8639,6.7335,6.6399,0.0,0.0,0.0,0.0,0.0,0.0,0.0,0.0,0.0,0.0,0.0,0.0,0.0,0.0,0.0,0.0,0.0,0.0,0.0,0.0,0.0,0.0,0.0,0.0,0.0,0.0,0.0,0.0,0.0,0.0,0.0,0.0,0.0,0.0,0.0,0.0,0.0,0.0,0.0,0.0,0.0,0.0,0.0,0.0,0.0,0.0,0.0,0.0,0.0,0.0,0.0,0.0,0.0,0.0,0.0,0.0,0.0,0.0,0.0,0.0,0.0,0.0,0.0,0.0,0.0,0.0,0.0,0.0,0.0,0.0,0.0,0.0,0.0,0.0,0.0,0.0,0.0,0.0,0.0,0.0,0.0,0.0,0.0,0.0,0.0,0.0,0.0,0.0,0.0,0.0,0.0,0.0,0.0,0.0,0.0,0.0,0.0,0.0,0.0,0.0,0.0,0.0,0.0,0.0,0.0,0.0,0.0,0.0,6.8747,7.0465,7.1831,7.2221,7.1474,6.9761,6.8073,0.0,0.0,0.0,0.0,0.0,0.0,0.0,0.0,0.0,0.0,0.0,0.0,0.0,0.0,0.0,0.0,0.0,0.0,0.0,0.0,0.0,0.0,0.0,0.0,0.0,0.0,0.0,0.0,0.0,0.0,0.0,0.0,0.0,0.0,0.0,0.0,0.0,0.0,0.0,0.0,0.0,0.0,0.0,0.0,0.0,0.0,0.0,0.0,0.0,0.0,0.0,0.0,0.0,0.0,0.0,0.0,0.0,0.0,0.0,0.0,0.0,0.0,0.0,0.0,0.0,0.0,0.0,0.0,0.0,0.0,0.0,0.0,0.0,0.0,0.0,0.0,0.0,0.0,0.0,0.0,0.0,0.0,0.0,0.0,0.0,0.0,0.0,0.0,0.0,0.0,0.0,0.0,0.0,0.0,0.0,0.0,0.0,0.0,0.0,0.0,0.0,0.0,0.0,0.0,0.0,0.0,0.0,0.0,7.0392,7.2115,7.308,7.3894,7.4558,7.2812,7.0253,0.0,0.0,0.0,0.0,0.0,0.0,0.0,0.0,0.0,0.0,0.0,0.0,0.0,0.0,0.0,0.0,0.0,0.0,0.0,0.0,0.0,0.0,0.0,0.0,0.0,0.0,0.0,0.0,0.0,0.0,0.0,0.0,0.0,0.0,0.0,0.0,0.0,0.0,0.0,0.0,0.0,0.0,0.0,0.0,0.0,0.0,0.0,0.0,0.0,0.0,0.0,0.0,0.0,0.0,0.0,0.0,0.0,0.0,0.0,0.0,0.0,0.0,0.0,0.0,0.0,0.0,0.0,0.0,0.0,0.0,0.0,0.0,0.0,0.0,0.0,0.0,0.0,0.0,0.0,0.0,0.0,0.0,0.0,0.0,0.0,0.0,0.0,0.0,0.0,0.0,0.0,0.0,0.0,0.0,0.0,0.0,0.0,0.0,0.0,0.0,0.0,0.0,0.0,0.0,0.0,0.0,0.0,0.0,7.126,7.2994,7.4501,7.5345,7.5501,7.3124,7.107,0.0,0.0,0.0,0.0,0.0,0.0,0.0,0.0,0.0,0.0,0.0,0.0,0.0,0.0,0.0,0.0,0.0,0.0,0.0,0.0,0.0,0.0,0.0,0.0,0.0,0.0,0.0,0.0,0.0,0.0,0.0,0.0,0.0,0.0,0.0,0.0,0.0,0.0,0.0,0.0,0.0,0.0,0.0,0.0,0.0,0.0,0.0,0.0,6.0781,0.0,0.0,0.0,0.0,0.0,0.0,0.0,0.0,0.0,0.0,0.0,0.0,0.0,0.0,0.0,0.0,0.0,0.0,0.0,0.0,0.0,0.0,0.0,0.0,0.0,0.0,0.0,0.0,0.0,0.0,0.0,0.0,0.0,0.0,0.0,0.0,0.0,0.0,0.0,0.0,0.0,0.0,0.0,0.0,0.0,0.0,0.0,0.0,0.0,0.0,0.0,0.0,0.0,0.0,0.0,0.0,0.0,0.0,0.0,7.1763,7.3846,7.516,7.6008,7.6275,7.4597,7.2796,0.0,0.0,0.0,0.0,0.0,0.0,0.0,0.0,0.0,0.0,0.0,0.0,0.0,0.0,0.0,0.0,0.0,0.0,0.0,0.0,0.0,0.0,0.0,0.0,0.0,0.0,0.0,0.0,0.0,0.0,0.0,0.0,0.0,0.0,0.0,0.0,0.0,0.0,0.0,0.0,0.0,0.0,0.0,0.0,0.0,0.0,0.0,0.0,0.0,0.0,0.0,0.0,0.0,0.0,0.0,0.0,0.0,0.0,0.0,0.0,0.0,0.0,0.0,0.0,0.0,0.0,0.0,0.0,0.0,0.0,0.0,0.0,0.0,0.0,0.0,0.0,0.0,0.0,0.0,0.0,0.0,0.0,0.0,0.0,0.0,0.0,0.0,0.0,0.0,0.0,0.0,0.0,0.0,0.0,0.0,0.0,0.0,0.0,0.0,0.0,0.0,0.0,0.0,0.0,0.0,0.0,0.0,7.0158,7.2227,7.453,7.5579,7.6399,7.6984,7.6157,7.4561,7.2064,0.0,0.0,0.0,0.0,0.0,0.0,0.0,0.0,0.0,0.0,0.0,0.0,0.0,0.0,0.0,0.0,0.0,0.0,0.0,0.0,0.0,0.0,0.0,0.0,0.0,0.0,0.0,0.0,0.0,0.0,0.0,0.0,0.0,0.0,0.0,0.0,0.0,0.0,6.1069,6.3334,0.0,0.0,0.0,0.0,0.0,0.0,0.0,0.0,6.1166,0.0,0.0,0.0,0.0,0.0,0.0,0.0,0.0,0.0,0.0,0.0,0.0,0.0,0.0,0.0,0.0,0.0,0.0,0.0,0.0,0.0,0.0,0.0,0.0,0.0,0.0,0.0,0.0,0.0,0.0,0.0,0.0,0.0,0.0,0.0,0.0,0.0,0.0,0.0,0.0,0.0,0.0,0.0,0.0,0.0,0.0,0.0,0.0,0.0,0.0,0.0,0.0,0.0,0.0,0.0,0.0,6.9182,7.162,7.3455,7.4569,7.6125,7.6945,7.7062,7.6157,7.5054,7.3678,0.0,0.0,0.0,0.0,0.0,0.0,0.0,0.0,0.0,0.0,0.0,0.0,0.0,0.0,0.0,0.0,0.0,0.0,0.0,0.0,0.0,0.0,0.0,0.0,0.0,0.0,0.0,0.0,0.0,0.0,0.0,0.0,0.0,0.0,0.0,0.0,0.0,0.0,0.0,6.491,6.5705,0.0,0.0,0.0,0.0,0.0,0.0,0.0,0.0,6.2666,0.0,0.0,0.0,0.0,0.0,0.0,0.0,0.0,0.0,0.0,0.0,0.0,0.0,0.0,0.0,0.0,0.0,0.0,0.0,0.0,0.0,0.0,0.0,0.0,0.0,0.0,0.0,0.0,0.0,0.0,0.0,0.0,0.0,0.0,0.0,0.0,0.0,0.0,0.0,0.0,0.0,0.0,0.0,0.0,0.0,0.0,0.0,0.0,0.0,0.0,0.0,0.0,0.0,0.0,0.0,7.004,7.2202,7.3928,7.5264,7.6473,7.7091,7.7101,7.6625,7.5638,0.0,0.0,0.0,0.0,0.0,0.0,0.0,0.0,0.0,0.0,0.0,0.0,0.0,0.0,0.0,0.0,0.0,0.0,0.0,0.0,0.0,0.0,0.0,0.0,0.0,0.0,0.0,0.0,0.0,0.0,0.0,0.0,0.0,0.0,0.0,0.0,0.0,0.0,0.0,0.0,6.568,6.6359,6.5936,0.0,0.0,0.0,0.0,0.0,0.0,6.332,6.3051,0.0,0.0,0.0,0.0,0.0,0.0,0.0,0.0,0.0,0.0,0.0,0.0,0.0,0.0,0.0,0.0,0.0,0.0,0.0,0.0,0.0,0.0,0.0,0.0,0.0,0.0,0.0,0.0,0.0,0.0,0.0,0.0,0.0,0.0,0.0,0.0,0.0,0.0,0.0,0.0,0.0,0.0,0.0,0.0,0.0,0.0,0.0,0.0,0.0,0.0,0.0,0.0,0.0,0.0,0.0,7.0665,7.2578,7.4396,7.6094,7.6758,7.7183,7.7335,7.7141,7.6079,0.0,0.0,0.0,0.0,0.0,0.0,0.0,0.0,0.0,0.0,0.0,0.0,0.0,0.0,0.0,0.0,0.0,0.0,0.0,0.0,0.0,0.0,0.0,0.0,0.0,0.0,0.0,0.0,0.0,0.0,0.0,0.0,0.0,0.0,0.0,0.0,0.0,0.0,0.0,0.0,0.0,6.6936,6.6474,6.6974,0.0,0.0,0.0,0.0,6.3935,6.382,0.0,0.0,0.0,0.0,0.0,0.0,0.0,0.0,0.0,0.0,0.0,0.0,0.0,0.0,0.0,0.0,0.0,0.0,0.0,0.0,0.0,0.0,0.0,0.0,0.0,0.0,0.0,0.0,0.0,0.0,0.0,0.0,0.0,0.0,0.0,0.0,0.0,0.0,0.0,0.0,0.0,0.0,0.0,0.0,0.0,0.0,0.0,0.0,0.0,0.0,0.0,0.0,0.0,0.0,0.0,0.0,7.0738,7.3164,7.5294,7.6953,7.707,7.7456,7.8194,7.7453,7.6169,0.0,0.0,0.0,0.0,0.0,0.0,0.0,0.0,0.0,0.0,0.0,0.0,0.0,0.0,0.0,0.0,0.0,0.0,0.0,0.0,0.0,0.0,0.0,0.0,0.0,0.0,0.0,0.0,0.0,0.0,0.0,0.0,0.0,0.0,0.0,0.0,0.0,0.0,0.0,0.0,0.0,6.7359,6.8013,6.8205,6.7898,0.0,0.0,6.6513,6.5705,6.559,0.0,0.0,0.0,0.0,0.0,0.0,0.0,0.0,0.0,0.0,0.0,0.0,0.0,0.0,0.0,0.0,0.0,0.0,0.0,0.0,0.0,0.0,0.0,0.0,0.0,0.0,0.0,0.0,0.0,0.0,0.0,0.0,0.0,0.0,0.0,0.0,0.0,0.0,0.0,0.0,0.0,0.0,0.0,0.0,0.0,0.0,0.0,0.0,0.0,0.0,0.0,0.0,0.0,0.0,0.0,7.0093,7.1437,7.3546,7.57,7.7851,7.789,7.8003,7.839,7.7972,7.6673,0.0,0.0,0.0,0.0,0.0,0.0,0.0,0.0,0.0,0.0,0.0,0.0,0.0,0.0,0.0,0.0,0.0,0.0,0.0,0.0,0.0,0.0,0.0,0.0,0.0,0.0,0.0,0.0,0.0,0.0,0.0,0.0,0.0,0.0,0.0,0.0,0.0,0.0,0.0,0.0,0.0,0.0,6.8487,6.8899,0.0,0.0,0.0,6.7552,6.6705,0.0,0.0,0.0,0.0,0.0,0.0,0.0,0.0,0.0,0.0,0.0,0.0,0.0,0.0,0.0,0.0,0.0,0.0,0.0,0.0,0.0,0.0,0.0,0.0,0.0,0.0,0.0,0.0,0.0,0.0,0.0,0.0,0.0,0.0,0.0,0.0,0.0,0.0,0.0,0.0,0.0,0.0,0.0,0.0,0.0,0.0,0.0,0.0,0.0,0.0,0.0,0.0,0.0,0.0,0.0,0.0,0.0,7.1992,7.3711,7.5976,7.8672,7.8515,7.8512,7.8723,7.8479,0.0,0.0,0.0,0.0,0.0,0.0,0.0,0.0,0.0,0.0,0.0,0.0,0.0,0.0,0.0,0.0,0.0,0.0,0.0,0.0,0.0,0.0,0.0,0.0,0.0,0.0,0.0,5.7312,0.0,0.0,0.0,0.0,0.0,0.0,0.0,0.0,0.0,0.0,0.0,0.0,0.0,0.0,6.8722,6.8892,6.9615,6.9822,0.0,0.0,6.8411,6.7308,6.7116,6.6615,0.0,0.0,0.0,0.0,0.0,0.0,0.0,0.0,0.0,0.0,0.0,0.0,0.0,0.0,0.0,0.0,0.0,0.0,0.0,0.0,0.0,0.0,0.0,0.0,0.0,0.0,0.0,0.0,0.0,0.0,0.0,0.0,0.0,0.0,0.0,0.0,0.0,0.0,0.0,0.0,0.0,0.0,0.0,0.0,0.0,0.0,0.0,0.0,0.0,0.0,0.0,0.0,0.0,0.0,7.0257,7.1992,7.3711,7.6211,7.9453,7.8828,7.8789,7.957,7.8766,7.7067,0.0,0.0,0.0,0.0,0.0,0.0,0.0,0.0,0.0,0.0,0.0,0.0,0.0,0.0,0.0,0.0,0.0,0.0,0.0,0.0,0.0,0.0,0.0,0.0,0.0,0.0,0.0,0.0,0.0,0.0,0.0,0.0,0.0,0.0,0.0,0.0,0.0,0.0,0.0,0.0,0.0,6.8966,6.9733,7.0583,7.0792,0.0,6.9794,6.9191,6.746,6.7229,6.6858,6.5961,0.0,0.0,0.0,0.0,0.0,0.0,0.0,0.0,0.0,0.0,0.0,0.0,0.0,0.0,0.0,0.0,0.0,0.0,0.0,0.0,0.0,0.0,0.0,0.0,0.0,0.0,0.0,0.0,0.0,0.0,0.0,0.0,0.0,0.0,0.0,0.0,0.0,0.0,0.0,0.0,0.0,0.0,0.0,0.0,0.0,0.0,0.0,0.0,0.0,0.0,0.0,0.0,0.0,7.053,7.2773,7.3984,7.625,7.9531,7.9375,7.9375,7.9687,7.9356,7.7653,0.0,0.0,0.0,0.0,0.0,0.0,0.0,0.0,0.0,0.0,0.0,0.0,0.0,0.0,0.0,0.0,0.0,0.0,0.0,0.0,0.0,0.0,0.0,0.0,0.0,0.0,0.0,0.0,5.9857,6.0144,6.0916,0.0,0.0,0.0,0.0,0.0,0.0,0.0,0.0,0.0,0.0,6.9168,6.9983,7.0795,0.0,0.0,7.0738,7.0266,6.9037,6.8396,6.7691,6.6858,6.5279,0.0,0.0,0.0,0.0,0.0,0.0,0.0,0.0,0.0,0.0,0.0,0.0,0.0,0.0,0.0,0.0,0.0,0.0,0.0,0.0,0.0,0.0,0.0,0.0,0.0,0.0,0.0,0.0,0.0,0.0,0.0,0.0,0.0,0.0,0.0,0.0,0.0,0.0,0.0,0.0,0.0,0.0,0.0,0.0,0.0,0.0,0.0,0.0,0.0,0.0,0.0,0.0,7.0695,7.3281,7.414,7.625,7.9609,7.9726,7.9726,7.9722,7.9699,7.8058,0.0,0.0,0.0,0.0,0.0,0.0,0.0,0.0,0.0,0.0,0.0,0.0,0.0,0.0,0.0,0.0,0.0,0.0,0.0,0.0,0.0,0.0,0.0,0.0,0.0,0.0,0.0,0.0,6.0392,6.0676,6.1432,0.0,0.0,0.0,0.0,0.0,0.0,0.0,0.0,0.0,0.0,6.8972,6.9756,7.0559,7.1125,7.1337,7.1313,7.0976,7.0058,6.9162,6.8265,6.7393,0.0,0.0,0.0,0.0,0.0,0.0,0.0,0.0,0.0,0.0,0.0,0.0,0.0,0.0,0.0,0.0,0.0,0.0,0.0,0.0,0.0,0.0,0.0,0.0,0.0,0.0,0.0,6.1679,0.0,0.0,6.1707,0.0,0.0,0.0,0.0,0.0,0.0,0.0,0.0,0.0,0.0,0.0,0.0,0.0,0.0,0.0,0.0,0.0,0.0,0.0,0.0,0.0,0.0,7.0703,7.3281,7.418,7.625,7.957,7.9726,7.9722,7.9728,7.9723,7.8038,7.4558,0.0,0.0,0.0,0.0,0.0,0.0,0.0,0.0,0.0,0.0,0.0,0.0,0.0,0.0,0.0,0.0,0.0,0.0,0.0,0.0,0.0,0.0,0.0,0.0,0.0,0.0,6.0432,6.0405,6.0722,0.0,0.0,0.0,0.0,0.0,0.0,0.0,0.0,0.0,6.4079,6.627,6.8216,6.902,6.9818,7.061,7.1374,7.1436,7.1084,7.017,6.9275,6.8359,0.0,0.0,0.0,0.0,0.0,0.0,0.0,0.0,0.0,0.0,0.0,0.0,0.0,0.0,0.0,0.0,0.0,0.0,0.0,0.0,0.0,0.0,0.0,0.0,0.0,0.0,0.0,6.1719,6.1719,0.0,0.0,0.0,0.0,0.0,0.0,0.0,0.0,0.0,0.0,0.0,6.4291,6.4314,0.0,0.0,0.0,0.0,0.0,0.0,0.0,0.0,0.0,0.0,0.0,0.0,7.0976,7.4023,7.5039,7.6836,7.9609,8.0273,8.0272,7.9722,7.9699,7.7531,7.3002,0.0,0.0,0.0,0.0,0.0,0.0,0.0,0.0,0.0,0.0,0.0,0.0,0.0,0.0,0.0,0.0,0.0,0.0,0.0,0.0,0.0,0.0,0.0,0.0,0.0,6.1252,0.0,0.0,0.0,0.0,0.0,0.0,0.0,0.0,0.0,0.0,0.0,6.406,6.414,6.6371,6.833,6.9128,6.9952,7.072,0.0,0.0,0.0,0.0,0.0,0.0,0.0,0.0,0.0,0.0,0.0,0.0,0.0,0.0,6.1546,6.1472,6.1511,6.1484,6.1472,0.0,0.0,0.0,0.0,0.0,0.0,0.0,0.0,0.0,0.0,0.0,0.0,0.0,0.0,6.2617,6.2578,6.2305,0.0,0.0,0.0,0.0,0.0,0.0,0.0,0.0,6.5062,6.5229,6.5195,6.5188,6.5212,6.5199,6.5224,6.4762,0.0,0.0,0.0,0.0,0.0,0.0,0.0,0.0,7.1406,7.4492,7.5742,7.7461,7.9609,8.0547,8.0586,7.9726,7.8545,7.6185,7.2573,7.0431,6.8323,0.0,0.0,0.0,0.0,0.0,0.0,0.0,0.0,0.0,0.0,0.0,0.0,0.0,0.0,0.0,0.0,0.0,0.0,0.0,0.0,0.0,0.0,0.0,6.172,0.0,0.0,0.0,0.0,0.0,0.0,0.0,0.0,0.0,6.1539,6.3039,6.4168,6.4193,6.619,6.807,6.9163,0.0,0.0,0.0,0.0,0.0,0.0,0.0,6.8761,6.839,6.7089,6.5737,6.4735,6.3236,6.2027,6.155,0.0,0.0,6.1528,6.1539,6.1539,6.1528,6.1518,6.1507,6.1507,6.1495,6.1484,0.0,0.0,0.0,0.0,6.3047,0.0,0.0,0.0,6.4258,6.4258,0.0,6.3398,0.0,0.0,0.0,0.0,6.4375,6.5234,0.0,0.0,6.6523,6.6953,6.6914,6.6953,6.6988,6.6961,6.6988,6.6562,6.5742,6.4883,0.0,0.0,0.0,0.0,0.0,0.0,7.1992,7.457,7.6328,7.8047,7.9648,8.0586,8.0625,7.9648,7.6484,7.4292,7.3247,7.0782,6.8635,6.6956,6.5238,0.0,0.0,0.0,0.0,0.0,0.0,0.0,0.0,0.0,0.0,0.0,0.0,0.0,0.0,0.0,0.0,0.0,0.0,0.0,0.0,6.172,0.0,0.0,0.0,0.0,0.0,0.0,0.0,0.0,0.0,6.1627,6.1612,6.3124,6.4193,6.4229,0.0,0.0,0.0,0.0,6.9908,7.1585,7.1743,7.1354,7.0533,6.9578,6.864,6.7755,0.0,0.0,6.4178,6.2556,6.1499,6.1588,6.1607,6.1616,6.1603,6.1619,6.1588,6.1564,6.1586,6.1568,6.15,6.1518,6.1518,6.7305,0.0,0.0,0.0,0.0,6.3945,6.4062,6.4297,6.4297,6.4297,6.4297,6.4023,0.0,0.0,0.0,0.0,0.0,0.0,6.6523,6.6562,6.7422,6.7812,6.7851,6.8398,6.8672,6.8669,6.8672,6.8594,6.8359,6.75,6.6445,6.5273,0.0,0.0,0.0,0.0,7.2617,7.4609,7.6914,7.8633,7.9687,8.1172,8.1211,7.9726,7.6992,7.4843,7.3356,7.0778,6.863,6.6988,6.5263,0.0,0.0,0.0,0.0,0.0,0.0,0.0,0.0,0.0,0.0,0.0,0.0,0.0,0.0,0.0,0.0,0.0,0.0,0.0,6.1701,6.169,6.172,0.0,0.0,0.0,0.0,0.0,0.0,0.0,0.0,0.0,6.1699,6.313,6.4229,0.0,0.0,6.7234,6.8323,6.897,6.9777,7.087,7.0922,0.0,7.0499,6.9172,6.8031,6.773,6.6454,6.5097,6.407,6.304,6.2184,6.1694,6.1651,6.168,6.1693,6.1648,6.1595,6.1588,6.158,6.158,6.1573,6.1564,6.1603,7.0,6.7969,6.6133,6.5547,6.582,6.5469,6.5703,6.6289,6.5976,6.5859,6.5781,6.5117,6.4844,6.4805,6.4805,0.0,0.0,0.0,6.7422,6.7461,6.8281,6.8672,6.875,6.918,6.9414,6.9414,6.9414,6.9414,6.9492,6.8945,6.8164,6.7187,0.0,6.8242,6.9922,7.164,7.3203,7.4648,7.75,7.9219,7.9687,8.1054,8.1133,7.9726,7.7578,7.5586,7.3867,7.1289,6.9297,6.793,6.5584,6.4055,0.0,0.0,0.0,0.0,0.0,0.0,0.0,0.0,0.0,0.0,0.0,6.1174,6.1174,0.0,0.0,0.0,6.172,6.169,6.1707,6.1707,0.0,0.0,0.0,0.0,0.0,0.0,0.0,6.1705,6.171,6.172,6.172,6.3193,6.4247,6.4297,6.5801,6.7213,6.8034,0.0,6.9186,7.0074,7.0114,6.9956,6.9557,6.8592,6.7617,6.6827,6.5552,6.4349,6.3556,6.2782,6.2123,6.1712,6.1673,6.1699,6.169,6.1681,6.1632,6.1621,6.1654,6.1654,6.1648,6.1602,6.1595,7.2265,7.1953,6.8672,6.7695,6.8203,6.7461,6.7969,6.9336,6.8594,6.8281,6.8164,6.6562,6.5781,6.5703,6.5703,0.0,6.7031,6.7851,6.8203,6.832,6.914,6.9531,6.9609,6.9609,6.9609,6.9609,6.9609,6.9648,6.9726,6.957,6.957,6.9648,6.8906,6.9258,7.082,7.2539,7.3867,7.4844,7.8047,7.9765,7.9922,8.0703,8.0664,7.9726,7.8164,7.6445,7.4648,7.207,7.0312,6.9336,6.6133,6.4297,6.4258,0.0,0.0,0.0,0.0,0.0,0.0,0.0,0.0,0.0,0.0,0.0,0.0,0.0,0.0,0.0,6.172,0.0,6.1709,6.1717,0.0,0.0,0.0,6.1725,6.172,6.172,6.172,6.172,0.0,0.0,6.172,6.3204,6.4301,6.4301,6.5804,6.7182,6.7968,6.8122,6.8382,6.9215,6.9288,6.9003,6.8288,6.7862,6.7136,6.5606,6.4411,6.357,6.2886,6.2141,6.1694,6.1612,6.1641,6.171,6.1704,6.1707,6.1704,6.1686,6.172,6.1715,6.1705,6.1654,6.1648,7.457,7.3789,7.168,7.0156,6.9101,6.8945,6.9062,6.9375,6.918,6.9101,6.9023,6.8008,6.7226,6.6601,6.6562,6.707,6.789,6.8086,6.8515,6.918,7.0,7.039,7.043,7.1055,7.1406,7.1367,7.1406,7.1367,7.1367,7.0742,7.0742,7.1367,7.1172,7.1289,7.1719,7.3398,7.5039,7.6562,7.8633,8.0351,8.164,8.1875,8.125,7.9726,7.8711,7.707,7.4648,7.207,7.0312,6.9375,6.6133,6.4297,6.4297,6.2655,0.0,0.0,0.0,0.0,0.0,0.0,0.0,0.0,0.0,6.0385,6.0415,0.0,6.0778,0.0,6.172,6.1697,6.1717,6.1718,0.0,0.0,6.1717,6.1713,6.1704,6.169,6.172,6.172,6.1707,6.1711,6.1725,6.3243,6.431,6.4332,6.5781,6.6992,6.7187,6.7773,6.8238,6.8444,6.8435,6.8351,6.8027,6.6884,6.5873,6.5362,6.4066,6.2989,6.2813,6.2114,6.1603,6.1641,6.1681,6.1694,6.169,6.1701,6.1707,6.1704,6.1694,6.1715,6.1715,6.1671,6.1671,7.5976,7.5078,7.3711,7.2578,7.164,7.0508,7.0234,7.0547,7.0156,6.9961,6.9922,6.914,6.8515,6.8047,6.8047,6.8281,6.8789,6.914,6.9531,7.0039,7.0859,7.1289,7.1289,7.1758,7.1992,7.1992,7.1992,7.1992,7.1953,7.1523,7.1719,7.2578,7.2578,7.2969,7.375,7.4687,7.5859,7.7187,7.9219,8.0937,8.2226,8.2304,8.1484,7.9765,7.9258,7.7656,7.4687,7.2461,7.0703,6.9453,6.6523,6.4687,6.4297,6.3008,6.2109,0.0,0.0,0.0,0.0,0.0,0.0,0.0,0.0,0.0,0.0,0.0,6.0749,6.1629,6.1707,6.1711,6.1718,6.1719,6.1719,6.1719,6.1719,6.1718,6.1716,6.1711,6.1707,6.1707,6.1716,6.1718,6.1748,6.3191,6.4289,6.4336,6.582,6.6914,6.6914,6.7344,6.7616,6.7598,6.759,6.7546,6.7531,6.6346,6.528,6.4782,6.372,6.2718,6.2357,6.1924,6.1634,6.1687,6.1725,6.1709,6.1707,6.1711,6.1715,6.1715,6.1711,6.1704,6.1697,6.1694,6.1694,7.6914,7.6133,7.5156,7.4765,7.457,7.2226,7.1562,7.2109,7.1367,7.0898,7.0664,6.9961,6.9609,6.9492,6.9414,6.9492,6.9687,7.0351,7.0781,7.0937,7.164,7.1992,7.1992,7.2109,7.2148,7.2187,7.2265,7.2344,7.2344,7.2344,7.2734,7.3437,7.3555,7.4414,7.5859,7.6094,7.6719,7.7695,7.9961,8.1523,8.2304,8.2304,8.1445,7.9805,7.9726,7.8086,7.4726,7.293,7.1211,6.9531,6.6992,6.5234,6.4336,6.3476,6.2617,0.0,6.1719,0.0,0.0,0.0,0.0,0.0,0.0,0.0,0.0,6.0496,6.0884,6.164,6.1719,6.1719,6.1719,6.1719,6.1719,6.1719,6.1719,6.1719,6.1719,6.1719,6.1719,6.1719,6.1719,6.1719,6.1758,6.3203,6.4297,6.4414,6.5781,6.6875,6.6914,6.6914,6.6952,6.6906,6.6904,6.693,6.6628,6.5854,6.4926,6.4146,6.328,6.25,6.1768,6.168,6.1693,6.1687,6.1725,6.1709,6.1718,6.1719,6.1719,6.1719,6.1719,6.1719,6.1713,6.1711,6.1707,7.8164,7.7851,7.6289,7.5664,7.5547,7.4375,7.3555,7.3047,7.289,7.1992,7.0703,7.0547,7.0117,6.9492,6.9492,6.9844,7.0469,7.0625,7.1094,7.1758,7.1914,7.1992,7.2031,7.2734,7.3047,7.3125,7.375,7.4101,7.4101,7.4101,7.418,7.4375,7.5078,7.5586,7.5976,0.0,0.0,0.0,8.1445,8.2109,8.2304,8.2304,8.1484,7.9805,7.9726,0.0,7.4765,7.293,7.1211,6.9453,6.6992,0.0,0.0,0.0,0.0,0.0,0.0,0.0,0.0,0.0,0.0,0.0,6.1445,6.1133,6.0508,6.1054,6.1523,6.168,6.1719,6.1719,6.1719,6.1719,6.1719,6.1719,6.1719,6.1719,6.1719,6.1719,6.1719,6.1719,6.1719,6.1719,6.1797,6.3203,6.4297,6.4375,6.582,6.6836,6.6914,6.6914,6.6914,6.6913,6.6865,6.657,6.5853,6.5016,6.4145,6.3272,6.2407,6.1868,6.1726,6.1687,6.1699,6.171,6.172,6.1701,6.1719,6.1719,6.1719,6.1719,6.1719,6.1719,6.1718,6.1719,6.1718,7.9258,7.8398,7.7578,7.6953,0.0,7.6055,7.539,7.457,7.414,7.3203,7.1953,7.1523,7.1094,7.0742,7.0742,7.0976,7.1367,7.1797,7.2226,7.2656,7.3086,7.3281,7.3281,7.375,7.3945,7.3945,7.4375,7.457,7.457,7.457,7.4805,7.5273,7.5703,7.6328,7.7187,7.8867,8.0156,8.0976,8.1875,8.2304,8.2304,8.2304,8.1445,7.9805,7.9726,0.0,0.0,0.0,0.0,0.0,0.0,0.0,0.0,6.414,0.0,6.2422,6.1953,6.1719,6.1719,6.1719,6.1719,6.1719,6.1719,6.1523,6.1055,6.1445,6.1719,6.1719,6.1719,6.1719,6.1719,6.1719,6.1719,6.1719,6.1719,6.1719,6.1719,6.1719,6.1719,6.1719,6.1719,6.1719,6.1719,6.3203,6.4219,6.4375,6.5781,6.6914,6.6914,6.6914,6.6914,6.6875,6.6482,6.6078,6.5551,6.4409,6.3506,6.2948,6.2245,6.1738,6.1705,6.1705,6.171,6.1715,6.172,6.1694,6.1719,6.1719,6.1719,6.1719,6.1719,6.1719,6.1719,6.1719,6.1719,8.0195,7.8945,7.8789,7.8203,7.7422,7.7422,7.6914,7.6055,7.5039,0.0,0.0,7.2773,7.2461,7.2461,7.2461,7.2461,7.25,7.3203,7.3515,7.3555,7.4258,7.457,7.4609,7.4765,7.4844,7.4844,7.5,7.5078,7.5039,7.5078,7.543,7.6055,7.6289,7.7226,7.8904,8.0312,8.1094,8.125,8.1914,8.2304,8.2304,8.2304,8.1484,7.9765,7.9726,7.8086,7.4726,7.3789,7.2109,6.9531,6.8633,6.7383,6.5703,6.4805,6.3906,6.3047,6.2187,6.1719,6.1719,6.1719,6.1719,6.1719,6.1719,6.1719,6.1719,6.1719,6.1719,6.1719,6.1719,6.1719,6.1719,6.1719,6.1719,6.1719,6.1719,6.1719,6.1719,6.1719,6.1719,6.1719,6.1719,6.1719,6.1758,6.3203,6.4297,6.4492,6.582,6.6914,6.6914,6.6914,6.6914,6.6836,6.625,6.5583,6.5176,6.4111,6.3013,6.2696,6.2149,6.172,6.1725,6.172,6.172,6.172,6.1725,6.1704,6.1719,6.1719,6.1719,6.1719,6.1719,6.1719,6.1719,6.1719,6.1719,8.0859,8.0586,7.9844,7.9062,7.832,7.832,7.7812,7.6914,7.5312,7.4531,7.4414,7.4297,7.4219,7.4219,7.4258,7.4219,7.4219,7.4336,7.4414,7.4414,7.4531,7.457,7.4648,7.539,7.5703,7.5781,7.6445,7.6836,7.6836,7.6797,7.6914,7.707,7.7695,7.894,8.0514,8.0893,8.1367,8.2109,8.2265,8.2304,8.2304,8.2304,8.1484,7.9805,7.9726,7.8086,7.4726,7.3789,7.2109,6.9531,6.8633,6.7422,6.5703,6.4805,6.3906,6.3047,6.2187,6.1719,6.1719,6.1719,6.1719,6.1719,6.1719,6.1719,6.1719,6.1719,6.1719,6.1719,6.1719,6.1719,6.1719,6.1719,6.1719,6.1719,6.1719,6.1719,6.1719,6.1719,6.1719,6.1719,6.1719,6.1719,6.1836,6.3203,6.4297,6.4531,6.5781,6.6914,6.6914,6.6914,6.6914,6.6797,6.6172,6.5351,6.4569,6.3703,6.2755,6.1993,6.1837,6.1725,6.1701,6.1694,6.1725,6.172,6.1707,6.1719,6.1719,6.1719,6.1719,6.1719,6.1719,6.1719,6.1719,6.1719,6.1719,8.1445,8.0976,8.0586,7.9922,7.914,7.8672,7.8281,7.7812,7.6556,7.5738,7.5273,7.4805,7.4569,7.4595,7.4595,7.4601,7.4606,7.5078,7.5312,7.5351,7.5781,7.6015,7.6055,7.6406,7.6601,7.664,7.6992,7.7226,7.7226,7.7226,7.7422,7.789,7.9134,8.0207,8.0966,8.1461,8.1907,8.2304,8.2304,8.2304,8.2304,8.2304,8.1719,8.0429,7.9961,7.8555,7.6094,7.4726,7.3008,7.0898,6.9609,6.832,6.707,6.5742,6.4609,6.375,6.289,6.2187,6.1719,6.1719,6.1719,6.1719,6.1719,6.1719,6.1719,6.1719,6.1719,6.1719,6.1719,6.1719,6.1719,6.1719,6.1719,6.1719,6.1719,6.1719,6.1719,6.1719,6.1719,6.1719,6.1719,6.1719,6.1719,6.3203,6.4297,6.4453,6.582,6.6836,6.6875,6.6484,6.6172,6.6133,6.5469,6.4609,6.375,6.2851,6.2184,6.175,6.1694,6.1725,6.1697,6.1701,6.1709,6.1711,6.1719,6.1719,6.1719,6.1719,6.1719,6.1719,6.1719,6.1719,6.1719,6.1719,6.1719,8.1913,8.1286,8.1286,8.0779,7.9921,7.9101,7.875,7.8672,7.7829,7.7087,7.6403,7.5546,7.5186,7.516,7.5149,7.516,7.5255,7.5853,7.6172,7.625,7.6836,7.7187,7.7187,7.7187,7.7226,7.7226,7.7225,7.7263,7.7458,7.7458,7.8005,7.9019,8.0363,8.1083,8.1317,8.2176,8.2589,8.2614,8.2812,8.2695,8.2304,8.2304,8.1875,8.1015,8.0156,7.8906,7.7265,7.5547,7.3789,7.2109,7.0586,6.9297,6.8203,6.6758,6.5508,6.4648,6.3594,6.2617,6.1797,6.1719,6.1719,6.1719,6.1719,6.1719,6.1719,6.1719,6.1719,6.1719,6.1719,6.1719,6.1719,6.1719,6.1719,6.1719,6.1719,6.1719,6.1719,6.1719,6.1719,6.1719,6.1719,6.1719,6.1953,6.3047,6.4101,6.4726,6.5937,6.6836,6.6797,6.6172,6.5625,6.5195,6.457,6.3828,6.3047,6.2305,6.1797,6.1719,6.1711,6.1704,6.1704,6.1715,6.1719,6.1719,6.1719,6.1719,6.1719,6.1719,6.1719,6.1719,6.1719,6.1719,6.1719,6.1719,6.1719,8.2258,8.2188,8.2149,8.1691,8.0811,7.996,7.9609,7.9492,7.8649,7.8278,7.8049,7.7251,7.6824,7.686,7.6839,7.6789,7.6795,7.6951,7.6977,7.6953,7.707,7.7109,7.7148,7.7187,7.7226,7.7265,7.7286,7.7698,7.8284,7.8317,7.9137,8.0582,8.0927,8.1396,8.2176,8.3029,8.3465,8.3476,8.4253,8.3906,8.2422,8.2304,8.1875,8.1015,8.0156,7.8906,7.7344,7.5508,7.3828,7.2109,7.1133,6.9883,6.8359,6.7305,6.6406,6.5469,6.3906,6.2617,6.1836,6.1719,6.1719,6.1719,6.1719,6.1719,6.1719,6.1719,6.1719,6.1719,6.1719,6.1719,6.1719,6.1719,6.1719,6.1719,6.1719,6.1719,6.1719,6.1719,6.1719,6.1719,6.1719,6.1719,6.1836,6.2656,6.3828,6.5195,6.6211,6.6914,6.6836,6.6055,6.5234,6.4531,6.3711,6.3164,6.2851,6.2265,6.1797,6.1719,6.1719,6.1719,6.1719,6.1719,6.1719,6.1719,6.1719,6.1719,6.1719,6.1719,6.1719,6.1719,6.1719,6.1719,6.1719,6.1719,6.1719,8.2295,8.2315,8.2299,8.2104,8.1647,8.0836,8.0449,8.0371,7.9533,7.9157,7.9065,7.8266,7.7581,7.7117,7.7107,7.7101,7.7101,7.7101,7.7073,7.7091,7.7091,7.7368,7.7836,7.7911,7.8145,7.8653,7.8688,7.884,7.9191,7.9645,8.0257,8.0927,8.1435,8.189,8.2304,8.31,8.3536,8.3543,8.4385,8.4482,8.3867,8.332,8.2656,8.1797,8.0937,7.9922,7.8672,7.7031,7.5351,7.3594,7.2226,7.0703,6.9062,6.8164,6.7031,6.5664,6.3984,6.2851,6.25,6.1992,6.1719,6.1719,6.1719,6.1719,6.1719,6.1719,6.1719,6.1719,6.1719,6.1719,6.1719,6.1719,6.1719,6.1719,6.1719,6.1719,6.1719,6.1719,6.1719,6.1719,6.1719,6.1719,6.1914,6.293,6.4219,6.543,6.6328,6.6875,6.6836,6.5742,6.4765,6.4219,6.3164,6.2344,6.2226,6.1992,6.1719,6.1719,6.1719,6.1719,6.1719,6.1719,6.1719,6.1719,6.1719,6.1719,6.1719,6.1719,6.1719,6.1719,6.1719,6.1719,6.1719,6.1719,6.1719,8.2472,8.2276,8.2254,8.228,8.2202,8.1617,8.1311,8.1233,8.0407,8.0033,7.9929,7.9088,7.8402,7.7791,7.7323,7.7089,7.7089,7.7323,7.7407,7.7453,7.7648,7.8155,7.8702,7.878,7.9086,7.96,7.9655,7.9782,8.009,8.0861,8.1233,8.1343,8.1875,8.2288,8.2601,8.3419,8.3982,8.4271,8.5058,8.5439,8.5156,8.4413,8.3554,8.2656,8.1562,8.0586,7.9726,7.8086,7.6523,7.5,7.3281,7.168,7.0273,6.914,6.7656,6.5781,6.4453,6.3594,6.3359,6.2539,6.207,6.2031,6.1875,6.1719,6.1719,6.1719,6.1719,6.1719,6.1719,6.1719,6.1719,6.1719,6.1719,6.1719,6.1719,6.1719,6.1719,6.1719,6.1719,6.1719,6.1719,6.1719,6.1953,6.3164,6.4531,6.5117,6.6172,6.6758,6.6445,6.5273,6.4258,6.3945,6.2656,6.1836,6.1719,6.1719,6.1719,6.1719,6.1719,6.1719,6.1719,6.1719,6.1719,6.1719,6.1719,6.1719,6.1719,6.1719,6.1719,6.1719,6.1719,6.1719,6.1719,6.1719,6.1719,8.2951,8.2257,8.2201,8.2192,8.2192,8.2132,8.2117,8.2014,8.1226,8.0846,8.0739,7.9929,7.95,7.9344,7.7862,7.7043,7.7168,7.7909,7.8277,7.8344,7.9053,7.9522,7.9639,7.9639,7.9672,7.9906,7.9945,8.025,8.0938,8.1734,8.2117,8.2045,8.2151,8.2545,8.3312,8.4182,8.5086,8.5769,8.6652,8.6861,8.6053,8.5268,8.4414,8.3515,8.1914,8.0664,7.9687,7.8125,7.6797,7.5898,7.418,7.2812,7.1836,7.0273,6.8203,6.6015,6.5508,6.5078,6.4258,6.3437,6.293,6.2851,6.2305,6.1797,6.1953,6.1953,6.1953,6.1797,6.1953,6.1914,6.1875,6.1797,6.1719,6.1719,6.1719,6.1719,6.1719,6.1719,6.1719,6.1719,6.1719,6.1719,6.1758,6.3203,6.414,6.4726,6.5859,6.664,6.582,6.4922,6.4062,6.3242,6.2383,6.1719,6.1719,6.1719,6.1719,6.1719,6.1719,6.1719,6.1719,6.1719,6.1719,6.1719,6.1719,6.1719,6.1719,6.1719,6.1719,6.1719,6.1719,6.1719,6.1719,6.1719,6.1719,8.2962,8.2143,8.2133,8.2162,8.214,8.2151,8.2143,8.2093,8.1811,8.1636,8.1455,8.0689,8.0299,8.0247,7.9066,7.8597,7.8691,7.9003,7.914,7.9174,7.9448,7.9899,8.0417,8.0484,8.0774,8.1243,8.1282,8.1421,8.1675,8.2006,8.2093,8.2172,8.2596,8.3048,8.3532,8.4791,8.5663,8.6022,8.6909,8.7251,8.6861,8.6116,8.527,8.4414,8.2734,8.1406,8.0547,7.9414,7.8164,7.6797,7.5078,7.3476,7.1992,6.9883,6.8281,6.7305,6.6211,6.5469,6.5078,6.4336,6.3828,6.3828,6.3555,6.332,6.3359,6.3359,6.3359,6.332,6.3359,6.3359,6.3125,6.2383,6.1719,6.1719,6.1719,6.1719,6.1719,6.1719,6.1719,6.1719,6.1719,6.1719,6.207,6.3242,6.4258,6.4453,6.582,6.6328,6.5703,6.4844,6.3984,6.3125,6.2305,6.1719,6.1719,6.1719,6.1719,6.1719,6.1719,6.1719,6.1719,6.1719,6.1719,6.1719,6.1719,6.1719,6.1719,6.1719,6.1719,6.1719,6.1719,6.1719,6.1719,6.1719,6.1719,8.292,8.2104,8.2065,8.2052,8.2078,8.2078,8.2052,8.205,8.2039,8.2007,8.1848,8.1298,8.1042,8.097,8.0409,8.0186,8.0221,8.0053,7.9984,7.9978,8.0251,8.0697,8.1181,8.1271,8.1594,8.2062,8.2151,8.2101,8.2089,8.205,8.214,8.2401,8.2932,8.3543,8.4183,8.5282,8.5945,8.6403,8.7029,8.7386,8.729,8.6567,8.5732,8.4844,8.3476,8.2187,8.1054,8.0156,7.9062,7.7617,7.5976,7.4101,7.207,6.9844,6.8476,6.8086,6.6836,6.6015,6.5937,6.5195,6.4726,6.4687,6.4414,6.4297,6.4297,6.4297,6.4297,6.4297,6.4297,6.4297,6.4101,6.3242,6.2461,6.2187,6.2109,6.1992,6.1719,6.1719,6.1719,6.1719,6.1719,6.1836,6.2226,6.3437,6.4297,6.4648,6.6015,6.6445,6.539,6.4687,6.3828,6.2812,6.2109,6.1758,6.1719,6.1719,6.1719,6.1719,6.1719,6.1719,6.1719,6.1719,6.1719,6.1719,6.1719,6.1719,6.1719,6.1719,6.1719,6.1719,6.1719,6.1719,6.1719,6.1719,6.1719,8.2839,8.2108,8.1991,8.203,8.1975,8.1975,8.1991,8.1952,8.1943,8.1892,8.185,8.1776,8.1659,8.1679,8.1505,8.1601,8.1407,8.0915,8.0698,8.0767,8.1442,8.1792,8.1883,8.1866,8.1875,8.2085,8.2036,8.2012,8.1998,8.2022,8.2357,8.2925,8.3173,8.4029,8.5602,8.5738,8.6238,8.6909,8.722,8.7351,8.7283,8.6627,8.5834,8.5,8.4101,8.2851,8.1211,8.0273,7.9414,7.8437,7.6836,7.4687,7.2344,7.039,6.9101,6.8437,6.7461,6.6953,6.6797,6.6094,6.5625,6.5547,6.4883,6.4609,6.4648,6.4609,6.457,6.4609,6.457,6.4492,6.4531,6.4375,6.3945,6.3164,6.3008,6.2695,6.2031,6.1719,6.1719,6.1719,6.1797,6.2109,6.289,6.3867,6.4687,6.543,6.625,6.6367,6.5039,6.4492,6.3555,6.2383,6.1836,6.1719,6.1719,6.1719,6.1719,6.1719,6.1719,6.1719,6.1719,6.1719,6.1719,6.1719,6.1719,6.1719,6.1719,6.1719,6.1719,6.1719,6.1719,6.1719,6.1719,6.1719,6.1719,8.3523,8.2747,8.2689,8.234,8.1834,8.1796,8.1796,8.1774,8.1776,8.1769,8.1755,8.173,8.1755,8.1734,8.1695,8.1674,8.1695,8.1465,8.1387,8.1437,8.1734,8.1836,8.1848,8.1892,8.1873,8.189,8.1869,8.183,8.1929,8.2387,8.2837,8.3174,8.4172,8.4955,8.5575,8.62,8.6747,8.702,8.7247,8.7302,8.733,8.712,8.6576,8.5742,8.4922,8.3945,8.2812,8.1406,8.0234,7.9336,7.7695,7.5625,7.3164,7.125,7.0195,6.9805,6.8555,6.7812,6.7695,6.7031,6.6523,6.6484,6.625,6.6133,6.6094,6.6055,6.6015,6.6055,6.6094,6.6094,6.6094,6.6094,6.543,6.4023,6.3867,6.3555,6.2734,6.2109,6.1758,6.1797,6.2226,6.2695,6.3203,6.418,6.5234,6.5625,6.6367,6.6367,6.543,6.4648,6.3945,6.2812,6.2305,6.1758,6.1719,6.1719,6.1719,6.1719,6.1719,6.1719,6.1719,6.1719,6.1719,6.1719,6.1719,6.1719,6.1719,6.1719,6.1719,6.1719,6.1719,6.1719,6.1719,6.1719,6.1719,8.4298,8.348,8.3441,8.2954,8.2134,8.2156,8.1967,8.1659,8.163,8.163,8.1594,8.1542,8.1553,8.1553,8.1553,8.1553,8.1553,8.1553,8.1546,8.1579,8.1718,8.1757,8.1773,8.1785,8.1769,8.1775,8.1757,8.1892,8.2221,8.2708,8.3272,8.404,8.492,8.5616,8.5952,8.6529,8.6902,8.7011,8.7131,8.7242,8.7312,8.7347,8.6967,8.6133,8.5312,8.4492,8.3594,8.2226,8.0937,7.9609,7.7812,7.5781,7.3867,7.2187,7.1055,7.0508,6.9531,6.8672,6.8594,6.8164,6.7851,6.7851,6.7851,6.7656,6.7461,6.7383,6.7305,6.6953,6.6836,6.6914,6.6875,6.6875,6.6328,6.543,6.4961,6.4414,6.3633,6.3008,6.2734,6.2851,6.3203,6.3555,6.418,6.4687,6.5781,6.6055,6.6523,6.6562,6.5781,6.5117,6.4258,6.3437,6.2695,6.2187,6.1758,6.1719,6.1719,6.1719,6.1719,6.1719,6.1719,6.1719,6.1719,6.1719,6.1719,6.1719,6.1719,6.1719,6.1719,6.1719,6.1719,6.1719,6.1719,6.1719,6.1719,8.5041,8.4305,8.4266,8.3677,8.2893,8.2979,8.2483,8.1708,8.163,8.1555,8.1407,8.1358,8.1319,8.1291,8.1347,8.1347,8.1291,8.1347,8.1439,8.1542,8.1701,8.1801,8.1683,8.1774,8.1901,8.184,8.194,8.2328,8.2964,8.3203,8.3785,8.508,8.5346,8.5848,8.661,8.6842,8.7103,8.7366,8.7362,8.7481,8.7487,8.7503,8.7118,8.6289,8.5508,8.4687,8.3828,8.2617,8.1289,7.9648,7.7461,7.5781,7.457,7.3008,7.1719,7.1055,7.0117,6.9609,6.9492,6.9219,6.918,6.918,6.914,6.9101,6.8398,6.8242,6.8008,6.7422,6.7305,6.7226,6.7226,6.7109,6.6953,6.6797,6.5898,6.5156,6.4492,6.4258,6.3984,6.4101,6.4336,6.4609,6.5273,6.5586,6.6094,6.6562,6.6836,6.6523,6.6055,6.5469,6.4765,6.4023,6.332,6.2617,6.2226,6.1719,6.1719,6.1719,6.1719,6.1719,6.1719,6.1719,6.1719,6.1719,6.1719,6.1719,6.1719,6.1719,6.1719,6.1719,6.1719,6.1719,6.1758,6.1836,6.207,8.5705,8.4877,8.4877,8.4375,8.3575,8.3603,8.3141,8.2341,8.2289,8.1957,8.1484,8.1311,8.133,8.1291,8.133,8.1291,8.1368,8.1358,8.1744,8.2207,8.229,8.1981,8.1683,8.2052,8.235,8.2444,8.2857,8.3371,8.3603,8.416,8.4752,8.5177,8.5913,8.6648,8.7383,8.7681,8.8142,8.8692,8.8928,8.8651,8.826,8.8266,8.7921,8.7079,8.6247,8.539,8.4414,8.2461,8.0859,7.9687,7.793,7.6445,7.5469,7.3945,7.289,7.2422,7.125,7.039,7.0273,6.9844,6.9531,6.9414,6.9609,6.9297,6.914,6.914,6.8984,6.875,6.875,6.8711,6.8672,6.8203,6.7656,6.6914,6.6328,6.5664,6.5234,6.4687,6.4297,6.4336,6.4883,6.5351,6.5664,6.6133,6.6562,6.6836,6.6875,6.6836,6.6406,6.5976,6.5312,6.4805,6.4101,6.3281,6.2617,6.2031,6.1758,6.1719,6.1719,6.1719,6.1719,6.1719,6.1719,6.1719,6.1719,6.1719,6.1719,6.1719,6.1719,6.1914,6.1992,6.2109,6.2109,6.2148,6.2617,8.6105,8.5651,8.5651,8.512,8.4357,8.431,8.3828,8.3133,8.3027,8.2593,8.1886,8.1715,8.1514,8.1282,8.1591,8.1715,8.1783,8.2121,8.2554,8.2909,8.3037,8.2806,8.2593,8.2948,8.3094,8.3143,8.3568,8.3992,8.4339,8.4888,8.5418,8.618,8.6665,8.7389,8.8261,8.8428,8.879,8.9292,8.9579,8.9426,8.9093,8.8784,8.8447,8.7765,8.6836,8.5664,8.4297,8.2539,8.1015,7.9765,7.8437,7.7187,7.5976,7.5,7.4219,7.3867,7.2539,7.1797,7.164,7.1015,7.0586,7.0508,7.0469,7.0273,7.0039,6.9961,6.9922,6.9414,6.9453,6.9453,6.9375,6.8984,6.8515,6.8086,6.75,6.6914,6.625,6.5742,6.543,6.5508,6.582,6.6133,6.6133,6.6601,6.6797,6.6914,6.6914,6.6875,6.6758,6.6367,6.5937,6.539,6.4961,6.4219,6.3476,6.2851,6.2461,6.2344,6.207,6.1992,6.1914,6.1914,6.1758,6.1758,6.1719,6.1797,6.1914,6.207,6.2305,6.2461,6.25,6.2734,6.289,6.2969,6.3359,8.6585,8.6508,8.6508,8.5976,8.5183,8.5167,8.4674,8.3888,8.3796,8.3333,8.2586,8.2432,8.2124,8.14,8.224,8.2439,8.2477,8.3048,8.351,8.3779,8.3933,8.3978,8.4048,8.3894,8.3919,8.3972,8.3963,8.4541,8.5128,8.5321,8.6131,8.7087,8.7571,8.8213,8.8973,8.9223,8.9385,8.9809,9.0072,9.0063,8.9869,8.9415,8.9008,8.8351,8.6914,8.5469,8.414,8.2851,8.1679,7.9922,7.9062,7.789,7.6484,7.6133,7.5508,7.4765,7.3867,7.332,7.332,7.2656,7.2265,7.2265,7.2265,7.1992,7.1445,7.125,7.0898,7.0351,6.9805,6.9883,6.9648,6.957,6.9414,6.918,6.918,6.8594,6.7617,6.7109,6.6992,6.6914,6.6875,6.6875,6.6914,6.6914,6.6914,6.6914,6.6914,6.6914,6.6914,6.668,6.6328,6.5937,6.5547,6.5234,6.4453,6.3711,6.3398,6.3125,6.2734,6.2578,6.2422,6.2305,6.1992,6.1875,6.2148,6.2344,6.25,6.2695,6.3008,6.3203,6.3359,6.3789,6.418,6.418,6.4414,8.7879,8.7198,8.7198,8.6665,8.5934,8.5857,8.5395,8.4637,8.4626,8.4164,8.3445,8.3324,8.3202,8.3016,8.317,8.3324,8.3324,8.3632,8.3939,8.4676,8.5363,8.5555,8.544,8.5055,8.4709,8.485,8.535,8.5697,8.6005,8.6582,8.7083,8.7506,8.832,8.9017,8.9806,9.0054,9.0532,9.1214,9.1428,9.1141,9.0781,9.0521,8.9857,8.8735,8.7063,8.5742,8.4726,8.3789,8.25,8.0976,7.9883,7.8906,7.7812,7.664,7.5937,7.5508,7.4844,7.4297,7.4258,7.4062,7.4023,7.3867,7.3789,7.3984,7.3789,7.3008,7.2695,7.2305,7.1875,7.125,7.0625,7.0469,7.0234,6.9883,6.9648,6.9453,6.8906,6.832,6.7734,6.7226,6.7031,6.6914,6.6953,6.7109,6.707,6.6953,6.6992,6.6953,6.6992,6.7109,6.6875,6.6601,6.6094,6.5742,6.539,6.4609,6.4062,6.375,6.3398,6.3203,6.3086,6.2812,6.2578,6.2578,6.2734,6.293,6.3164,6.3633,6.4023,6.414,6.4258,6.457,6.4883,6.5117,6.5351,8.8435,8.8017,8.8017,8.7517,8.6786,8.6709,8.6247,8.556,8.5478,8.4983,8.433,8.4176,8.3978,8.367,8.4016,8.4209,8.4324,8.4632,8.5016,8.5483,8.594,8.6286,8.6637,8.6329,8.606,8.6132,8.644,8.6863,8.7363,8.7748,8.8171,8.8551,8.9094,8.9787,9.0591,9.0844,9.1135,9.1618,9.1983,9.1859,9.1587,9.1194,9.0306,8.8735,8.7148,8.5937,8.5469,8.4219,8.3203,8.2148,8.1015,7.9726,7.8672,7.7617,7.6992,7.6445,7.5703,7.5234,7.5195,7.4844,7.4531,7.4648,7.4609,7.457,7.4531,7.4101,7.3984,7.3828,7.3437,7.2851,7.2031,7.1914,7.1523,7.0898,7.0664,7.0508,7.0039,6.9336,6.8672,6.8242,6.8242,6.8203,6.8125,6.789,6.8008,6.8242,6.832,6.8281,6.8086,6.8086,6.7734,6.7344,6.668,6.6289,6.6094,6.5508,6.4726,6.4375,6.3984,6.3906,6.3828,6.3555,6.3203,6.3398,6.3633,6.3711,6.3945,6.4492,6.4922,6.5039,6.5156,6.5351,6.5625,6.6055,6.6211,8.9017,8.8863,8.8863,8.8363,8.7671,8.7594,8.7094,8.6363,8.6324,8.5863,8.5176,8.5099,8.4747,8.4324,8.4786,8.5055,8.5286,8.5863,8.6286,8.6324,8.6632,8.7055,8.7478,8.7521,8.7598,8.7748,8.7632,8.7979,8.8402,8.8825,8.9094,8.9782,9.0283,9.0821,9.1356,9.174,9.2035,9.239,9.2339,9.2321,9.2247,9.1676,9.0573,8.9008,8.7695,8.6562,8.5976,8.4922,8.3906,8.3554,8.2187,8.0625,7.9297,7.8515,7.8242,7.7383,7.6601,7.6172,7.6015,7.5547,7.5156,7.5,7.5039,7.5078,7.5117,7.4961,7.4805,7.4726,7.4453,7.4101,7.3594,7.3359,7.3047,7.2578,7.2383,7.1992,7.125,7.0469,7.0156,6.9336,6.9023,6.8945,6.9062,6.9062,6.9297,6.9453,6.9531,6.9492,6.9258,6.9023,6.8594,6.8164,6.7578,6.6797,6.6523,6.6445,6.5664,6.5351,6.4922,6.4922,6.4922,6.4883,6.4687,6.4414,6.4531,6.4648,6.4922,6.543,6.5781,6.5898,6.6094,6.6289,6.6601,6.7031,6.7148,9.0364,8.971,8.971,8.9248,8.8556,8.8479,8.7979,8.7281,8.7204,8.6671,8.5978,8.5901,8.5901,8.5747,8.5786,8.5901,8.6247,8.6824,8.7171,8.7319,8.7704,8.8243,8.8402,8.8483,8.879,8.9133,8.894,8.8748,8.8979,8.9363,8.994,9.0283,9.1322,9.2168,9.2511,9.3103,9.3377,9.334,9.3155,9.3046,9.2964,9.2325,9.1275,8.9774,8.8597,8.7561,8.6522,8.5937,8.5117,8.3789,8.332,8.2187,8.0703,7.9336,7.8633,7.8203,7.7578,7.7109,7.6953,7.6836,7.6758,7.6758,7.6601,7.664,7.6523,7.6094,7.5742,7.5508,7.5106,7.4579,7.4418,7.436,7.4327,7.4132,7.3897,7.3663,7.2962,7.2461,7.168,7.0508,6.9961,6.9648,6.9883,7.0039,7.0078,7.0117,7.0117,7.0078,6.9922,6.9687,6.9336,6.8945,6.8476,6.7656,6.6953,6.6992,6.668,6.6601,6.6367,6.6367,6.6367,6.6484,6.6328,6.6094,6.5781,6.5703,6.6055,6.6484,6.6758,6.6953,6.7109,6.7226,6.7617,6.8008,6.8281,9.0979,9.0594,9.0594,9.0094,8.9402,8.9325,8.8825,8.8166,8.8051,8.7589,8.7127,8.7209,8.7171,8.6978,8.7286,8.744,8.755,8.7786,8.8055,8.8209,8.8479,8.8974,8.9286,8.9329,8.9829,9.0248,9.0171,8.9979,9.0094,9.0864,9.1133,9.1514,9.2515,9.313,9.3249,9.3628,9.4023,9.4055,9.3861,9.3762,9.3775,9.2929,9.1691,9.0656,8.9398,8.8324,8.7639,8.6483,8.5625,8.4492,8.3828,8.2929,8.1719,8.0586,7.9609,7.918,7.8711,7.8242,7.7969,7.7851,7.7656,7.7226,7.7265,7.7226,7.7148,7.6797,7.659,7.643,7.6277,7.5712,7.535,7.5277,7.5048,7.4701,7.4623,7.4427,7.4115,7.4006,7.3033,7.1827,7.1445,7.1133,7.0898,7.0976,7.0859,7.0781,7.0742,7.0703,7.0625,7.039,7.0117,6.9726,6.9297,6.8711,6.8008,6.7851,6.7695,6.7578,6.7578,6.7578,6.7578,6.7539,6.7773,6.789,6.75,6.6836,6.7109,6.7539,6.7773,6.8008,6.8203,6.8398,6.8672,6.8945,6.918,9.121,9.121,9.121,9.0787,9.0248,9.0171,8.971,8.9056,8.8936,8.8435,8.7825,8.8286,8.8248,8.7979,8.8248,8.8628,8.8738,8.8786,8.8906,8.9021,8.9286,8.9633,8.9983,9.0252,9.0598,9.1325,9.1402,9.1441,9.1441,9.1941,9.2441,9.2823,9.3477,9.3977,9.4059,9.4443,9.4348,9.4441,9.4433,9.4508,9.4195,9.3237,9.2159,9.1436,8.9977,8.9125,8.8435,8.7522,8.6325,8.5273,8.4375,8.3515,8.2617,8.1758,8.0937,8.0312,7.9922,7.9336,7.8945,7.875,7.8515,7.8047,7.7812,7.7773,7.7773,7.7907,7.7732,7.7614,7.7347,7.7117,7.6588,7.623,7.584,7.5449,7.5215,7.502,7.4903,7.4792,7.4603,7.372,7.3114,7.2734,7.2539,7.2461,7.2461,7.1992,7.1953,7.1601,7.1484,7.1172,7.0859,7.0508,7.0078,6.9648,6.9219,6.8945,6.8711,6.8437,6.8398,6.8398,6.8437,6.8437,6.8711,6.8906,6.8437,6.789,6.8242,6.8476,6.8594,6.8828,6.9258,6.9492,6.9609,6.9765,6.9961,9.121,9.121,9.121,9.1133,9.1018,9.0979,9.0521,8.979,8.9752,8.9329,8.856,8.8709,8.8786,8.8709,8.8709,8.8786,8.8979,8.9479,8.9752,8.9867,9.0364,9.0748,9.1018,9.1056,9.1556,9.221,9.2326,9.2364,9.2518,9.2672,9.2979,9.3595,9.4362,9.4826,9.4905,9.5405,9.6095,9.5973,9.5586,9.5117,9.459,9.38,9.3,9.2171,9.1223,9.0094,8.9008,8.8246,8.7475,8.5966,8.5115,8.4336,8.3515,8.2617,8.2226,8.1562,8.0703,7.9648,7.957,7.957,7.9448,7.9157,7.9187,7.9338,7.9143,7.9104,7.9086,7.9359,7.8728,7.8214,7.7894,7.7372,7.6934,7.6708,7.6552,7.6201,7.5889,7.5655,7.546,7.5194,7.4441,7.4345,7.4258,7.418,7.4062,7.3555,7.3086,7.2734,7.2383,7.207,7.1758,7.1406,7.0937,7.0508,7.0312,7.0078,6.9765,6.9375,6.9297,6.9297,6.9297,6.9297,6.9375,6.9414,6.9101,6.914,6.9453,6.9609,6.9453,6.9648,7.0078,7.0312,7.0469,7.0586,7.0781,9.2326,9.1902,9.1402,9.121,9.121,9.121,9.1018,9.0675,9.0636,9.0175,8.9636,8.994,9.0133,9.0056,9.0094,9.0133,9.021,9.0479,9.0633,9.0636,9.1095,9.1479,9.1864,9.1979,9.2402,9.2979,9.3249,9.3557,9.3672,9.3903,9.4172,9.4477,9.5211,9.5711,9.5635,9.6134,9.6288,9.632,9.6211,9.5912,9.5222,9.4501,9.3761,9.2976,9.182,9.0637,8.9618,8.8852,8.7882,8.6337,8.5331,8.4492,8.3633,8.2812,8.2265,8.2226,8.1679,8.1015,8.0547,8.0423,8.0211,7.9811,7.9767,7.9616,7.9717,7.9782,7.9729,7.9604,7.9322,7.9119,7.908,7.8729,7.8252,7.794,7.7726,7.7268,7.68,7.6595,7.637,7.6097,7.5863,7.5741,7.5488,7.4993,7.4696,7.4336,7.4023,7.3828,7.3437,7.3086,7.2773,7.2422,7.1914,7.1367,7.1289,7.1172,7.082,7.0469,7.0273,7.0273,7.0156,7.0195,7.0508,7.0781,7.0859,7.0898,7.0898,7.0664,7.0469,7.0664,7.0898,7.125,7.1562,7.1484,7.1758,9.3672,9.3018,9.1979,9.1518,9.1479,9.1287,9.1171,9.1171,9.1171,9.0825,9.0521,9.0864,9.1133,9.1171,9.1095,9.1018,9.1171,9.1441,9.1518,9.1556,9.1787,9.2249,9.2633,9.2828,9.3213,9.4018,9.4018,9.448,9.5018,9.5288,9.5249,9.5363,9.5865,9.6211,9.6249,9.6288,9.6326,9.6399,9.6525,9.6375,9.5922,9.5235,9.454,9.3605,9.2455,9.1223,9.0247,8.9423,8.8174,8.7081,8.5807,8.4927,8.4042,8.3261,8.2601,8.2412,8.2054,8.1859,8.1472,8.127,8.0939,8.0582,8.0308,8.0587,8.0498,8.0314,8.03,8.0425,8.0007,7.9929,7.9822,7.9656,7.9088,7.8698,7.8553,7.8135,7.7784,7.7634,7.7428,7.7116,7.6921,7.6827,7.643,7.5716,7.5272,7.4987,7.4883,7.4832,7.4453,7.4023,7.375,7.3398,7.3164,7.2695,7.2656,7.2461,7.2031,7.168,7.1484,7.1445,7.1484,7.1797,7.2265,7.2461,7.2461,7.2656,7.2656,7.207,7.1523,7.1914,7.2265,7.2539,7.2734,7.2617,7.2734,9.4864,9.4672,9.3095,9.2402,9.2364,9.1518,9.121,9.1287,9.121,9.1133,9.1018,9.1171,9.121,9.121,9.1287,9.1325,9.1287,9.2056,9.2287,9.2669,9.3092,9.34,9.3595,9.3751,9.4059,9.4788,9.4903,9.5403,9.5942,9.598,9.6095,9.6249,9.6211,9.6249,9.6288,9.6288,9.6325,9.6397,9.6497,9.6629,9.6375,9.5874,9.5196,9.4501,9.3661,9.2625,9.1119,9.0206,8.9184,8.8131,8.6753,8.5644,8.4753,8.3783,8.3086,8.2662,8.2344,8.2182,8.2026,8.2003,8.2081,8.2065,8.189,8.1648,8.1538,8.1802,8.1855,8.1569,8.096,8.0701,8.0376,8.0012,7.9764,7.9414,7.9272,7.9038,7.8805,7.8776,7.8567,7.8192,7.7959,7.7818,7.7689,7.7026,7.6205,7.5889,7.5735,7.5677,7.522,7.4805,7.4648,7.4453,7.4375,7.4219,7.4258,7.3906,7.332,7.3125,7.3047,7.3008,7.3047,7.3437,7.3555,7.3711,7.3711,7.4062,7.4258,7.3633,7.3242,7.3359,7.3555,7.3594,7.3867,7.3945,7.4062,9.5788,9.5672,9.4518,9.371,9.3172,9.2364,9.1979,9.1902,9.1441,9.121,9.1248,9.121,9.121,9.1364,9.1825,9.1979,9.2133,9.2864,9.3133,9.3287,9.3592,9.398,9.4212,9.4635,9.4943,9.5595,9.5788,9.5865,9.6211,9.6288,9.6288,9.6288,9.6365,9.6288,9.6288,9.6365,9.6399,9.6397,9.6432,9.6536,9.6529,9.6009,9.5458,9.5248,9.3879,9.2929,9.1819,9.1052,8.9885,8.8635,8.7468,8.6463,8.5457,8.4325,8.3522,8.2983,8.2585,8.2335,8.2257,8.2241,8.2241,8.2226,8.2162,8.2153,8.2132,8.2062,8.2051,8.1859,8.167,8.1337,8.1314,8.1087,8.082,8.0314,8.0003,7.9848,7.9714,7.9714,7.9442,7.8954,7.8781,7.8686,7.8582,7.8381,7.7559,7.679,7.6685,7.6482,7.6063,7.5607,7.546,7.5312,7.5195,7.5,7.4961,7.4765,7.4492,7.4492,7.4453,7.4375,7.4219,7.418,7.4297,7.457,7.4726,7.4805,7.4844,7.4883,7.4726,7.4414,7.4336,7.4336,7.4687,7.5117,7.5273,9.6288,9.6211,9.5634,9.4864,9.4018,9.321,9.2861,9.2746,9.2284,9.1941,9.1941,9.1941,9.1941,9.2133,9.2518,9.2864,9.3056,9.3633,9.398,9.421,9.448,9.4826,9.5212,9.5443,9.5635,9.6211,9.6288,9.6288,9.6288,9.6288,9.648,9.6634,9.6673,9.6673,9.6711,9.6673,9.6671,9.6707,9.6515,9.6474,9.6481,9.6182,9.567,9.5536,9.4292,9.3341,9.2399,9.145,9.0252,8.909,8.8014,8.7103,8.5983,8.4941,8.4064,8.3419,8.2942,8.2474,8.2229,8.2182,8.2153,8.2172,8.2101,8.205,8.2038,8.1973,8.1943,8.1912,8.1835,8.1833,8.1833,8.1563,8.1427,8.0922,8.0883,8.0747,8.0514,8.0437,8.0049,7.966,7.9563,7.9447,7.9039,7.8901,7.8723,7.7935,7.757,7.7458,7.7251,7.68,7.6302,7.6124,7.5976,7.5703,7.5469,7.5586,7.5664,7.5312,7.5312,7.5312,7.5195,7.5117,7.5312,7.5742,7.5781,7.5469,7.5586,7.5898,7.5625,7.5156,7.5234,7.5469,7.5742,7.6133,7.6211,9.6288,9.6288,9.6249,9.5711,9.4903,9.4018,9.3669,9.3631,9.3477,9.3438,9.3364,9.3403,9.3441,9.348,9.3557,9.3672,9.3864,9.4557,9.498,9.5132,9.548,9.6057,9.6134,9.6134,9.6095,9.6249,9.6288,9.6288,9.6288,9.648,9.6826,9.7288,9.7519,9.7596,9.7518,9.7479,9.7479,9.7365,9.6826,9.6594,9.6586,9.6558,9.612,9.5623,9.4839,9.3981,9.3076,9.2011,9.083,8.97,8.8834,8.7736,8.6388,8.5832,8.4896,8.3693,8.3454,8.296,8.2294,8.2182,8.2155,8.2104,8.2026,8.1973,8.1913,8.1848,8.1796,8.179,8.1751,8.1713,8.1713,8.1652,8.1575,8.1497,8.1458,8.1359,8.1088,8.0988,8.0578,8.0345,8.0274,8.0101,7.958,7.9272,7.9481,7.9141,7.8648,7.8389,7.8269,7.8019,7.7486,7.7278,7.71,7.6836,7.6719,7.6836,7.6797,7.6406,7.6133,7.6094,7.6211,7.625,7.6523,7.6875,7.6719,7.6328,7.668,7.7109,7.664,7.6289,7.6562,7.6797,7.6992,7.6992,7.6875,9.6288,9.6288,9.6288,9.6134,9.5749,9.4941,9.4557,9.4441,9.3982,9.3713,9.3713,9.3674,9.3672,9.3826,9.4326,9.4557,9.4711,9.5441,9.5865,9.5865,9.6172,9.6249,9.6288,9.6288,9.6288,9.6288,9.6288,9.6326,9.6326,9.6711,9.7096,9.7595,9.8596,9.8827,9.8519,9.8366,9.8366,9.8211,9.7634,9.7171,9.7171,9.6779,9.641,9.6104,9.537,9.4617,9.38,9.2634,9.1601,9.0379,8.9469,8.8554,8.7288,8.67,8.5564,8.4738,8.4482,8.4004,8.3484,8.317,8.2448,8.2232,8.192,8.1865,8.1765,8.1737,8.1695,8.1662,8.1624,8.1624,8.1646,8.16,8.1538,8.1514,8.1451,8.1426,8.1285,8.1234,8.1091,8.1014,8.0924,8.0923,8.0585,8.0206,8.028,8.0201,7.9719,7.9273,7.9088,7.913,7.8846,7.865,7.8449,7.8155,7.7969,7.789,7.7656,7.7265,7.6992,7.6836,7.6992,7.7305,7.7265,7.7422,7.7305,7.7226,7.75,7.7695,7.7617,7.7539,7.7656,7.7578,7.75,7.7344,7.7109,9.6288,9.6288,9.6288,9.6288,9.6211,9.5672,9.5441,9.5328,9.4866,9.4635,9.4635,9.4634,9.4672,9.4826,9.5134,9.5441,9.5518,9.598,9.6288,9.6288,9.6288,9.6288,9.6288,9.6288,9.6288,9.6288,9.6326,9.6403,9.6788,9.725,9.7865,9.8749,9.975,10.0019,9.9788,9.9558,9.925,9.9019,9.8481,9.7788,9.7556,9.7131,9.6779,9.6338,9.5709,9.5007,9.4201,9.3335,9.2378,9.0981,9.0074,8.9327,8.8204,8.7312,8.6204,8.566,8.4883,8.4415,8.4065,8.3832,8.3193,8.2862,8.2184,8.1757,8.1678,8.1659,8.1585,8.1567,8.1606,8.1581,8.162,8.1569,8.153,8.1504,8.1439,8.1412,8.1347,8.1319,8.1291,8.1291,8.1291,8.1347,8.14,8.1401,8.1166,8.0993,8.0786,8.0331,7.9895,7.9832,7.9851,7.9635,7.9437,7.9074,7.8777,7.8633,7.8398,7.8125,7.7969,7.7851,7.8125,7.8476,7.8203,7.8047,7.8242,7.8359,7.8242,7.8281,7.8437,7.8515,7.8555,7.8398,7.8086,7.793,7.7812,9.6288,9.6288,9.6288,9.6288,9.6288,9.6211,9.6211,9.6249,9.6249,9.6172,9.6211,9.6057,9.598,9.6134,9.6249,9.6172,9.6134,9.6288,9.6288,9.6288,9.6288,9.6288,9.6288,9.6288,9.6288,9.6326,9.648,9.6865,9.7442,9.798,9.8788,9.9827,10.0673,10.0904,10.0711,10.0442,10.0096,9.9904,9.9327,9.8557,9.7942,9.7595,9.7017,9.6474,9.5819,9.5084,9.4326,9.3475,9.2296,9.1241,9.052,8.9565,8.8723,8.8112,8.6976,8.5846,8.4829,8.466,8.4529,8.4413,8.4156,8.3706,8.2708,8.2057,8.1885,8.2057,8.2109,8.2057,8.2014,8.1782,8.1628,8.1589,8.1551,8.1512,8.1368,8.133,8.1291,8.1263,8.1301,8.1234,8.1234,8.1291,8.1291,8.1347,8.1427,8.1374,8.1143,8.1056,8.0608,8.027,8.0299,8.0261,8.0025,7.9821,7.9572,7.9395,7.9125,7.8821,7.9056,7.9062,7.9375,7.9387,7.9083,7.9008,7.9402,7.9453,7.9062,7.914,7.9492,7.9531,7.9531,7.9258,7.8984,7.9101,7.9062,9.6288,9.6288,9.6288,9.6288,9.6288,9.6288,9.6288,9.6288,9.6288,9.6288,9.6288,9.6288,9.6288,9.6288,9.6288,9.6288,9.6288,9.6288,9.6288,9.6288,9.6288,9.6288,9.6288,9.6288,9.6288,9.6519,9.6826,9.7288,9.7827,9.8481,9.9712,10.0866,10.1135,10.1289,10.1212,10.1058,10.0943,10.0712,10.0057,9.9288,9.8404,9.7942,9.7288,9.6557,9.6172,9.5478,9.4702,9.4049,9.299,9.2188,9.0913,8.99,8.9831,8.8558,8.7191,8.6428,8.5931,8.5776,8.565,8.5214,8.4839,8.4656,8.3757,8.3373,8.3153,8.3076,8.3011,8.2796,8.2717,8.2601,8.2468,8.2381,8.2266,8.2121,8.1928,8.1629,8.1591,8.1407,8.1407,8.1214,8.1176,8.1176,8.1205,8.1273,8.1319,8.14,8.1426,8.1391,8.1289,8.0919,8.08,8.083,8.0768,8.0571,8.0328,8.0119,7.9845,7.9655,7.9933,8.0051,7.9923,7.9873,7.9762,7.9884,8.0163,8.002,7.9609,7.9883,8.0312,8.0508,8.0508,8.0195,7.9961,8.0078,8.0117,9.6288,9.6288,9.6288,9.6288,9.6288,9.6288,9.6288,9.6288,9.6288,9.6288,9.6288,9.6288,9.6288,9.6288,9.6288,9.6288,9.6288,9.6288,9.6288,9.6288,9.6288,9.6288,9.6288,9.6326,9.6557,9.6865,9.7326,9.7865,9.8596,9.9673,10.0904,10.1173,10.1289,10.1289,10.1289,10.125,10.125,10.1096,10.0711,10.0096,9.9288,9.8442,9.7634,9.6865,9.6596,9.5903,9.5174,9.4569,9.3842,9.2883,9.1457,9.0828,9.0381,8.8895,8.7814,8.7117,8.6863,8.6585,8.6268,8.5912,8.5651,8.5428,8.5013,8.4879,8.4358,8.4077,8.3808,8.3534,8.3587,8.3625,8.3495,8.3325,8.3171,8.3017,8.2563,8.2109,8.1886,8.1662,8.1431,8.117,8.1124,8.1124,8.1154,8.1184,8.1244,8.1291,8.14,8.1426,8.1491,8.1446,8.142,8.1506,8.1454,8.1343,8.107,8.0868,8.0836,8.0758,8.0992,8.0992,8.0665,8.0704,8.0907,8.0875,8.0843,8.0704,8.0602,8.0805,8.1133,8.1289,8.1406,8.125,8.1094,8.1133,8.1094,9.6288,9.6288,9.6288,9.6288,9.6288,9.6288,9.6288,9.6288,9.6288,9.6288,9.6288,9.6288,9.6288,9.6288,9.6288,9.6288,9.6288,9.6288,9.6288,9.6288,9.6288,9.6288,9.6288,9.6326,9.6711,9.7212,9.7904,9.8557,9.9942,10.075,10.1135,10.1289,10.1289,10.1289,10.1289,10.1289,10.1289,10.125,10.1135,10.0711,10.0019,9.925,9.8442,9.7518,9.6788,9.6095,9.5405,9.4864,9.4366,9.3364,9.2434,9.1771,9.041,8.9509,8.856,8.7988,8.7693,8.7417,8.7025,8.6632,8.6408,8.63,8.6223,8.5883,8.5368,8.4897,8.4574,8.4472,8.4555,8.4555,8.4427,8.408,8.3849,8.3657,8.331,8.2894,8.2586,8.2401,8.2285,8.2054,8.1977,8.1893,8.1547,8.1616,8.1415,8.1359,8.1263,8.1374,8.1567,8.1691,8.1796,8.1881,8.1788,8.1702,8.1811,8.1685,8.1889,8.1976,8.1928,8.185,8.1451,8.1685,8.2114,8.1811,8.1477,8.1773,8.1825,8.1759,8.1695,8.1914,8.2031,8.2187,8.2187,8.1992,8.1875,9.6288,9.6288,9.6288,9.6288,9.6288,9.6288,9.6288,9.6288,9.6288,9.6288,9.6288,9.6288,9.6288,9.6288,9.6288,9.6288,9.6288,9.6288,9.6288,9.6288,9.6288,9.6288,9.6326,9.6442,9.6865,9.7481,9.8288,9.9365,10.0635,10.1173,10.1327,10.1327,10.1443,10.1558,10.1443,10.1443,10.1443,10.1327,10.125,10.0942,10.025,9.9827,9.9173,9.8019,9.7096,9.6673,9.6019,9.5289,9.4982,9.4366,9.313,9.1745,9.009,8.9782,8.9244,8.8628,8.844,8.8205,8.7891,8.7462,8.7198,8.6929,8.6665,8.6319,8.5934,8.5665,8.5511,8.5478,8.5401,8.5363,8.5247,8.4863,8.4555,8.4324,8.4132,8.3747,8.3362,8.3208,8.3131,8.3016,8.2901,8.2593,8.217,8.1932,8.1693,8.1493,8.1291,8.1301,8.1516,8.1669,8.173,8.1835,8.1887,8.189,8.2052,8.214,8.2151,8.2172,8.2055,8.2084,8.2112,8.2112,8.2101,8.2123,8.2065,8.2162,8.2179,8.2131,8.2149,8.2285,8.2304,8.2265,8.2304,8.2148,8.2226,9.6288,9.6288,9.6288,9.6288,9.6288,9.6288,9.6288,9.6288,9.6288,9.6288,9.6288,9.6288,9.6288,9.6288,9.6288,9.6288,9.6288,9.6288,9.6288,9.6288,9.6288,9.6288,9.6365,9.6673,9.7442,9.8134,9.9365,10.0519,10.1327,10.1789,10.1904,10.1943,10.2058,10.2212,10.1981,10.1827,10.1635,10.1327,10.1327,10.1019,10.0519,10.0173,9.9519,9.8404,9.7634,9.7134,9.648,9.5751,9.5405,9.4674,9.3364,9.2402,9.1248,9.0787,9.0094,8.9517,8.921,8.9094,8.8709,8.8325,8.7979,8.7748,8.7632,8.744,8.744,8.7204,8.6511,8.6401,8.5901,8.5786,8.5786,8.5478,8.544,8.5286,8.5132,8.4863,8.4247,8.3708,8.3555,8.3362,8.3285,8.3208,8.2901,8.2862,8.2701,8.2694,8.234,8.1976,8.2014,8.198,8.194,8.1962,8.2106,8.1986,8.1952,8.2012,8.2078,8.2104,8.2128,8.2091,8.2026,8.2039,8.2052,8.2052,8.2077,8.2101,8.2133,8.2162,8.2202,8.2227,8.2246,8.2265,8.2265,8.2304,8.2304,9.6288,9.6288,9.6288,9.6288,9.6288,9.6288,9.6288,9.6288,9.6288,9.6288,9.6288,9.6288,9.6288,9.6288,9.6288,9.6288,9.6288,9.6288,9.6288,9.6288,9.6288,9.648,9.6788,9.7173,9.798,9.9096,10.0327,10.1019,10.1635,10.2097,10.2559,10.2867,10.3213,10.3521,10.2982,10.2559,10.2212,10.1712,10.1481,10.1327,10.0981,10.0596,9.9865,9.8981,9.8134,9.7287,9.6711,9.6211,9.5865,9.5057,9.3941,9.2941,9.221,9.1633,9.0941,9.0325,9.0094,8.9787,8.9363,8.9056,8.8902,8.8786,8.8825,8.8709,8.8671,8.832,8.7627,8.7204,8.6709,8.6324,8.6324,8.6132,8.6132,8.6055,8.594,8.5786,8.5055,8.4401,8.4209,8.3978,8.3978,8.3939,8.3785,8.3785,8.3708,8.374,8.3541,8.3218,8.296,8.2824,8.2741,8.2675,8.2715,8.2474,8.2046,8.1981,8.2014,8.1952,8.1968,8.1991,8.1975,8.192,8.1898,8.1937,8.1968,8.2051,8.2104,8.2101,8.2153,8.2351,8.2227,8.2246,8.2265,8.2304,8.2304,9.6288,9.6288,9.6288,9.6288,9.6288,9.6288,9.6288,9.6288,9.6288,9.6288,9.6288,9.6288,9.6288,9.6288,9.6288,9.6288,9.6288,9.6288,9.6288,9.6288,9.6403,9.6749,9.7211,9.775,9.8557,9.975,10.0904,10.1597,10.2174,10.252,10.3021,10.3635,10.3749,10.3864,10.3672,10.3172,10.2674,10.2135,10.1673,10.1443,10.1327,10.0981,10.0634,9.9865,9.9018,9.8172,9.7402,9.6634,9.6326,9.5788,9.498,9.3826,9.2979,9.2364,9.1672,9.1133,9.0902,9.0671,9.0287,8.9902,8.9787,8.9633,8.9479,8.9056,8.9017,8.8979,8.8517,8.8402,8.7902,8.7325,8.7132,8.6594,8.6401,8.6286,8.617,8.6094,8.567,8.5517,8.5401,8.5324,8.5324,8.5055,8.467,8.4555,8.4362,8.4247,8.3978,8.3726,8.3672,8.3548,8.349,8.3332,8.327,8.2615,8.2047,8.1971,8.2009,8.1911,8.1833,8.1833,8.1815,8.1757,8.1757,8.1815,8.1947,8.2076,8.2046,8.2415,8.2479,8.2621,8.2312,8.2227,8.2359,8.2617,8.289]},{"header":{"parameterUnit":"m.s-1","parameterCategory":1,"la1":31.0,"la2":29.5877,"lo1":-88.7671,"lo2":-86.6584,"dy":0.0162,"dx":0.0185,"nx":115,"ny":88,"refTime":"2023-03-12T12:00:00:Z","depth":0,"parameterNumber":3,"parameterNumberName":"V-component_of_WINDS"},"data":[0.0,0.0,0.0,0.0,0.0,0.0,0.0,0.0,0.0,0.0,0.0,0.0,0.0,0.0,0.0,0.0,0.0,0.0,0.0,0.0,0.0,0.0,0.0,0.0,0.0,0.0,0.0,0.0,0.0,0.0,0.0,0.0,0.0,0.0,0.0,0.0,0.0,0.0,0.0,0.0,0.0,0.0,0.0,0.0,0.0,0.0,0.0,0.0,0.0,0.0,0.0,0.0,0.0,0.0,0.0,0.0,0.0,0.0,0.0,0.0,0.0,0.0,0.0,0.0,0.0,0.0,0.0,0.0,0.0,0.0,0.0,0.0,0.0,0.0,0.0,0.0,0.0,0.0,0.0,0.0,0.0,0.0,0.0,0.0,0.0,0.0,0.0,0.0,0.0,0.0,0.0,0.0,0.0,0.0,0.0,0.0,0.0,0.0,0.0,0.0,0.0,0.0,0.0,0.0,0.0,0.0,0.0,0.0,0.0,0.0,0.0,0.0,0.0,0.0,0.0,0.0,0.0,0.0,0.0,0.0,0.0,0.0,0.0,0.0,0.0,0.0,0.0,0.0,0.0,0.0,0.0,0.0,0.0,0.0,0.0,0.0,0.0,0.0,0.0,0.0,0.0,0.0,0.0,0.0,0.0,0.0,0.0,0.0,0.0,0.0,0.0,0.0,0.0,0.0,0.0,0.0,0.0,0.0,0.0,0.0,0.0,0.0,0.0,0.0,0.0,0.0,0.0,0.0,0.0,0.0,0.0,0.0,0.0,0.0,0.0,0.0,0.0,0.0,0.0,0.0,0.0,0.0,0.0,0.0,0.0,0.0,0.0,0.0,0.0,0.0,0.0,0.0,0.0,0.0,0.0,0.0,0.0,0.0,0.0,0.0,0.0,0.0,0.0,0.0,0.0,0.0,0.0,0.0,0.0,0.0,0.0,0.0,0.0,0.0,0.0,0.0,0.0,0.0,0.0,0.0,0.0,0.0,0.0,0.0,0.0,0.0,0.0,0.0,0.0,0.0,0.0,0.0,0.0,0.0,0.0,0.0,0.0,0.0,0.0,0.0,0.0,0.0,0.0,0.0,0.0,0.0,0.0,0.0,0.0,0.0,0.0,0.0,0.0,0.0,0.0,0.0,0.0,0.0,0.0,0.0,0.0,0.0,0.0,0.0,0.0,0.0,0.0,0.0,0.0,0.0,0.0,0.0,0.0,0.0,0.0,0.0,0.0,0.0,0.0,0.0,0.0,0.0,0.0,0.0,0.0,0.0,0.0,0.0,0.0,0.0,0.0,0.0,0.0,0.0,0.0,0.0,0.0,0.0,0.0,0.0,0.0,0.0,0.0,0.0,0.0,0.0,0.0,0.0,0.0,0.0,0.0,0.0,0.0,0.0,0.0,0.0,0.0,0.0,0.0,0.0,0.0,0.0,0.0,0.0,0.0,0.0,0.0,0.0,0.0,0.0,0.0,0.0,0.0,0.0,0.0,0.0,0.0,0.0,0.0,0.0,0.0,0.0,0.0,0.0,0.0,0.0,0.0,0.0,0.0,0.0,0.0,0.0,0.0,0.0,0.0,0.0,0.0,0.0,0.0,0.0,0.0,0.0,0.0,0.0,0.0,0.0,0.0,0.0,0.0,0.0,0.0,0.0,0.0,0.0,0.0,0.0,0.0,0.0,0.0,0.0,0.0,0.0,0.0,0.0,0.0,0.0,0.0,0.0,0.0,0.0,0.0,0.0,0.0,0.0,0.0,0.0,0.0,0.0,0.0,0.0,0.0,0.0,0.0,0.0,0.0,0.0,0.0,0.0,0.0,0.0,0.0,0.0,0.0,0.0,0.0,0.0,0.0,0.0,0.0,0.0,0.0,0.0,0.0,0.0,0.0,0.0,0.0,0.0,0.0,0.0,0.0,0.0,0.0,0.0,0.0,0.0,0.0,0.0,0.0,0.0,0.0,0.0,0.0,0.0,0.0,0.0,0.0,0.0,0.0,0.0,0.0,0.0,0.0,0.0,0.0,0.0,0.0,0.0,0.0,0.0,0.0,0.0,0.0,0.0,0.0,0.0,0.0,0.0,0.0,0.0,0.0,0.0,0.0,0.0,0.0,0.0,0.0,0.0,0.0,0.0,0.0,0.0,0.0,0.0,0.0,0.0,0.0,0.0,0.0,0.0,0.0,0.0,0.0,0.0,0.0,0.0,0.0,0.0,0.0,0.0,0.0,0.0,0.0,0.0,0.0,0.0,0.0,0.0,0.0,0.0,0.0,0.0,0.0,0.0,0.0,0.0,0.0,0.0,0.0,0.0,0.0,0.0,0.0,0.0,0.0,0.0,0.0,0.0,0.0,0.0,0.0,0.0,0.0,0.0,0.0,0.0,0.0,0.0,0.0,0.0,0.0,0.0,0.0,0.0,0.0,0.0,0.0,0.0,0.0,0.0,0.0,0.0,0.0,0.0,0.0,0.0,0.0,0.0,0.0,0.0,0.0,0.0,0.0,0.0,0.0,0.0,0.0,0.0,0.0,0.0,0.0,0.0,0.0,0.0,0.0,0.0,0.0,0.0,0.0,0.0,0.0,0.0,0.0,0.0,0.0,0.0,0.0,0.0,0.0,0.0,0.0,0.0,0.0,0.0,0.0,0.0,0.0,0.0,0.0,0.0,0.0,0.0,0.0,0.0,0.0,0.0,0.0,0.0,0.0,0.0,0.0,0.0,0.0,0.0,0.0,0.0,0.0,0.0,0.0,0.0,0.0,0.0,0.0,0.0,0.0,0.0,0.0,0.0,0.0,0.0,0.0,0.0,0.0,0.0,0.0,0.0,0.0,0.0,0.0,0.0,0.0,0.0,0.0,0.0,0.0,0.0,0.0,0.0,0.0,0.0,0.0,0.0,0.0,0.0,0.0,0.0,0.0,0.0,0.0,0.0,0.0,0.0,0.0,0.0,0.0,0.0,0.0,0.0,0.0,0.0,0.0,0.0,0.0,0.0,0.0,0.0,0.0,0.0,0.0,0.0,0.0,0.0,0.0,0.0,0.0,0.0,0.0,0.0,0.0,0.0,0.0,0.0,0.0,0.0,0.0,0.0,0.0,0.0,0.0,0.0,0.0,0.0,0.0,0.0,0.0,0.0,0.0,0.0,0.0,0.0,0.0,0.0,0.0,0.0,0.0,0.0,0.0,0.0,0.0,0.0,0.0,0.0,0.0,0.0,0.0,0.0,0.0,0.0,0.0,0.0,0.0,0.0,0.0,0.0,0.0,0.0,0.0,0.0,0.0,0.0,0.0,0.0,0.0,0.0,0.0,0.0,0.0,0.0,0.0,0.0,0.0,0.0,0.0,0.0,0.0,0.0,0.0,0.0,0.0,0.0,0.0,0.0,0.0,0.0,0.0,0.0,0.0,0.0,0.0,0.0,0.0,0.0,0.0,0.0,0.0,0.0,0.0,0.0,0.0,0.0,0.0,0.0,0.0,0.0,0.0,0.0,0.0,0.0,0.0,0.0,0.0,0.0,0.0,0.0,0.0,0.0,0.0,0.0,0.0,0.0,0.0,0.0,0.0,0.0,0.0,0.0,0.0,0.0,0.0,0.0,0.0,0.0,0.0,0.0,0.0,0.0,0.0,0.0,0.0,0.0,0.0,0.0,0.0,0.0,0.0,0.0,0.0,0.0,0.0,0.0,0.0,0.0,0.0,0.0,0.0,0.0,0.0,0.0,0.0,0.0,0.0,0.0,0.0,0.0,0.0,0.0,0.0,0.0,0.0,0.0,0.0,0.0,0.0,0.0,0.0,0.0,0.0,0.0,0.0,0.0,0.0,0.0,0.0,0.0,0.0,0.0,0.0,0.0,0.0,0.0,0.0,0.0,0.0,0.0,0.0,0.0,0.0,0.0,0.0,0.0,0.0,0.0,0.0,0.0,0.0,0.0,0.0,0.0,0.0,0.0,0.0,0.0,0.0,0.0,0.0,0.0,0.0,0.0,0.0,0.0,0.0,0.0,0.0,0.0,0.0,0.0,0.0,0.0,0.0,0.0,0.0,0.0,0.0,0.0,0.0,0.0,0.0,0.0,0.0,0.0,0.0,0.0,0.0,0.0,0.0,0.0,0.0,0.0,0.0,0.0,0.0,0.0,0.0,0.0,0.0,0.0,0.0,0.0,0.0,0.0,0.0,0.0,0.0,0.0,0.0,0.0,0.0,0.0,0.0,0.0,0.0,0.0,0.0,0.0,0.0,0.0,0.0,0.0,0.0,0.0,0.0,0.0,0.0,0.0,0.0,0.0,-0.8557,0.0,0.0,0.0,0.0,0.0,0.0,0.0,0.0,0.0,0.0,0.0,0.0,0.0,0.0,0.0,0.0,0.0,0.0,0.0,0.0,0.0,0.0,0.0,0.0,0.0,0.0,0.0,0.0,0.0,0.0,0.0,0.0,0.0,0.0,0.0,0.0,0.0,0.0,0.0,0.0,0.0,0.0,0.0,0.0,0.0,0.0,0.0,0.0,0.0,0.0,0.0,0.0,0.0,0.0,0.0,0.0,0.0,0.0,0.0,0.0,0.0,0.0,0.0,0.0,0.0,0.0,0.0,0.0,0.0,0.0,0.0,0.0,0.0,0.0,0.0,0.0,0.0,0.0,0.0,0.0,0.0,0.0,0.0,0.0,0.0,0.0,0.0,0.0,0.0,0.0,0.0,0.0,0.0,0.0,0.0,0.0,0.0,0.0,0.0,0.0,0.0,0.0,0.0,0.0,0.0,0.0,0.0,0.0,0.0,0.0,-0.8486,-0.8563,-0.8618,-0.8557,-0.8637,0.0,0.0,0.0,0.0,0.0,0.0,0.0,0.0,0.0,0.0,0.0,0.0,0.0,0.0,0.0,0.0,0.0,0.0,0.0,0.0,0.0,0.0,0.0,0.0,0.0,0.0,0.0,0.0,0.0,0.0,0.0,0.0,0.0,0.0,0.0,0.0,0.0,0.0,0.0,0.0,0.0,0.0,0.0,0.0,0.0,0.0,0.0,0.0,0.0,0.0,0.0,0.0,0.0,0.0,0.0,0.0,0.0,0.0,0.0,0.0,0.0,0.0,0.0,0.0,0.0,0.0,0.0,0.0,0.0,0.0,0.0,0.0,0.0,0.0,0.0,0.0,0.0,0.0,0.0,0.0,0.0,0.0,0.0,0.0,0.0,0.0,0.0,0.0,0.0,0.0,0.0,0.0,0.0,0.0,0.0,0.0,0.0,0.0,0.0,0.0,0.0,0.0,0.0,0.0,0.0,0.0,0.0,0.0,0.0,0.0,0.0,0.0,-0.859,-0.8651,-0.8632,0.0,0.0,0.0,0.0,0.0,0.0,0.0,0.0,0.0,0.0,0.0,0.0,0.0,0.0,0.0,0.0,0.0,0.0,0.0,0.0,0.0,0.0,0.0,0.0,0.0,0.0,0.0,0.0,0.0,0.0,0.0,0.0,0.0,0.0,0.0,0.0,0.0,0.0,0.0,0.0,0.0,0.0,0.0,0.0,0.0,0.0,0.0,0.0,0.0,0.0,0.0,0.0,0.0,0.0,0.0,0.0,0.0,0.0,0.0,0.0,0.0,0.0,0.0,0.0,0.0,0.0,0.0,0.0,0.0,0.0,0.0,0.0,0.0,0.0,0.0,0.0,0.0,0.0,0.0,0.0,0.0,0.0,0.0,0.0,0.0,0.0,0.0,0.0,0.0,0.0,0.0,0.0,0.0,0.0,0.0,0.0,0.0,0.0,0.0,0.0,0.0,0.0,0.0,0.0,0.0,0.0,0.0,0.0,0.0,0.0,-0.8611,-0.86,-0.86,0.0,-0.8642,0.0,0.0,0.0,0.0,0.0,0.0,0.0,0.0,0.0,0.0,0.0,0.0,0.0,0.0,0.0,0.0,0.0,0.0,0.0,0.0,0.0,0.0,0.0,0.0,0.0,0.0,0.0,0.0,0.0,0.0,0.0,0.0,0.0,0.0,0.0,0.0,0.0,0.0,0.0,0.0,0.0,0.0,0.0,0.0,0.0,0.0,0.0,0.0,0.0,0.0,0.0,0.0,0.0,0.0,0.0,0.0,0.0,0.0,0.0,0.0,0.0,0.0,0.0,0.0,0.0,0.0,0.0,0.0,0.0,0.0,0.0,0.0,0.0,0.0,0.0,0.0,0.0,0.0,0.0,0.0,0.0,0.0,0.0,0.0,0.0,0.0,0.0,0.0,0.0,0.0,0.0,0.0,0.0,0.0,0.0,0.0,0.0,0.0,0.0,0.0,0.0,0.0,0.0,0.0,0.0,0.0,0.0,0.0,0.0,0.0,-0.7794,-0.7388,-0.8195,-0.8618,0.0,0.0,0.0,0.0,0.0,0.0,0.0,0.0,0.0,0.0,0.0,0.0,0.0,0.0,0.0,0.0,0.0,0.0,0.0,0.0,0.0,0.0,0.0,0.0,0.0,0.0,0.0,0.0,0.0,0.0,0.0,0.0,0.0,0.0,0.0,0.0,0.0,0.0,0.0,0.0,0.0,0.0,0.0,0.0,0.0,0.0,0.0,0.0,0.0,0.0,0.0,0.0,0.0,0.0,0.0,0.0,0.0,0.0,0.0,0.0,0.0,0.0,0.0,0.0,0.0,0.0,0.0,0.0,0.0,0.0,0.0,0.0,0.0,0.0,0.0,0.0,0.0,0.0,0.0,0.0,0.0,0.0,0.0,0.0,0.0,0.0,0.0,0.0,0.0,0.0,0.0,0.0,0.0,0.0,0.0,0.0,0.0,0.0,0.0,0.0,0.0,0.0,0.0,0.0,0.0,0.0,0.0,0.0,0.0,0.0,-0.7259,-0.6987,-0.6577,-0.7927,-0.8486,-0.8381,0.0,0.0,0.0,0.0,0.0,0.0,0.0,0.0,0.0,0.0,0.0,0.0,0.0,0.0,0.0,0.0,0.0,0.0,0.0,0.0,0.0,0.0,0.0,0.0,0.0,0.0,0.0,0.0,0.0,0.0,0.0,0.0,0.0,0.0,0.0,0.0,0.0,0.0,0.0,0.0,0.0,0.0,0.0,0.0,0.0,0.0,0.0,0.0,0.0,0.0,0.0,0.0,0.0,0.0,0.0,0.0,0.0,0.0,0.0,0.0,0.0,0.0,0.0,0.0,0.0,0.0,0.0,0.0,0.0,0.0,0.0,0.0,0.0,0.0,0.0,0.0,0.0,0.0,0.0,0.0,0.0,0.0,0.0,0.0,0.0,0.0,0.0,0.0,0.0,0.0,0.0,0.0,0.0,0.0,0.0,0.0,0.0,0.0,0.0,0.0,0.0,0.0,0.0,0.0,0.0,0.0,0.0,0.0,-0.7397,-0.6862,-0.6585,-0.6581,-0.7789,-0.8355,0.0,0.0,0.0,0.0,0.0,0.0,0.0,0.0,0.0,0.0,0.0,0.0,0.0,0.0,0.0,0.0,0.0,0.0,0.0,0.0,0.0,0.0,0.0,0.0,0.0,0.0,0.0,0.0,0.0,0.0,0.0,0.0,0.0,0.0,0.0,0.0,0.0,0.0,0.0,0.0,0.0,0.0,0.0,0.0,0.0,0.0,0.0,0.0,0.0,0.0,0.0,0.0,0.0,0.0,0.0,0.0,0.0,0.0,0.0,0.0,0.0,0.0,0.0,0.0,0.0,0.0,0.0,0.0,0.0,0.0,0.0,0.0,0.0,0.0,0.0,0.0,0.0,0.0,0.0,0.0,0.0,0.0,0.0,0.0,0.0,0.0,0.0,0.0,0.0,0.0,0.0,0.0,0.0,0.0,0.0,0.0,0.0,0.0,0.0,0.0,0.0,0.0,0.0,0.0,0.0,0.0,0.0,0.0,0.0,-0.6187,-0.6325,-0.6484,-0.6533,-0.7022,-0.7592,0.0,0.0,0.0,0.0,0.0,0.0,0.0,0.0,0.0,0.0,0.0,0.0,0.0,0.0,0.0,0.0,0.0,0.0,0.0,0.0,0.0,0.0,0.0,0.0,0.0,0.0,0.0,0.0,0.0,0.0,0.0,0.0,0.0,0.0,0.0,0.0,0.0,0.0,0.0,0.0,0.0,0.0,0.0,0.0,0.0,0.0,0.0,0.0,0.0,0.0,0.0,0.0,0.0,0.0,0.0,0.0,0.0,0.0,0.0,0.0,0.0,0.0,0.0,0.0,0.0,0.0,0.0,0.0,0.0,0.0,0.0,0.0,0.0,0.0,0.0,0.0,0.0,0.0,0.0,0.0,0.0,0.0,0.0,0.0,0.0,0.0,0.0,0.0,0.0,0.0,0.0,0.0,0.0,0.0,0.0,0.0,0.0,0.0,0.0,0.0,0.0,0.0,0.0,0.0,0.0,0.0,0.0,0.0,0.0,-0.5143,0.0,-0.5862,-0.5794,-0.627,-0.6991,0.0,0.0,0.0,0.0,0.0,0.0,0.0,0.0,0.0,0.0,0.0,0.0,0.0,0.0,0.0,0.0,0.0,0.0,0.0,0.0,0.0,0.0,0.0,0.0,0.0,0.0,0.0,0.0,0.0,0.0,0.0,0.0,0.0,0.0,0.0,0.0,0.0,0.0,0.0,0.0,0.0,0.0,0.0,0.0,0.0,0.0,0.0,0.0,0.0,0.0,0.0,0.0,0.0,0.0,0.0,0.0,0.0,0.0,0.0,0.0,0.0,0.0,0.0,0.0,0.0,0.0,0.0,0.0,0.0,0.0,0.0,0.0,0.0,0.0,0.0,0.0,0.0,0.0,0.0,0.0,0.0,0.0,0.0,0.0,0.0,0.0,0.0,0.0,0.0,0.0,0.0,0.0,0.0,0.0,0.0,0.0,0.0,0.0,0.0,0.0,0.0,0.0,0.0,0.0,0.0,0.0,0.0,0.0,-0.4335,-0.4253,-0.4532,-0.4695,-0.4332,-0.5801,-0.6817,0.0,0.0,0.0,0.0,0.0,0.0,0.0,0.0,0.0,0.0,0.0,0.0,0.0,0.0,0.0,0.0,0.0,0.0,0.0,0.0,0.0,0.0,0.0,0.0,0.0,0.0,0.0,0.0,0.0,0.0,0.0,0.0,0.0,0.0,0.0,0.0,0.0,0.0,0.0,0.0,0.0,0.0,0.0,0.0,0.0,0.0,0.0,0.0,0.0,0.0,0.0,0.0,0.0,0.0,0.0,0.0,0.0,0.0,0.0,0.0,0.0,0.0,0.0,0.0,0.0,0.0,0.0,0.0,0.0,0.0,0.0,0.0,0.0,0.0,0.0,0.0,0.0,0.0,0.0,0.0,0.0,0.0,0.0,0.0,0.0,0.0,0.0,0.0,0.0,0.0,0.0,0.0,0.0,0.0,0.0,0.0,0.0,0.0,0.0,0.0,0.0,0.0,0.0,0.0,0.0,0.0,0.0,0.0,0.0,-0.3619,-0.4319,-0.4628,-0.4678,-0.6118,-0.6855,0.0,0.0,0.0,0.0,0.0,0.0,0.0,0.0,0.0,0.0,0.0,0.0,0.0,0.0,0.0,0.0,0.0,0.0,0.0,0.0,0.0,0.0,0.0,0.0,0.0,0.0,0.0,0.0,0.0,0.0,0.0,0.0,0.0,0.0,0.0,0.0,0.0,0.0,0.0,0.0,0.0,0.0,0.0,0.0,0.0,0.0,0.0,0.0,0.0,0.0,0.0,0.0,0.0,0.0,0.0,0.0,0.0,0.0,0.0,0.0,0.0,0.0,0.0,0.0,0.0,0.0,0.0,0.0,0.0,0.0,0.0,0.0,0.0,0.0,0.0,0.0,0.0,0.0,0.0,0.0,0.0,0.0,0.0,0.0,0.0,0.0,0.0,0.0,0.0,0.0,0.0,0.0,0.0,0.0,0.0,0.0,0.0,0.0,0.0,0.0,0.0,0.0,0.0,0.0,0.0,0.0,0.0,0.0,0.0,-0.2844,-0.3416,-0.4142,-0.4751,-0.5672,-0.6434,-0.6915,0.0,0.0,0.0,0.0,0.0,0.0,0.0,0.0,0.0,0.0,0.0,0.0,0.0,0.0,0.0,0.0,0.0,0.0,0.0,0.0,0.0,0.0,0.0,0.0,0.0,0.0,0.0,0.0,0.0,0.0,0.0,0.0,0.0,0.0,0.0,0.0,0.0,0.0,0.0,0.0,0.0,0.0,0.0,0.0,0.0,0.0,0.0,0.0,0.0,0.0,0.0,0.0,0.0,0.0,0.0,0.0,0.0,0.0,0.0,0.0,0.0,0.0,0.0,0.0,0.0,0.0,0.0,0.0,0.0,0.0,0.0,0.0,0.0,0.0,0.0,0.0,0.0,0.0,0.0,0.0,0.0,0.0,0.0,0.0,0.0,0.0,0.0,0.0,0.0,0.0,0.0,0.0,0.0,0.0,0.0,0.0,0.0,0.0,0.0,0.0,0.0,0.0,0.0,0.0,0.0,0.0,0.0,0.0,-0.2192,-0.2341,-0.3072,-0.4527,-0.4665,-0.5617,0.0,0.0,0.0,0.0,0.0,0.0,0.0,0.0,0.0,0.0,0.0,0.0,0.0,0.0,0.0,0.0,0.0,0.0,0.0,0.0,0.0,0.0,0.0,0.0,0.0,0.0,0.0,0.0,0.0,0.0,0.0,0.0,0.0,0.0,0.0,0.0,0.0,0.0,0.0,0.0,0.0,0.0,0.0,0.0,0.0,0.0,0.0,0.0,0.0,0.0,0.0,0.0,0.0,0.0,0.0,0.0,0.0,0.0,0.0,0.0,0.0,0.0,0.0,0.0,0.0,0.0,0.0,0.0,0.0,0.0,0.0,0.0,0.0,0.0,0.0,0.0,0.0,0.0,0.0,0.0,0.0,0.0,0.0,0.0,0.0,0.0,0.0,0.0,0.0,0.0,0.0,0.0,0.0,0.0,0.0,0.0,0.0,0.0,0.0,0.0,0.0,0.0,0.0,0.0,0.0,0.0,0.0,0.0,0.0,-0.2399,-0.2443,-0.2597,-0.3147,-0.4118,-0.5663,0.0,0.0,0.0,0.0,0.0,0.0,0.0,0.0,0.0,0.0,0.0,0.0,0.0,0.0,0.0,0.0,0.0,0.0,0.0,0.0,0.0,0.0,0.0,0.0,0.0,0.0,0.0,0.0,0.0,0.0,0.0,0.0,0.0,0.0,0.0,0.0,0.0,0.0,0.0,0.0,0.0,0.0,0.0,0.0,0.0,0.0,0.0,0.0,0.0,0.0,0.0,0.0,0.0,0.0,0.0,0.0,0.0,0.0,0.0,0.0,0.0,0.0,0.0,0.0,0.0,0.0,0.0,0.0,0.0,0.0,0.0,0.0,0.0,0.0,0.0,0.0,0.0,0.0,0.0,0.0,0.0,0.0,0.0,0.0,0.0,0.0,0.0,0.0,0.0,0.0,0.0,0.0,0.0,0.0,0.0,0.0,0.0,0.0,0.0,0.0,0.0,0.0,0.0,0.0,0.0,0.0,0.0,0.0,-0.2401,-0.2461,-0.2508,-0.2522,-0.2652,-0.4114,-0.5806,0.0,0.0,0.0,0.0,0.0,0.0,0.0,0.0,0.0,0.0,0.0,0.0,0.0,0.0,0.0,0.0,0.0,0.0,0.0,0.0,0.0,0.0,0.0,0.0,0.0,0.0,0.0,0.0,0.0,0.0,0.0,0.0,0.0,0.0,0.0,0.0,0.0,0.0,0.0,0.0,0.0,0.0,0.0,0.0,0.0,0.0,0.0,0.0,0.0,0.0,0.0,0.0,0.0,0.0,0.0,0.0,0.0,0.0,0.0,0.0,0.0,0.0,0.0,0.0,0.0,0.0,0.0,0.0,0.0,0.0,0.0,0.0,0.0,0.0,0.0,0.0,0.0,0.0,0.0,0.0,0.0,0.0,0.0,0.0,0.0,0.0,0.0,0.0,0.0,0.0,0.0,0.0,0.0,0.0,0.0,0.0,0.0,0.0,0.0,0.0,0.0,0.0,0.0,0.0,0.0,0.0,0.0,0.0,-0.2304,-0.2203,-0.2552,-0.2742,-0.2766,-0.4135,-0.5992,0.0,0.0,0.0,0.0,0.0,0.0,0.0,0.0,0.0,0.0,0.0,0.0,0.0,0.0,0.0,0.0,0.0,0.0,0.0,0.0,0.0,0.0,0.0,0.0,0.0,0.0,0.0,0.0,0.0,0.0,0.0,0.0,0.0,0.0,0.0,0.0,0.0,0.0,0.0,0.0,0.0,0.0,0.0,0.0,0.0,0.0,0.0,0.0,0.0,0.0,0.0,0.0,0.0,0.0,0.0,0.0,0.0,0.0,0.0,0.0,0.0,0.0,0.0,0.0,0.0,0.0,0.0,0.0,0.0,0.0,0.0,0.0,0.0,0.0,0.0,0.0,0.0,0.0,0.0,0.0,0.0,0.0,0.0,0.0,0.0,0.0,0.0,0.0,0.0,0.0,0.0,0.0,0.0,0.0,0.0,0.0,0.0,0.0,0.0,0.0,0.0,0.0,0.0,0.0,0.0,0.0,0.0,0.0,-0.2022,-0.1433,-0.2114,-0.2631,-0.2637,-0.4152,-0.6062,0.0,0.0,0.0,0.0,0.0,0.0,0.0,0.0,0.0,0.0,0.0,0.0,0.0,0.0,0.0,0.0,0.0,0.0,0.0,0.0,0.0,0.0,0.0,0.0,0.0,0.0,0.0,0.0,0.0,0.0,0.0,0.0,0.0,0.0,0.0,0.0,0.0,0.0,0.0,0.0,0.0,0.0,0.0,0.0,0.0,0.0,0.0,0.0,-1.0717,0.0,0.0,0.0,0.0,0.0,0.0,0.0,0.0,0.0,0.0,0.0,0.0,0.0,0.0,0.0,0.0,0.0,0.0,0.0,0.0,0.0,0.0,0.0,0.0,0.0,0.0,0.0,0.0,0.0,0.0,0.0,0.0,0.0,0.0,0.0,0.0,0.0,0.0,0.0,0.0,0.0,0.0,0.0,0.0,0.0,0.0,0.0,0.0,0.0,0.0,0.0,0.0,0.0,0.0,0.0,0.0,0.0,0.0,0.0,-0.2193,-0.1773,-0.2296,-0.2654,-0.283,-0.4399,-0.6049,0.0,0.0,0.0,0.0,0.0,0.0,0.0,0.0,0.0,0.0,0.0,0.0,0.0,0.0,0.0,0.0,0.0,0.0,0.0,0.0,0.0,0.0,0.0,0.0,0.0,0.0,0.0,0.0,0.0,0.0,0.0,0.0,0.0,0.0,0.0,0.0,0.0,0.0,0.0,0.0,0.0,0.0,0.0,0.0,0.0,0.0,0.0,0.0,0.0,0.0,0.0,0.0,0.0,0.0,0.0,0.0,0.0,0.0,0.0,0.0,0.0,0.0,0.0,0.0,0.0,0.0,0.0,0.0,0.0,0.0,0.0,0.0,0.0,0.0,0.0,0.0,0.0,0.0,0.0,0.0,0.0,0.0,0.0,0.0,0.0,0.0,0.0,0.0,0.0,0.0,0.0,0.0,0.0,0.0,0.0,0.0,0.0,0.0,0.0,0.0,0.0,0.0,0.0,0.0,0.0,0.0,0.0,-0.2297,-0.2364,-0.244,-0.2639,-0.2668,-0.2688,-0.4491,-0.6032,-0.7574,0.0,0.0,0.0,0.0,0.0,0.0,0.0,0.0,0.0,0.0,0.0,0.0,0.0,0.0,0.0,0.0,0.0,0.0,0.0,0.0,0.0,0.0,0.0,0.0,0.0,0.0,0.0,0.0,0.0,0.0,0.0,0.0,0.0,0.0,0.0,0.0,0.0,0.0,-1.1319,-1.131,0.0,0.0,0.0,0.0,0.0,0.0,0.0,0.0,-1.0785,0.0,0.0,0.0,0.0,0.0,0.0,0.0,0.0,0.0,0.0,0.0,0.0,0.0,0.0,0.0,0.0,0.0,0.0,0.0,0.0,0.0,0.0,0.0,0.0,0.0,0.0,0.0,0.0,0.0,0.0,0.0,0.0,0.0,0.0,0.0,0.0,0.0,0.0,0.0,0.0,0.0,0.0,0.0,0.0,0.0,0.0,0.0,0.0,0.0,0.0,0.0,0.0,0.0,0.0,0.0,0.0,-0.2265,-0.1719,-0.1763,-0.2441,-0.2658,-0.2687,-0.2691,-0.4491,-0.6236,-0.7906,0.0,0.0,0.0,0.0,0.0,0.0,0.0,0.0,0.0,0.0,0.0,0.0,0.0,0.0,0.0,0.0,0.0,0.0,0.0,0.0,0.0,0.0,0.0,0.0,0.0,0.0,0.0,0.0,0.0,0.0,0.0,0.0,0.0,0.0,0.0,0.0,0.0,0.0,0.0,-1.1592,-1.1586,0.0,0.0,0.0,0.0,0.0,0.0,0.0,0.0,-1.105,0.0,0.0,0.0,0.0,0.0,0.0,0.0,0.0,0.0,0.0,0.0,0.0,0.0,0.0,0.0,0.0,0.0,0.0,0.0,0.0,0.0,0.0,0.0,0.0,0.0,0.0,0.0,0.0,0.0,0.0,0.0,0.0,0.0,0.0,0.0,0.0,0.0,0.0,0.0,0.0,0.0,0.0,0.0,0.0,0.0,0.0,0.0,0.0,0.0,0.0,0.0,0.0,0.0,0.0,0.0,-0.2293,-0.1891,-0.1613,-0.115,-0.1335,-0.1682,-0.2692,-0.4519,-0.6285,0.0,0.0,0.0,0.0,0.0,0.0,0.0,0.0,0.0,0.0,0.0,0.0,0.0,0.0,0.0,0.0,0.0,0.0,0.0,0.0,0.0,0.0,0.0,0.0,0.0,0.0,0.0,0.0,0.0,0.0,0.0,0.0,0.0,0.0,0.0,0.0,0.0,0.0,0.0,0.0,-1.1729,-1.1701,-1.1626,0.0,0.0,0.0,0.0,0.0,0.0,-1.1165,-1.1118,0.0,0.0,0.0,0.0,0.0,0.0,0.0,0.0,0.0,0.0,0.0,0.0,0.0,0.0,0.0,0.0,0.0,0.0,0.0,0.0,0.0,0.0,0.0,0.0,0.0,0.0,0.0,0.0,0.0,0.0,0.0,0.0,0.0,0.0,0.0,0.0,0.0,0.0,0.0,0.0,0.0,0.0,0.0,0.0,0.0,0.0,0.0,0.0,0.0,0.0,0.0,0.0,0.0,0.0,0.0,-0.2313,-0.2376,-0.1623,0.0,0.0,-0.0842,-0.2701,-0.438,-0.6155,0.0,0.0,0.0,0.0,0.0,0.0,0.0,0.0,0.0,0.0,0.0,0.0,0.0,0.0,0.0,0.0,0.0,0.0,0.0,0.0,0.0,0.0,0.0,0.0,0.0,0.0,0.0,0.0,0.0,0.0,0.0,0.0,0.0,0.0,0.0,0.0,0.0,0.0,0.0,0.0,0.0,-1.1803,-1.1721,-1.1809,0.0,0.0,0.0,0.0,-1.1274,-1.1253,0.0,0.0,0.0,0.0,0.0,0.0,0.0,0.0,0.0,0.0,0.0,0.0,0.0,0.0,0.0,0.0,0.0,0.0,0.0,0.0,0.0,0.0,0.0,0.0,0.0,0.0,0.0,0.0,0.0,0.0,0.0,0.0,0.0,0.0,0.0,0.0,0.0,0.0,0.0,0.0,0.0,0.0,0.0,0.0,0.0,0.0,0.0,0.0,0.0,0.0,0.0,0.0,0.0,0.0,0.0,0.0,-0.247,-0.2395,-0.1643,0.0,0.0,-0.0845,-0.2731,-0.4398,-0.5493,0.0,0.0,0.0,0.0,0.0,0.0,0.0,0.0,0.0,0.0,0.0,0.0,0.0,0.0,0.0,0.0,0.0,0.0,0.0,0.0,0.0,0.0,0.0,0.0,0.0,0.0,0.0,0.0,0.0,0.0,0.0,0.0,0.0,0.0,0.0,0.0,0.0,0.0,0.0,0.0,0.0,-1.1877,-1.1993,-1.2026,-1.1972,0.0,0.0,-1.1728,-1.1586,-1.1565,0.0,0.0,0.0,0.0,0.0,0.0,0.0,0.0,0.0,0.0,0.0,0.0,0.0,0.0,0.0,0.0,0.0,0.0,0.0,0.0,0.0,0.0,0.0,0.0,0.0,0.0,0.0,0.0,0.0,0.0,0.0,0.0,0.0,0.0,0.0,0.0,0.0,0.0,0.0,0.0,0.0,0.0,0.0,0.0,0.0,0.0,0.0,0.0,0.0,0.0,0.0,0.0,0.0,0.0,0.0,-0.1835,-0.1091,-0.1123,-0.0661,0.0,0.0,-0.0851,-0.2737,-0.3404,-0.4354,0.0,0.0,0.0,0.0,0.0,0.0,0.0,0.0,0.0,0.0,0.0,0.0,0.0,0.0,0.0,0.0,0.0,0.0,0.0,0.0,0.0,0.0,0.0,0.0,0.0,0.0,0.0,0.0,0.0,0.0,0.0,0.0,0.0,0.0,0.0,0.0,0.0,0.0,0.0,0.0,0.0,0.0,-1.1307,-1.1684,0.0,0.0,0.0,-1.1911,-1.1762,0.0,0.0,0.0,0.0,0.0,0.0,0.0,0.0,0.0,0.0,0.0,0.0,0.0,0.0,0.0,0.0,0.0,0.0,0.0,0.0,0.0,0.0,0.0,0.0,0.0,0.0,0.0,0.0,0.0,0.0,0.0,0.0,0.0,0.0,0.0,0.0,0.0,0.0,0.0,0.0,0.0,0.0,0.0,0.0,0.0,0.0,0.0,0.0,0.0,0.0,0.0,0.0,0.0,0.0,0.0,0.0,0.0,0.0,0.0,0.0,0.0,0.0,-0.0685,-0.2061,-0.2398,0.0,0.0,0.0,0.0,0.0,0.0,0.0,0.0,0.0,0.0,0.0,0.0,0.0,0.0,0.0,0.0,0.0,0.0,0.0,0.0,0.0,0.0,0.0,0.0,0.0,0.0,0.0,-0.4133,0.0,0.0,0.0,0.0,0.0,0.0,0.0,0.0,0.0,0.0,0.0,0.0,0.0,0.0,-1.0577,-1.0757,-1.1182,-1.1371,0.0,0.0,-1.1755,-1.1717,-1.1683,-1.1596,0.0,0.0,0.0,0.0,0.0,0.0,0.0,0.0,0.0,0.0,0.0,0.0,0.0,0.0,0.0,0.0,0.0,0.0,0.0,0.0,0.0,0.0,0.0,0.0,0.0,0.0,0.0,0.0,0.0,0.0,0.0,0.0,0.0,0.0,0.0,0.0,0.0,0.0,0.0,0.0,0.0,0.0,0.0,0.0,0.0,0.0,0.0,0.0,0.0,0.0,0.0,0.0,0.0,0.0,-0.1533,0.0,0.0,0.0,0.0,0.0,-0.0,-0.0174,-0.1891,-0.3533,0.0,0.0,0.0,0.0,0.0,0.0,0.0,0.0,0.0,0.0,0.0,0.0,0.0,0.0,0.0,0.0,0.0,0.0,0.0,0.0,0.0,0.0,0.0,0.0,0.0,0.0,0.0,0.0,0.0,0.0,0.0,0.0,0.0,0.0,0.0,0.0,0.0,0.0,0.0,0.0,0.0,-1.0,-1.0422,-1.0549,-1.0738,0.0,-1.1054,-1.1114,-1.1289,-1.125,-1.1338,-1.1482,0.0,0.0,0.0,0.0,0.0,0.0,0.0,0.0,0.0,0.0,0.0,0.0,0.0,0.0,0.0,0.0,0.0,0.0,0.0,0.0,0.0,0.0,0.0,0.0,0.0,0.0,0.0,0.0,0.0,0.0,0.0,0.0,0.0,0.0,0.0,0.0,0.0,0.0,0.0,0.0,0.0,0.0,0.0,0.0,0.0,0.0,0.0,0.0,0.0,0.0,0.0,0.0,0.0,-0.1539,0.0,0.0,0.0,0.0,0.0,0.0,0.0,-0.1732,-0.356,0.0,0.0,0.0,0.0,0.0,0.0,0.0,0.0,0.0,0.0,0.0,0.0,0.0,0.0,0.0,0.0,0.0,0.0,0.0,0.0,0.0,0.0,0.0,0.0,0.0,0.0,0.0,0.0,-0.353,-0.3942,-0.466,0.0,0.0,0.0,0.0,0.0,0.0,0.0,0.0,0.0,0.0,-0.8493,-0.8903,-0.932,0.0,0.0,-1.0572,-1.0815,-1.1089,-1.1139,-1.1328,-1.1338,-1.107,0.0,0.0,0.0,0.0,0.0,0.0,0.0,0.0,0.0,0.0,0.0,0.0,0.0,0.0,0.0,0.0,0.0,0.0,0.0,0.0,0.0,0.0,0.0,0.0,0.0,0.0,0.0,0.0,0.0,0.0,0.0,0.0,0.0,0.0,0.0,0.0,0.0,0.0,0.0,0.0,0.0,0.0,0.0,0.0,0.0,0.0,0.0,0.0,0.0,0.0,0.0,0.0,-0.108,0.0,0.0,0.0,0.0,0.0,-0.0174,-0.087,-0.2087,-0.3237,0.0,0.0,0.0,0.0,0.0,0.0,0.0,0.0,0.0,0.0,0.0,0.0,0.0,0.0,0.0,0.0,0.0,0.0,0.0,0.0,0.0,0.0,0.0,0.0,0.0,0.0,0.0,0.0,-0.3033,-0.3578,-0.4565,0.0,0.0,0.0,0.0,0.0,0.0,0.0,0.0,0.0,0.0,-0.7097,-0.7486,-0.8039,-0.8576,-0.9392,-0.9864,-1.0291,-1.0627,-1.08,-1.0965,-1.0976,0.0,0.0,0.0,0.0,0.0,0.0,0.0,0.0,0.0,0.0,0.0,0.0,0.0,0.0,0.0,0.0,0.0,0.0,0.0,0.0,0.0,0.0,0.0,0.0,0.0,0.0,0.0,-0.0135,0.0,0.0,-0.1212,0.0,0.0,0.0,0.0,0.0,0.0,0.0,0.0,0.0,0.0,0.0,0.0,0.0,0.0,0.0,0.0,0.0,0.0,0.0,0.0,0.0,0.0,0.0,0.0,0.0,0.0,0.0,0.0,-0.087,-0.2436,-0.261,-0.2725,-0.2766,0.0,0.0,0.0,0.0,0.0,0.0,0.0,0.0,0.0,0.0,0.0,0.0,0.0,0.0,0.0,0.0,0.0,0.0,0.0,0.0,0.0,0.0,0.0,0.0,0.0,0.0,-0.211,-0.2769,-0.3448,0.0,0.0,0.0,0.0,0.0,0.0,0.0,0.0,0.0,-0.5747,-0.5798,-0.5968,-0.619,-0.6876,-0.7577,-0.8132,-0.8929,-0.9516,-0.9862,-1.0044,-1.0369,0.0,0.0,0.0,0.0,0.0,0.0,0.0,0.0,0.0,0.0,0.0,0.0,0.0,0.0,0.0,0.0,0.0,0.0,0.0,0.0,0.0,0.0,0.0,0.0,0.0,0.0,0.0,0.0,0.0,0.0,0.0,0.0,0.0,0.0,0.0,0.0,0.0,0.0,0.0,0.0,-0.0842,-0.1684,0.0,0.0,0.0,0.0,0.0,0.0,0.0,0.0,0.0,0.0,0.0,0.0,0.0,0.0,0.0,0.0,0.0,0.0,-0.035,-0.087,-0.2087,-0.2707,-0.2549,0.0,0.0,0.0,0.0,0.0,0.0,0.0,0.0,0.0,0.0,0.0,0.0,0.0,0.0,0.0,0.0,0.0,0.0,0.0,0.0,0.0,0.0,0.0,0.0,0.0,-0.2139,0.0,0.0,0.0,0.0,0.0,0.0,0.0,0.0,0.0,0.0,0.0,-0.5042,-0.4485,-0.4496,-0.4479,-0.4834,-0.5352,-0.6032,0.0,0.0,0.0,0.0,0.0,0.0,0.0,0.0,0.0,0.0,0.0,0.0,0.0,0.0,-0.5114,-0.5513,-0.5517,-0.5379,-0.5513,0.0,0.0,0.0,0.0,0.0,0.0,0.0,0.0,0.0,0.0,0.0,0.0,0.0,0.0,0.0,0.0,0.0,0.0,0.0,0.0,0.0,0.0,0.0,0.0,0.0,-0.142,-0.0854,-0.0,-0.0996,-0.1708,-0.2134,-0.1138,-0.0706,0.0,0.0,0.0,0.0,0.0,0.0,0.0,0.0,0.0,0.0,0.0,0.0,0.0,0.0,0.0,0.0,-0.12,-0.1995,-0.2534,-0.2306,-0.2237,0.0,0.0,0.0,0.0,0.0,0.0,0.0,0.0,0.0,0.0,0.0,0.0,0.0,0.0,0.0,0.0,0.0,0.0,0.0,0.0,0.0,0.0,0.0,-0.2155,0.0,0.0,0.0,0.0,0.0,0.0,0.0,0.0,0.0,-0.4708,-0.4546,-0.4065,-0.3645,-0.3614,-0.3567,-0.3625,0.0,0.0,0.0,0.0,0.0,0.0,0.0,-0.9205,-0.9612,-0.9877,-0.9678,-0.8954,-0.7764,-0.6656,-0.552,0.0,0.0,-0.4842,-0.4708,-0.4708,-0.4842,-0.4977,-0.5111,-0.5111,-0.5245,-0.5379,0.0,0.0,0.0,0.0,0.0,0.0,0.0,0.0,0.0,0.0,0.0,0.0,0.0,0.0,0.0,0.0,0.0,0.0,0.0,0.0,0.0,0.0,0.0,0.0,-0.0731,-0.2046,-0.0731,0.0,0.0,0.0,0.0,0.0,0.0,0.0,0.0,0.0,0.0,0.0,0.0,0.0,0.0,0.0,0.0,0.0,0.0,-0.081,-0.2238,-0.2317,-0.2247,-0.2192,-0.2136,0.0,0.0,0.0,0.0,0.0,0.0,0.0,0.0,0.0,0.0,0.0,0.0,0.0,0.0,0.0,0.0,0.0,0.0,0.0,0.0,-0.2155,0.0,0.0,0.0,0.0,0.0,0.0,0.0,0.0,0.0,-0.2556,-0.3633,-0.3861,-0.3645,-0.2945,0.0,0.0,0.0,0.0,-0.4276,-0.4378,-0.5489,-0.64,-0.6792,-0.7313,-0.7972,-0.877,0.0,0.0,-0.7454,-0.6851,-0.6057,-0.4577,-0.4308,-0.4174,-0.3768,-0.3499,-0.3362,-0.3765,-0.4037,-0.4305,-0.4705,-0.4977,-0.4977,0.0,0.0,0.0,0.0,0.0,0.0,0.0,0.0,0.0,0.0,0.0,0.0,0.0,0.0,0.0,0.0,0.0,0.0,0.0,0.0,0.0,0.0,0.0,0.0,-0.015,-0.0599,-0.015,0.0,0.0,0.0,0.0,0.0,0.0,0.0,0.0,0.0,0.0,0.0,0.0,0.0,0.0,0.0,0.0,0.0,0.0,-0.0163,-0.064,-0.0618,-0.0599,-0.0731,-0.1139,0.0,0.0,0.0,0.0,0.0,0.0,0.0,0.0,0.0,0.0,0.0,0.0,0.0,0.0,0.0,0.0,0.0,0.0,0.0,-0.1481,-0.1885,-0.2155,0.0,0.0,0.0,0.0,0.0,0.0,0.0,0.0,0.0,-0.2694,-0.3032,-0.2945,0.0,0.0,-0.2054,-0.2237,-0.271,-0.3047,-0.3094,-0.4338,0.0,-0.5858,-0.6661,-0.7451,-0.8016,-0.816,-0.7993,-0.7017,-0.6348,-0.544,-0.4179,-0.3636,-0.3098,-0.2828,-0.2961,-0.3228,-0.3362,-0.3497,-0.3497,-0.3631,-0.3765,-0.3768,0.0,0.0,0.0,0.0,0.0,0.0,0.0,0.0,0.0,0.0,0.0,0.0,0.0,0.0,0.0,0.0,0.0,0.0,0.0,0.0,0.0,0.0,0.0,0.0,0.0,0.0,0.0,0.0,0.0,0.0,0.0,0.0,0.0,0.0,0.0,0.0,0.0,0.0,0.0,0.0,0.0,0.0,0.0,0.0,0.0,0.0,0.0,0.0,0.0,0.0,-0.0429,-0.0978,0.0,0.0,0.0,0.0,0.0,0.0,0.0,0.0,0.0,0.0,0.0,-0.2136,-0.2136,0.0,0.0,0.0,-0.2155,-0.1885,-0.1212,-0.1212,0.0,0.0,0.0,0.0,0.0,0.0,0.0,-0.2559,-0.2425,-0.2155,-0.2155,-0.2483,-0.2524,-0.2245,-0.1579,-0.132,-0.1336,0.0,-0.2114,-0.2447,-0.3368,-0.4126,-0.4864,-0.57,-0.6511,-0.7319,-0.7469,-0.7332,-0.668,-0.5769,-0.4753,-0.391,-0.3232,-0.2694,-0.1885,-0.2154,-0.2422,-0.269,-0.2827,-0.2827,-0.2961,-0.3094,-0.3228,0.0,0.0,0.0,0.0,0.0,0.0,0.0,0.0,0.0,0.0,0.0,0.0,0.0,0.0,0.0,0.0,0.0,0.0,0.0,0.0,0.0,0.0,0.0,0.0,0.0,0.0,0.0,0.0,0.0,0.0,0.0,0.0,0.0,0.0,0.0,0.0,0.0,0.0,0.0,0.0,0.0,0.0,0.0,0.0,0.0,0.0,0.0,0.0,0.0,0.0,0.0,0.0,0.0,0.0,0.0,0.0,0.0,0.0,0.0,0.0,0.0,0.0,0.0,0.0,0.0,0.0,0.0,0.0,-0.2155,0.0,-0.1077,-0.0404,0.0,0.0,0.0,-0.2021,-0.2155,-0.2155,-0.2155,-0.2155,0.0,0.0,-0.2155,-0.2207,-0.2105,-0.2105,-0.1436,-0.0879,-0.0148,-0.0594,-0.1492,-0.2417,-0.2571,-0.2862,-0.3878,-0.4448,-0.5284,-0.6606,-0.677,-0.6541,-0.5917,-0.5027,-0.4179,-0.3633,-0.3096,-0.2425,-0.1346,-0.1212,-0.1346,-0.2019,-0.2155,-0.229,-0.2559,-0.2827,-0.2961,0.0,0.0,0.0,0.0,0.0,0.0,0.0,0.0,0.0,0.0,0.0,0.0,0.0,0.0,0.0,0.0,0.0,0.0,0.0,0.0,0.0,0.0,0.0,0.0,0.0,0.0,0.0,0.0,0.0,0.0,0.0,0.0,0.0,0.0,0.0,0.0,0.0,0.0,0.0,0.0,0.0,0.0,0.0,0.0,0.0,0.0,0.0,0.0,0.0,0.0,0.0,0.0,0.0,-0.041,0.0,0.0,0.0,0.0,0.0,0.0,0.0,0.0,0.0,-0.079,-0.1318,0.0,-0.2255,0.0,-0.2155,-0.1616,-0.0404,-0.0135,0.0,0.0,-0.0404,-0.0808,-0.1346,-0.1885,-0.2155,-0.2155,-0.1212,-0.0943,-0.2021,-0.2208,-0.1824,-0.0702,0.0,-0.0146,-0.0,-0.0148,-0.0744,-0.2091,-0.239,-0.2536,-0.2821,-0.3798,-0.4895,-0.5862,-0.5887,-0.5649,-0.4944,-0.4343,-0.3768,-0.3096,-0.2154,-0.175,-0.1885,-0.1481,-0.1212,-0.1346,-0.175,-0.229,-0.229,-0.2423,-0.2423,0.0,0.0,0.0,0.0,0.0,0.0,0.0,0.0,0.0,0.0,0.0,0.0,0.0,0.0,0.0,0.0,0.0,0.0,0.0,0.0,0.0,0.0,0.0,0.0,0.0,0.0,0.0,0.0,0.0,0.0,0.0,0.0,0.0,0.0,0.0,0.0,0.0,0.0,0.0,0.0,0.0,0.0,0.0,0.0,0.0,0.0,0.0,0.0,0.0,0.0,0.0,0.0,0.0,0.0,0.0,0.0,0.0,0.0,0.0,0.0,0.0,0.0,0.0,0.0,0.0,0.0,-0.1989,-0.121,-0.1212,-0.0943,-0.0135,0.0,0.0,0.0,0.0,-0.0135,-0.0539,-0.0943,-0.1212,-0.1212,-0.0539,-0.0269,-0.1078,-0.1241,-0.0982,0.0,0.0,0.0,0.0,0.0,-0.0443,-0.1623,-0.1917,-0.2064,-0.2506,-0.3622,-0.4422,-0.4814,-0.4875,-0.4661,-0.4224,-0.3652,-0.323,-0.2963,-0.2021,-0.1077,-0.1212,-0.0943,-0.0673,-0.0673,-0.0943,-0.1346,-0.1616,-0.175,-0.175,0.0,0.0,0.0,0.0,0.0,0.0,0.0,0.0,0.0,0.0,0.0,0.0,0.0,0.0,0.0,0.0,0.0,0.0,0.0,0.0,0.0,0.0,0.0,0.0,0.0,0.0,0.0,0.0,0.0,0.0,0.0,0.0,0.0,0.0,0.0,0.0,0.0,0.0,0.0,0.0,0.0,0.0,0.0,0.0,0.0,0.0,0.0,0.0,0.0,0.0,0.0,0.0,0.0,0.0,0.0,0.0,0.0,0.0,0.0,0.0,0.0,0.0,0.0,0.0,0.0,-0.1188,-0.1328,0.0,0.0,0.0,0.0,0.0,0.0,0.0,0.0,0.0,0.0,0.0,0.0,0.0,0.0,0.0,0.0,0.0,0.0,0.0,0.0,0.0,0.0,0.0,-0.0292,-0.1022,-0.1168,-0.1753,-0.2618,-0.3307,-0.3829,-0.3783,-0.387,-0.3823,-0.3643,-0.3098,-0.2828,-0.2963,-0.2021,-0.1077,-0.0135,0.0,0.0,0.0,0.0,0.0,-0.0808,-0.0943,-0.1212,0.0,0.0,0.0,0.0,0.0,0.0,0.0,0.0,0.0,0.0,0.0,0.0,0.0,0.0,0.0,0.0,0.0,0.0,0.0,0.0,0.0,0.0,0.0,0.0,0.0,0.0,0.0,0.0,0.0,0.0,0.0,0.0,0.0,0.0,0.0,0.0,0.0,0.0,0.0,0.0,0.0,0.0,0.0,0.0,0.0,0.0,0.0,0.0,0.0,0.0,0.0,0.0,0.0,0.0,0.0,0.0,0.0,0.0,0.0,0.0,0.0,0.0,0.0,0.0,0.0,-0.0266,-0.0268,0.0,0.0,0.0,0.0,0.0,0.0,0.0,0.0,0.0,0.0,0.0,0.0,0.0,0.0,0.0,0.0,0.0,0.0,0.0,0.0,0.0,0.0,0.0,0.0,-0.0292,-0.1167,-0.2034,-0.2443,-0.2839,-0.3081,-0.3316,-0.3407,-0.3242,-0.2965,-0.2963,-0.2694,-0.2425,-0.2155,-0.1481,0.0,0.0,0.0,0.0,0.0,-0.0,-0.0135,0.0,-0.0269,0.0,0.0,0.0,0.0,0.0,0.0,0.0,0.0,0.0,0.0,0.0,0.0,0.0,0.0,0.0,0.0,0.0,0.0,0.0,0.0,0.0,0.0,0.0,0.0,0.0,0.0,0.0,0.0,0.0,0.0,0.0,0.0,0.0,0.0,0.0,0.0,0.0,0.0,0.0,0.0,0.0,0.0,0.0,0.0,0.0,0.0,0.0,0.0,0.0,0.0,0.0,0.0,0.0,0.0,0.0,0.0,0.0,0.0,0.0,0.0,0.0,0.0,0.0,0.0,0.0,0.0,0.0,0.0,0.0,0.0,0.0,0.0,0.0,0.0,0.0,0.0,0.0,0.0,0.0,0.0,0.0,0.0,0.0,0.0,0.0,0.0,0.0,0.0,0.0,0.0,0.0,0.0,-0.058,-0.1442,-0.2146,-0.239,-0.2495,-0.2748,-0.2718,-0.2696,-0.2559,-0.2559,-0.2425,-0.229,-0.2155,-0.175,0.0,0.0,0.0,0.0,0.0,0.0,0.0,0.0,0.0,0.0,0.0,0.0,0.0,0.0,0.0,0.0,0.0,0.0,0.0,0.0,0.0,0.0,0.0,0.0,0.0,0.0,0.0,0.0,0.0,0.0,0.0,0.0,0.0,0.0,0.0,0.0,0.0,0.0,0.0,0.0,0.0,0.0,0.0168,0.0516,0.0175,0.0,0.0,0.0,0.0,0.0,0.0,0.0,0.0,0.0,0.0,0.0,0.0,0.0,0.0,0.0,0.0,0.0,0.0,0.0,0.0,0.0,0.0,0.0,0.0,0.0,0.0,0.0,0.0,0.0,0.0,0.0,0.0,0.0,0.0,0.0,0.0,0.0,0.0,0.0,0.0,0.0,0.0,0.0,0.0,0.0,0.0,0.0,0.0,0.0,0.0,0.0,0.0,0.0,0.0,0.0,0.0,0.0,-0.0572,-0.1564,-0.1959,-0.2063,-0.2189,-0.217,-0.2155,-0.2021,-0.2155,-0.2155,-0.2155,-0.2021,-0.1346,0.0,0.0,0.0,0.0,0.0,0.0,0.0,0.0,0.0,0.0,0.0,0.0,0.0,0.0,0.0,0.0,0.0,0.0,0.0,0.0,0.0,0.0,0.0,0.0,0.0,0.0,0.0,0.0,0.0,0.0,0.0,0.0,0.0,0.0,0.0,0.0,0.0,0.0,0.0,0.0,0.0,0.0,0.0861,0.2284,0.0882,0.0,0.0,0.0,0.0,0.0,0.0,0.0,0.0,0.0,0.0,0.0,0.0,0.0,0.0,0.0,0.0,0.0,0.0,0.0,0.0,0.0,0.0,0.0,0.0,0.0,0.0,0.0,0.0,0.0,0.0,0.0,0.0,0.0,0.0,0.0,0.0,0.0,0.0,0.0,0.0,0.0,0.0,0.0,0.0,0.0,0.0,0.0,0.0,0.0,0.0,0.0,0.0,0.0,0.0,0.0,0.0,0.0,0.0,-0.0423,-0.0973,-0.1506,-0.2165,-0.2159,-0.2021,-0.1481,-0.175,-0.2021,-0.2155,-0.1212,0.0,0.0,0.0,0.0,0.0,0.0,0.0,0.0,0.0,0.0,0.0,0.0,0.0,0.0,0.0,0.0,0.0,0.0,0.1002,0.0826,0.0,0.0,0.0488,0.1465,0.1465,0.1139,0.0651,0.0164,0.0,0.0,0.0,0.0,0.0,0.0,0.0,0.0,0.0,0.0,0.0,0.0,0.0,0.0,0.1036,0.21,0.2827,0.1955,0.1072,0.0,0.0,0.0,0.0,0.0,0.0,0.0,0.0,0.0,0.0,0.0,0.0,0.0,0.0,0.0,0.0,0.0,0.0,0.0,0.0,0.0,0.0,0.0,0.0,0.0,0.0,0.0,0.0,0.0,0.0,0.0,0.0,0.0,0.0,0.0,0.0,0.0,0.0,0.0,0.0,0.0,0.0,0.0,0.0,0.0,0.0,0.0,0.0,0.0,0.0,0.0,0.0,0.0,0.0,0.0,0.0,0.0,0.0,-0.0274,-0.0678,-0.0943,-0.175,-0.2021,-0.1616,-0.1481,-0.1077,-0.0943,0.0,0.0,0.0,0.0,0.0,0.0,0.0,0.0,0.0,0.0,0.0,0.0357,0.0709,0.0709,0.0529,0.0349,0.0173,0.0,0.0,0.1868,0.185,0.0667,0.033,0.1148,0.2296,0.2624,0.2296,0.1642,0.0993,0.0,0.0,0.0,0.0,0.0,0.0,0.0,0.0,0.0505,0.0674,0.0676,0.0676,0.0681,0.0862,0.2104,0.2831,0.284,0.287,0.2163,0.0721,0.0181,0.0,0.0,0.0,0.0,0.0,0.0,0.0,0.0,0.0,0.0,0.0,0.0,0.0,0.0,0.0,0.0,0.0,0.0,0.0,0.0,0.0,0.0,0.0,0.0,0.0,0.0,0.0,0.0,0.0,0.0,0.0,0.0,0.0,0.0,0.0,0.0,0.0,0.0,0.0,0.0,0.0,0.0,0.0,0.0,0.0,0.0,0.0,0.0,0.0,0.0,0.0,0.0,0.0,0.0,0.0,0.0,0.0,0.0,0.0,-0.0943,-0.1346,-0.1346,-0.0673,0.0,0.0,0.0,0.0,0.0,0.0,0.0,0.0,0.0,0.0,0.0,0.0,0.0,0.1077,0.2511,0.251,0.2139,0.1234,0.0349,0.0,0.0,0.1888,0.2563,0.2385,0.1517,0.1341,0.1509,0.2348,0.2682,0.2514,0.2519,0.1512,0.0168,0.0,0.0,0.0,0.0,0.0,0.0337,0.1686,0.2374,0.2392,0.2564,0.2591,0.2638,0.2826,0.2842,0.287,0.3081,0.2915,0.255,0.0919,0.0,0.0,0.0,0.0,0.0,0.0,0.0,0.0,0.0,0.0,0.0,0.0,0.0,0.0,0.0,0.0,0.0,0.0,0.0,0.0,0.0,0.0,0.0,0.0,0.0,0.0,0.0,0.0,0.0,0.0,0.0,0.0,0.0,0.0,0.0,0.0,0.0,0.0,0.0,0.0,0.0,0.0,0.0,0.0,0.0,0.0,0.0,0.0,0.0,0.0,0.0,0.0,0.0,0.0,0.0,0.0,0.0,0.0,0.0,0.0,0.0,0.0,0.0,0.0,0.0,0.0,0.0,0.0,0.0,0.0,0.0,0.0,0.0,0.0,0.0,0.0,0.1257,0.2156,0.2694,0.2688,0.2316,0.194,0.1755,0.1754,0.243,0.311,0.3452,0.2904,0.237,0.2188,0.2524,0.2692,0.2692,0.2692,0.2355,0.1682,0.1682,0.1519,0.1529,0.17,0.1705,0.1716,0.1889,0.2064,0.2074,0.2607,0.2978,0.2826,0.2844,0.3217,0.3593,0.3265,0.31,0.2917,0.221,0.129,0.0,0.0,0.0,0.0,0.0,0.0,0.0,0.0,0.0,0.0,0.0,0.0,0.0,0.0,0.0,0.0,0.0,0.0,0.0,0.0,0.0,0.0,0.0,0.0,0.0,0.0,0.0,0.0,0.0,0.0,0.0,0.0,0.0,0.0,0.0,0.0,0.0,0.0,0.0,0.0,0.0,0.0,0.0,0.0,0.0,0.0,0.0,0.0,0.0,0.0,0.0,0.0,0.0,0.0,0.0,0.0,0.0,0.0,0.0,0.0,0.0,0.0,0.0,0.0,0.0,0.0,0.0,0.0,0.0,0.0,0.0,0.0,0.0,0.0,0.0,0.216,0.2154,0.2872,0.3233,0.323,0.3207,0.3017,0.3014,0.3159,0.3669,0.4189,0.3799,0.3423,0.3056,0.3038,0.3029,0.3029,0.3038,0.2872,0.2705,0.2712,0.2729,0.2748,0.2751,0.2935,0.278,0.226,0.1915,0.2097,0.2471,0.3014,0.3196,0.3575,0.3953,0.469,0.4007,0.3667,0.3311,0.3156,0.2237,0.0,0.0368,0.0,0.0,0.0,0.0,0.0,0.0,0.0,0.0,0.0,0.0,0.0,0.0,0.0,0.0,0.0,0.0,0.0,0.0,0.0,0.0,0.0,0.0,0.0,0.0,0.0,0.0,0.0,0.0,0.0,0.0,0.0,0.0,0.0,0.0,0.0,0.0,0.0,0.0,0.0,0.0,0.0,0.0,0.0,0.0,0.0,0.0,0.0,0.0,0.0,0.0,0.0,0.0,0.0,0.0,0.0,0.0,0.0,0.0,0.0,0.0,0.0,0.0,0.0,0.0,0.0,0.0,0.0,0.0,0.0,0.0,0.0,0.0,0.0,0.3984,0.3771,0.4128,0.4307,0.4307,0.3945,0.3406,0.3043,0.4079,0.4591,0.4408,0.4189,0.4166,0.4158,0.4081,0.4038,0.3875,0.3913,0.3589,0.2907,0.2761,0.2777,0.2781,0.2781,0.2956,0.2965,0.2966,0.3153,0.3534,0.3211,0.3406,0.412,0.5025,0.5591,0.5826,0.5702,0.5018,0.3932,0.3405,0.3033,0.2629,0.093,0.0,0.0,0.0,0.0,0.0,0.0,0.0,0.0,0.0,0.0,0.0,0.0,0.0,0.0,0.0,0.0,0.0,0.0,0.0,0.0,0.0,0.0,0.0,0.0,0.0,0.0,0.0,0.0,0.0,0.0,0.0,0.0,0.0,0.0,0.0,0.0,0.0,0.0,0.0,0.0,0.0,0.0,0.0,0.0,0.0,0.0,0.0,0.0,0.0,0.0,0.0,0.0,0.0,0.0,0.0,0.0,0.0,0.0,0.0,0.0,0.0,0.0,0.0,0.0,0.0,0.0,0.0,0.0,0.0,0.0,0.0,0.0,0.0,0.4529,0.4485,0.4664,0.4845,0.5204,0.5025,0.4485,0.3943,0.4825,0.5709,0.6053,0.5819,0.5791,0.5963,0.6049,0.5496,0.4641,0.4659,0.4321,0.363,0.3642,0.4013,0.4566,0.4042,0.3703,0.3725,0.3727,0.4089,0.4459,0.4118,0.3943,0.4666,0.65,0.7631,0.7492,0.6487,0.5802,0.5073,0.3795,0.3047,0.3033,0.1691,0.0744,0.0,0.0,0.0,0.0,0.0,0.0,0.0,0.0,0.0,0.0,0.0,0.0,0.0,0.0,0.0,0.0,0.0,0.0,0.0,0.0,0.0,0.0,0.0,0.0,0.0,0.0,0.0,0.0,0.0,0.0,0.0,0.0,0.0,0.0,0.0,0.0,0.0,0.0,0.0,0.0,0.0,0.0,0.0,0.0,0.0,0.0,0.0,0.0,0.0,0.0,0.0,0.0,0.0,0.0,0.0,0.0,0.0,0.0,0.0,0.0,0.0,0.0,0.0,0.0,0.0,0.0,0.0,0.0,0.0,0.0,0.0,0.0,0.5253,0.5741,0.5739,0.5918,0.6099,0.6099,0.5918,0.5378,0.6097,0.6994,0.7881,0.747,0.7268,0.7618,0.7743,0.7192,0.6313,0.5949,0.5242,0.4717,0.4733,0.5112,0.5499,0.5327,0.5169,0.5199,0.5025,0.5201,0.538,0.5378,0.5204,0.5401,0.762,0.8596,0.8477,0.7649,0.6764,0.5853,0.4561,0.3624,0.3048,0.2456,0.1309,0.0,0.0,0.0,0.0,0.0,0.0,0.0,0.0,0.0,0.0,0.0,0.0,0.0,0.0,0.0,0.0,0.0,0.0,0.0,0.0,0.0,0.0,0.0,0.0,0.0,0.0,0.0,0.0,0.0,0.0,0.0,0.0,0.0,0.0,0.0,0.0,0.0,0.0,0.0,0.0,0.0,0.0,0.0,0.0,0.0,0.0,0.0,0.0,0.0,0.0,0.0,0.0,0.0,0.0,0.0,0.0,0.0,0.0,0.0,0.0,0.0,0.0,0.0,0.0,0.0,0.0,0.0,0.0,0.0,0.0,0.0,0.0,0.6883,0.7184,0.7173,0.7177,0.7352,0.7352,0.7173,0.717,0.771,0.8607,0.9688,0.8956,0.8583,0.8765,0.8926,0.9117,0.8736,0.7791,0.6706,0.5825,0.5695,0.5719,0.6085,0.6803,0.7163,0.7001,0.6637,0.6454,0.6633,0.6815,0.7024,0.7255,0.8375,0.9203,0.9186,0.9011,0.7924,0.6458,0.5335,0.4387,0.3239,0.3025,0.206,0.0,0.0,0.0,0.0,0.0,0.0,0.0,0.0,0.0,0.0,0.0,0.0,0.0,0.0,0.0,0.0,0.0,0.0,0.0,0.0,0.0,0.0,0.0,0.0,0.0,0.0,0.0,0.0,0.0,0.0,0.0,0.0,0.0,0.0,0.0,0.0,0.0,0.0,0.0,0.0,0.0,0.0,0.0,0.0,0.0,0.0,0.0,0.0,0.0,0.0,0.0,0.0,0.0,0.0,0.0,0.0,0.0,0.0,0.0,0.0,0.0,0.0,0.0,0.0,0.0,0.0,0.0,0.0,0.0,0.0,0.0,0.0,0.841,0.8697,0.8873,0.8836,0.9143,0.9139,0.8778,0.8234,0.8956,1.004,1.0763,1.0035,0.9496,0.9674,0.9669,0.9847,0.9669,0.9282,0.8554,0.7662,0.6971,0.716,0.7881,0.8607,0.8786,0.8246,0.8063,0.806,0.825,0.757,0.7794,0.9109,1.0335,1.0996,1.1076,0.9821,0.8353,0.704,0.5527,0.4575,0.4004,0.3423,0.2078,0.0,0.0,0.0,0.0,0.0,0.0,0.0,0.0,0.0,0.0,0.0,0.0,0.0,0.0,0.0,0.0,0.0,0.0,0.0,0.0,0.0,0.0,0.0,0.0,0.0,0.0,0.0,0.0,0.0,0.0,0.0,0.0,0.0,0.0,0.0,0.0,0.0,0.0,0.0,0.0,0.0,0.0,0.0,0.0,0.0,0.0,0.0,0.0,0.0,0.0,0.0,0.0,0.0,0.0,0.0,0.0,0.0,0.0,0.0,0.0,0.0,0.0,0.0,0.0,0.0,0.0,0.0,0.0,0.0,0.0,0.0,0.0,0.9605,0.988,0.9876,1.0002,1.0267,1.0088,0.9701,0.9304,1.0204,1.1109,1.1649,1.146,1.1099,1.1099,1.1099,1.1099,1.1099,1.1099,1.0555,0.9655,0.8769,0.8773,0.9678,1.0223,1.004,0.9317,0.9134,0.933,0.955,0.8693,0.8936,1.0133,1.1557,1.2223,1.208,1.1008,0.9517,0.7612,0.6093,0.4954,0.4385,0.3623,0.2087,0.0,0.0,0.0,0.0,0.0,0.0,0.0,0.0,0.0,0.0,0.0,0.0,0.0,0.0,0.0,0.0,0.0,0.0,0.0,0.0,0.0,0.0,0.0,0.0,0.0,0.0,0.0,0.0,0.0,0.0,0.0,0.0,0.0,0.0,0.0,0.0,0.0,0.0,0.0,0.0,0.0,0.0,0.0,0.0,0.0,0.0,0.0,0.0,0.0,0.0,0.0,0.0,0.0,0.0,0.0,0.0,0.0,0.0,0.0,0.0,0.0,0.0,0.0,0.0,0.0,0.0,0.0,0.0,0.0,0.0,0.0,0.0,1.063,1.0538,1.0533,1.0831,1.1097,1.074,1.031,1.0213,1.1109,1.2188,1.2894,1.2704,1.2698,1.2875,1.252,1.252,1.2875,1.252,1.2171,1.146,1.0575,1.0406,1.1298,1.1493,1.1146,1.0411,1.0243,1.0291,1.0554,1.0216,1.0287,1.0635,1.1615,1.2256,1.2172,1.2205,1.0502,0.8028,0.6684,0.5542,0.4776,0.3629,0.2281,0.0,0.0,0.0,0.0,0.0,0.0,0.0,0.0,0.0,0.0,0.0,0.0,0.0,0.0,0.0,0.0,0.0,0.0,0.0,0.0,0.0,0.0,0.0,0.0,0.0,0.0,0.0,0.0,0.0,0.0,0.0,0.0,0.0,0.0,0.0,0.0,0.0,0.0,0.0,0.0,0.0,0.0,0.0,0.0,0.0,0.0,0.0,0.0,0.0,0.0,0.0,0.0,0.0,0.0,0.0,0.0,0.0,0.0,0.0,0.0,0.0,0.0,0.0,0.0,0.0,0.0,0.0,0.0,0.0,0.0,0.0,0.0,1.2427,1.2685,1.2685,1.261,1.2677,1.2494,1.187,1.1389,1.2298,1.3164,1.3636,1.3242,1.2881,1.2875,1.2881,1.2875,1.2887,1.2704,1.2764,1.2836,1.1748,1.1704,1.239,1.2812,1.2675,1.2321,1.2198,1.246,1.2494,1.1641,1.1346,1.1403,1.2074,1.2178,1.2281,1.2128,1.1018,0.8931,0.7194,0.6199,0.5592,0.4047,0.2878,0.228,0.0753,0.0,0.0,0.0,0.0,0.0,0.0,0.0,0.0,0.0,0.0,0.0,0.0,0.0,0.0,0.0,0.0,0.0,0.0,0.0,0.0,0.0,0.0,0.0,0.0,0.0,0.0,0.0,0.0,0.0,0.0,0.0,0.0,0.0,0.0,0.0,0.0,0.0,0.0,0.0,0.0,0.0,0.0,0.0,0.0,0.0,0.0,0.0,0.0,0.0,0.0,0.0,0.0,0.0,0.0,0.0,0.0,0.0,0.0,0.0,0.0,0.0,0.0,0.0,0.0,0.0,0.0,0.0,0.0,0.0,0.0,1.3445,1.3566,1.3566,1.3672,1.3738,1.3542,1.309,1.2981,1.315,1.3636,1.4071,1.3674,1.3458,1.342,1.3471,1.3674,1.3502,1.3374,1.363,1.3874,1.3338,1.33,1.3636,1.3881,1.3719,1.3169,1.3236,1.3303,1.3358,1.2876,1.2766,1.2688,1.3145,1.306,1.2208,1.2428,1.1492,0.9582,0.7837,0.6842,0.6035,0.4653,0.3475,0.2873,0.0,0.0,0.0,0.0,0.0,0.0,0.0,0.0,0.0,0.0,0.0,0.0,0.0,0.0,0.0,0.0,0.0,0.0,0.0,0.0,0.0,0.0,0.0,0.0,0.0,0.0,0.0,0.0,0.0,0.0,0.0,0.0,0.0,0.0,0.0,0.0,0.0,0.0,0.0,0.0,0.0,0.0,0.0,0.0,0.0,0.0,0.0,0.0,0.0,0.0,0.0,0.0,0.0,0.0,0.0,0.0,0.0,0.0,0.0,0.0,0.0,0.0,0.0,0.0,0.0,0.0,0.0,0.0,0.0,0.0,0.0,1.3907,1.3895,1.3895,1.4002,1.4255,1.387,1.398,1.4415,1.4023,1.3945,1.4376,1.435,1.4296,1.4353,1.4316,1.4536,1.4543,1.4457,1.4537,1.4584,1.4611,1.4808,1.4631,1.4604,1.4231,1.3676,1.3486,1.3579,1.3864,1.3895,1.4027,1.3988,1.4654,1.4366,1.3297,1.2937,1.1768,1.0232,0.8871,0.7682,0.6678,0.5273,0.4081,0.2892,0.0,0.0,0.0,0.0,0.0,0.0,0.0,0.0,0.0,0.0,0.0,0.0,0.0,0.0,0.0,0.0,0.0,0.0,0.0,0.0,0.0,0.0,0.0,0.0,0.0,0.0,0.0,0.0,0.0,0.0,0.0,0.0,0.0,0.0,0.0,0.0,0.0,0.0,0.0,0.0,0.0,0.0,0.0,0.0,0.0,0.0,0.0,0.0,0.0,0.0,0.0,0.0,0.0,0.0,0.0,0.0,0.0,0.0,0.0,0.0,0.0,0.0,0.0,0.0,0.0,0.0,0.0,0.0,0.0,0.0,0.0,1.4706,1.4983,1.4983,1.5087,1.4959,1.4946,1.4865,1.5114,1.4731,1.4651,1.4901,1.4692,1.4484,1.4638,1.4665,1.4692,1.4692,1.4746,1.4801,1.5121,1.5052,1.5086,1.5065,1.4997,1.4936,1.458,1.4666,1.4725,1.4778,1.4878,1.4964,1.5036,1.5375,1.5696,1.5028,1.3459,1.2321,1.0998,0.9811,0.8776,0.7543,0.5735,0.4316,0.3099,0.114,0.0,0.0,0.0,0.0,0.0,0.0,0.0,0.0,0.0,0.0,0.0,0.0,0.0,0.0,0.0,0.0,0.0,0.0,0.0,0.0,0.0,0.0,0.0,0.0,0.0,0.0,0.0,0.0,0.0,0.0,0.0,0.0,0.0,0.0,0.0,0.0,0.0,0.0,0.0,0.0,0.0,0.0,0.0,0.0,0.0,0.0,0.0,0.0,0.0,0.0,0.0,0.0,0.0,0.0,0.0,0.0,0.0,0.0,0.0,0.0,0.0,0.0,0.0,0.0,0.0,0.0,0.0,0.0,0.0,0.0,1.5395,1.552,1.552,1.5432,1.5303,1.5289,1.5208,1.5279,1.5072,1.5176,1.5059,1.5032,1.4808,1.4753,1.4814,1.4848,1.4869,1.4923,1.4991,1.5265,1.5153,1.5215,1.5471,1.5416,1.5368,1.5187,1.5242,1.5316,1.5404,1.5472,1.5547,1.5415,1.571,1.5832,1.577,1.3982,1.2808,1.1858,1.048,0.9452,0.8617,0.6777,0.4733,0.3099,0.0,0.0,0.0,0.0,0.0,0.0,0.0,0.0,0.0,0.0,0.0,0.0,0.0,0.0,0.0,0.0,0.0,0.0,0.0,0.0,0.0,0.0,0.0,0.0,0.0,0.0,0.0,0.0,0.0,0.0,0.0,0.0,0.0,0.0,0.0,0.0,0.0,0.0,0.0,0.0,0.0,0.0,0.0,0.0,0.0,0.0,0.0,0.0,0.0,0.0,0.0,0.0,0.0,0.0,0.0,0.0,0.0,0.0,0.0,0.0,0.0,0.0,0.0,0.0,0.0,0.0,0.0,0.0,0.0,0.0,0.0,1.5696,1.5669,1.5669,1.5581,1.5459,1.5445,1.5357,1.5228,1.5221,1.514,1.521,1.5197,1.4943,1.4869,1.495,1.4997,1.5038,1.514,1.5215,1.5221,1.5276,1.535,1.5425,1.5629,1.5643,1.5472,1.5452,1.5513,1.5588,1.5662,1.571,1.5629,1.5716,1.581,1.5698,1.4325,1.314,1.2574,1.1133,0.9907,0.9492,0.7618,0.554,0.3108,0.0,0.0,0.0,0.0,0.0,0.0,0.0,0.0,0.0,0.0,0.0,0.0,0.0,0.0,0.0,0.0,0.0,0.0,0.0,0.0,0.0,0.0,0.0,0.0,0.0,0.0,0.0,0.0,0.0,0.0,0.0,0.0157,0.0155,0.0,0.0,0.0,0.0,0.0,0.0,0.0,0.0,0.0,0.0,0.0,0.0,0.0,0.0,0.0,0.0,0.0,0.0,0.0,0.0,0.0,0.0,0.0,0.0,0.0,0.0,0.0,0.0,0.0,0.0,0.0,0.0,0.0,0.0,0.0,0.0,0.0,0.0,1.5934,1.5818,1.5818,1.5737,1.5615,1.5601,1.5513,1.5194,1.518,1.5282,1.516,1.5147,1.5147,1.512,1.5126,1.5147,1.5208,1.5309,1.5371,1.52,1.5267,1.5361,1.5588,1.5801,1.5856,1.5716,1.5683,1.5649,1.5689,1.5757,1.5859,1.5716,1.5897,1.6045,1.5896,1.4954,1.3955,1.3118,1.1851,1.0807,0.9771,0.828,0.6182,0.3527,0.2513,0.1719,0.0378,0.0,0.0,0.0,0.0,0.0,0.0,0.0,0.0,0.0,0.0,0.0,0.0,0.0,0.0,0.0,0.0,0.0,0.0,0.0,0.0,0.0,0.1311,0.2116,0.2274,0.146,0.1135,0.1132,0.1129,0.1125,0.0955,0.0,0.0,0.0,0.0,0.0,0.0,0.0,0.0,0.0,0.0,0.0,0.0,0.0,0.0,0.0,0.0,0.0,0.0,0.0,0.0,0.0,0.0,0.0,0.0,0.0,0.0,0.0,0.0,0.0,0.0,0.0,0.0,0.0,0.0,0.0,0.0,0.0,0.0,1.6042,1.5974,1.5974,1.5886,1.5764,1.575,1.5662,1.5348,1.5328,1.5247,1.5167,1.5377,1.5371,1.5337,1.5391,1.5418,1.5241,1.5479,1.5527,1.5554,1.5601,1.5488,1.5744,1.5952,1.6041,1.5913,1.59,1.5866,1.5886,1.6022,1.6069,1.5931,1.6105,1.6212,1.6442,1.6088,1.4892,1.3637,1.2774,1.172,1.027,0.8539,0.5809,0.3958,0.3122,0.2506,0.1721,0.0377,0.0,0.0,0.0,0.0,0.0,0.0,0.0,0.0,0.0,0.0,0.0,0.0,0.0,0.0,0.0,0.0,0.0,0.0,0.1337,0.1501,0.1331,0.2148,0.2467,0.23,0.2129,0.1956,0.1954,0.1949,0.1941,0.1615,0.1434,0.1097,0.0,0.0,0.0,0.0,0.0,0.0,0.0,0.0,0.0,0.0,0.0,0.0,0.0,0.0,0.0,0.0,0.0,0.0,0.0,0.0,0.0,0.0,0.0,0.0,0.0,0.0,0.0,0.0,0.0,0.0,0.0,0.0,0.0,0.0,0.0,1.6083,1.6083,1.6083,1.6008,1.5913,1.59,1.5818,1.5703,1.5482,1.5395,1.5486,1.5567,1.556,1.5513,1.556,1.5428,1.5248,1.5655,1.5877,1.5897,1.5744,1.5805,1.6069,1.6117,1.6179,1.6103,1.6117,1.6123,1.6123,1.6212,1.63,1.6158,1.6272,1.6359,1.6797,1.6865,1.5577,1.4747,1.3482,1.2652,1.0732,0.8157,0.5839,0.3992,0.3339,0.3112,0.2702,0.1719,0.0753,0.0,0.0,0.0,0.0,0.0,0.0,0.0,0.0,0.0,0.0,0.0,0.0,0.0,0.0,0.0,0.0,0.187,0.2545,0.2541,0.2363,0.2188,0.2842,0.2995,0.298,0.2964,0.2955,0.2948,0.2943,0.2775,0.2605,0.2091,0.1276,0.0,0.0,0.0,0.0,0.0,0.0,0.0,0.0,0.0,0.0,0.0,0.0,0.0,0.0,0.0,0.0,0.0,0.0,0.0,0.0,0.0,0.0,0.0,0.0,0.0,0.0,0.0,0.0,0.0,0.0,0.0,0.0,0.0,0.0,1.6083,1.6083,1.6083,1.6069,1.6049,1.6042,1.6165,1.6035,1.6028,1.5952,1.5815,1.5642,1.5655,1.5642,1.5642,1.5655,1.5689,1.5778,1.6028,1.6048,1.5934,1.6001,1.6049,1.6056,1.6144,1.6259,1.6279,1.6286,1.6313,1.6341,1.6395,1.6503,1.6426,1.672,1.6948,1.7037,1.6944,1.6276,1.4499,1.2522,1.0359,0.8,0.6707,0.5637,0.4382,0.3343,0.3108,0.2503,0.21,0.1313,0.0557,0.0,0.0,0.0,0.0,0.0,0.0,0.0,0.0,0.0,0.0867,0.19,0.2246,0.2424,0.2418,0.2417,0.2935,0.2945,0.3093,0.3244,0.3401,0.3716,0.3864,0.3685,0.3677,0.366,0.3645,0.3634,0.3625,0.3447,0.2762,0.2109,0.0,0.0,0.0,0.0,0.0,0.0,0.0,0.0,0.0,0.0,0.0,0.0,0.0,0.0,0.0,0.0,0.0,0.0,0.0,0.0,0.0,0.0,0.0,0.0,0.0,0.0,0.0,0.0,0.0,0.0,0.0,0.0,0.0,1.6279,1.6205,1.6117,1.6083,1.6083,1.6083,1.6049,1.6192,1.6186,1.6103,1.6007,1.5859,1.5893,1.5879,1.5886,1.5893,1.5906,1.5954,1.5981,1.6186,1.6062,1.613,1.6198,1.6218,1.6293,1.6395,1.6442,1.6497,1.6517,1.6558,1.6605,1.6446,1.6788,1.6876,1.7078,1.6951,1.6978,1.6335,1.4808,1.3053,1.1692,0.9724,0.7997,0.6502,0.5616,0.4354,0.3521,0.3103,0.2877,0.2261,0.1862,0.0,0.0,0.0,0.0,0.0,0.0,0.0,0.0,0.1053,0.1925,0.2264,0.2437,0.2259,0.2784,0.3135,0.3481,0.365,0.381,0.3973,0.3971,0.3954,0.4101,0.4085,0.4414,0.4218,0.4193,0.4349,0.4169,0.4155,0.4142,0.3472,0.2966,0.2619,0.2119,0.0,0.0,0.0,0.0,0.0,0.0,0.0,0.0,0.0,0.0,0.0,0.0,0.0,0.0,0.0,0.0,0.0,0.0,0.0,0.0,0.0,0.0,0.0,0.0,0.0,0.0,0.0,0.0,0.0,0.0,1.6517,1.6402,1.6218,1.6137,1.613,1.6096,1.6076,1.6076,1.6076,1.6015,1.6165,1.6022,1.6069,1.6076,1.6062,1.6049,1.6076,1.6123,1.6137,1.6144,1.6185,1.6266,1.6334,1.6577,1.6646,1.6578,1.6578,1.6659,1.6754,1.6802,1.6795,1.6601,1.6904,1.6965,1.6971,1.6978,1.6985,1.6564,1.5072,1.3974,1.3268,1.1904,0.9728,0.7984,0.6668,0.5779,0.4335,0.3513,0.3464,0.3421,0.2996,0.2409,0.1834,0.1817,0.1622,0.1259,0.1611,0.1608,0.1422,0.1773,0.2473,0.2638,0.2629,0.2462,0.2811,0.3507,0.456,0.5095,0.4893,0.4889,0.4707,0.4872,0.5184,0.5158,0.4977,0.4779,0.4757,0.5259,0.5414,0.5392,0.5379,0.5036,0.4507,0.3968,0.3451,0.2782,0.0,0.1306,0.0,0.0,0.0,0.0,0.0,0.0,0.0,0.0,0.0,0.0,0.0,0.0,0.0,0.0,0.0,0.0,0.0,0.0,0.0,0.0,0.0,0.0,0.0,0.0,0.0,0.0,0.0,1.6727,1.6693,1.6415,1.6293,1.6286,1.6137,1.6083,1.6096,1.6083,1.6069,1.6049,1.6076,1.6083,1.6083,1.6096,1.6103,1.6096,1.6232,1.6273,1.6132,1.6205,1.6259,1.6503,1.6742,1.6797,1.6714,1.6734,1.6822,1.6917,1.6924,1.6944,1.6971,1.6965,1.6971,1.6978,1.6978,1.6768,1.6348,1.55,1.4657,1.3974,1.3048,1.19,0.9724,0.7783,0.6477,0.6172,0.5122,0.4479,0.4426,0.3788,0.3178,0.296,0.2743,0.2539,0.2345,0.2516,0.269,0.2685,0.2147,0.2149,0.2687,0.3217,0.3386,0.3204,0.4287,0.5365,0.6599,0.6372,0.6174,0.6326,0.6473,0.6628,0.6599,0.6413,0.6394,0.6375,0.6719,0.6874,0.6669,0.6649,0.6466,0.6114,0.5555,0.4327,0.3645,0.2645,0.1982,0.1477,0.0,0.0,0.0,0.0,0.0,0.0,0.0,0.0,0.0,0.0,0.0,0.0,0.0,0.0,0.0,0.0,0.0,0.0,0.0,0.0,0.0,0.0,0.0,0.0,0.0,0.0,1.689,1.687,1.6666,1.6524,1.6429,1.6286,1.6218,1.6205,1.6123,1.6083,1.609,1.6083,1.6083,1.611,1.6191,1.6218,1.6246,1.6374,1.6422,1.6449,1.6292,1.6571,1.6824,1.69,1.6955,1.6856,1.689,1.6904,1.6965,1.6978,1.6978,1.6978,1.6992,1.6978,1.6978,1.6992,1.6564,1.6348,1.6137,1.5506,1.3996,1.3493,1.3203,1.2117,0.966,0.8539,0.8235,0.6567,0.5891,0.5227,0.4393,0.4153,0.3918,0.3866,0.3464,0.326,0.3425,0.3775,0.3771,0.3231,0.3231,0.359,0.4126,0.4305,0.3945,0.5199,0.6458,0.7342,0.7684,0.7474,0.7293,0.7629,0.796,0.791,0.788,0.7864,0.8027,0.8027,0.7999,0.7776,0.7933,0.8097,0.7567,0.7202,0.5764,0.436,0.3348,0.2504,0.2158,0.165,0.1152,0.0329,0.0,0.0,0.0,0.0,0.0,0.0,0.0,0.0,0.0,0.0,0.0,0.0,0.0,0.0,0.0,0.0,0.0,0.0,0.0,0.0,0.0,0.0,0.0,1.6978,1.6965,1.6863,1.6727,1.6578,1.6435,1.6165,1.6145,1.6065,1.6212,1.6212,1.6212,1.6212,1.6246,1.6313,1.6374,1.6408,1.651,1.6571,1.6612,1.6659,1.672,1.7003,1.7044,1.7078,1.6965,1.6978,1.6978,1.6978,1.6978,1.7012,1.7039,1.7046,1.7046,1.7053,1.7046,1.6828,1.6617,1.6584,1.6361,1.485,1.3946,1.3658,1.3214,1.1578,1.0635,0.9915,0.8403,0.7301,0.6621,0.5769,0.5327,0.5071,0.4823,0.4406,0.4007,0.4165,0.4864,0.5029,0.4487,0.4305,0.4666,0.5201,0.5378,0.5557,0.6451,0.771,0.879,0.8782,0.8421,0.8421,0.8753,0.8918,0.8862,0.8858,0.9022,0.8996,0.8987,0.8944,0.89,0.9065,0.9052,0.8831,0.8293,0.6887,0.545,0.4405,0.3551,0.2866,0.2346,0.1998,0.1163,0.0,0.0,0.0,0.0,0.0,0.0,0.0,0.0,0.0,0.0,0.0,0.0,0.0,0.0,0.0,0.0,0.0,0.0,0.0,0.0,0.0,0.0,0.0,1.6978,1.6978,1.6971,1.6876,1.6734,1.6578,1.6306,1.6299,1.6272,1.6266,1.6463,1.6469,1.6476,1.6483,1.6497,1.6517,1.6551,1.6673,1.6748,1.656,1.6836,1.6937,1.6951,1.6951,1.6944,1.6971,1.6978,1.6978,1.6978,1.7012,1.7073,1.7154,1.7195,1.7209,1.6976,1.6969,1.6969,1.7168,1.7073,1.6815,1.6163,1.4862,1.4365,1.3439,1.3118,1.2164,1.1222,0.9874,0.8746,0.8242,0.7382,0.6905,0.6609,0.619,0.5564,0.4752,0.547,0.6347,0.6838,0.5747,0.5565,0.5741,0.6276,0.6451,0.7167,0.7881,0.8778,0.9862,0.9857,0.9852,0.9852,1.0026,1.0016,1.0007,1.0002,1.017,1.0136,1.0303,1.0429,1.0399,1.0034,0.9835,0.9595,0.9207,0.8003,0.6576,0.5327,0.4451,0.376,0.3236,0.2875,0.2024,0.1178,0.0,0.0,0.0,0.0,0.0,0.0,0.0,0.0,0.0,0.0,0.0,0.0,0.0,0.0,0.0,0.0,0.0,0.0,0.0,0.0,0.0,0.0,1.6978,1.6978,1.6978,1.6951,1.6883,1.6741,1.6673,1.6653,1.6783,1.6735,1.6735,1.6728,1.6517,1.6544,1.6632,1.6673,1.67,1.6829,1.6904,1.6904,1.6958,1.6971,1.6978,1.6978,1.6978,1.6978,1.6978,1.6985,1.6985,1.7053,1.7121,1.6989,1.7385,1.7648,1.7593,1.7566,1.7566,1.7317,1.7216,1.6915,1.6915,1.6195,1.5054,1.3934,1.3828,1.3298,1.2349,1.0964,1.0032,0.9699,0.9009,0.8332,0.8021,0.7585,0.711,0.6669,0.7391,0.7904,0.8406,0.8008,0.7757,0.7556,0.7527,0.7702,0.7513,0.8591,0.9669,1.057,1.0565,1.0565,1.0387,1.0743,1.0916,1.1094,1.1266,1.1444,1.1605,1.1959,1.2119,1.2108,1.1914,1.1373,1.0967,1.0559,0.9324,0.8253,0.715,0.5891,0.5184,0.4493,0.396,0.309,0.2054,0.1194,0.0,0.0,0.0,0.0,0.0,0.0,0.0,0.0,0.0,0.0,0.0,0.0,0.0,0.0,0.0,0.0,0.0,0.0,0.0,0.0,0.0,1.6978,1.6978,1.6978,1.6978,1.6965,1.687,1.6829,1.7023,1.6941,1.69,1.69,1.6686,1.6693,1.672,1.6775,1.6829,1.6842,1.6924,1.6978,1.6978,1.6978,1.6978,1.6978,1.6978,1.6978,1.6978,1.6985,1.6998,1.7066,1.7148,1.7256,1.719,1.7589,1.7861,1.782,1.7779,1.7724,1.746,1.7365,1.7243,1.6982,1.669,1.6195,1.5258,1.4731,1.4411,1.3449,1.2288,1.1138,1.097,1.0661,0.998,0.9465,0.8984,0.868,0.8626,0.9296,0.9618,0.9578,0.9551,0.9295,0.9441,0.9182,0.8773,0.8405,0.9304,1.056,1.1282,1.1287,1.1465,1.1471,1.1827,1.1821,1.1999,1.2171,1.2349,1.252,1.2698,1.2875,1.2875,1.2875,1.252,1.2165,1.1621,1.1046,0.9945,0.9026,0.7735,0.6463,0.5757,0.4884,0.3825,0.2948,0.2071,0.1375,0.0,0.0,0.0,0.0,0.0,0.0,0.0,0.0,0.0,0.0,0.0,0.0,0.0,0.0,0.0,0.0,0.0,0.0,0.0,0.0,1.6978,1.6978,1.6978,1.6978,1.6978,1.6965,1.6965,1.6971,1.6971,1.6958,1.6965,1.6937,1.6924,1.6951,1.6971,1.6958,1.6951,1.6978,1.6978,1.6978,1.6978,1.6978,1.6978,1.6978,1.6978,1.6985,1.7012,1.708,1.7182,1.7277,1.7197,1.7378,1.7751,1.7792,1.7985,1.7937,1.7875,1.7616,1.7514,1.7378,1.727,1.6989,1.6889,1.6361,1.625,1.5912,1.4729,1.3553,1.2971,1.262,1.2118,1.1593,1.109,1.0624,0.991,1.0161,1.1356,1.1146,1.0941,1.0926,1.1079,1.1206,1.0705,1.0257,1.0054,1.0257,1.1357,1.2264,1.2806,1.277,1.2746,1.274,1.2734,1.2728,1.2887,1.2881,1.2875,1.3053,1.3059,1.323,1.323,1.2875,1.2875,1.252,1.1988,1.1255,1.0323,0.9414,0.8117,0.667,0.5791,0.4558,0.3844,0.3136,0.2431,0.1732,0.1554,0.1032,0.1035,0.0,0.0,0.2079,0.1726,0.1552,0.1386,0.0,0.0,0.0,0.0,0.0,0.0,0.0,0.0,0.0,0.0,1.6978,1.6978,1.6978,1.6978,1.6978,1.6978,1.6978,1.6978,1.6978,1.6978,1.6978,1.6978,1.6978,1.6978,1.6978,1.6978,1.6978,1.6978,1.6978,1.6978,1.6978,1.6978,1.6978,1.6978,1.6978,1.7019,1.7073,1.7154,1.7249,1.7365,1.7582,1.7785,1.7833,1.786,1.7846,1.7819,1.7799,1.7758,1.7868,1.7731,1.7573,1.727,1.7154,1.7026,1.6958,1.6621,1.606,1.4475,1.3898,1.3983,1.379,1.3436,1.2825,1.2052,1.1672,1.2339,1.3034,1.3011,1.28,1.2545,1.2679,1.2841,1.2518,1.1903,1.1502,1.1491,1.2221,1.3114,1.3842,1.3823,1.3431,1.3232,1.3214,1.3374,1.3343,1.3477,1.3471,1.3623,1.3623,1.3591,1.3584,1.3584,1.3407,1.3236,1.2698,1.2165,1.1444,1.0535,0.9441,0.8148,0.6892,0.5475,0.4586,0.387,0.3156,0.2448,0.2439,0.226,0.2093,0.2096,0.2442,0.2789,0.2611,0.2441,0.2274,0.1746,0.0,0.0,0.0,0.0,0.0,0.0,0.0,0.0,0.0,1.6978,1.6978,1.6978,1.6978,1.6978,1.6978,1.6978,1.6978,1.6978,1.6978,1.6978,1.6978,1.6978,1.6978,1.6978,1.6978,1.6978,1.6978,1.6978,1.6978,1.6978,1.6978,1.6978,1.6985,1.7026,1.708,1.7161,1.7256,1.7385,1.7575,1.7792,1.784,1.786,1.786,1.786,1.7853,1.7853,1.7826,1.7985,1.7875,1.7731,1.7358,1.7216,1.708,1.7032,1.691,1.6996,1.519,1.5283,1.5335,1.51,1.4589,1.3911,1.3285,1.3124,1.3798,1.4147,1.3907,1.3664,1.3415,1.3566,1.3722,1.3845,1.3444,1.2984,1.2753,1.3461,1.4166,1.4551,1.4557,1.416,1.3757,1.3732,1.3706,1.3816,1.3925,1.4071,1.4216,1.4175,1.4312,1.4122,1.4122,1.3945,1.3768,1.3413,1.2875,1.2165,1.1444,1.0367,0.91,0.784,0.6415,0.5517,0.4797,0.4071,0.3354,0.3176,0.3173,0.3182,0.3182,0.3522,0.3524,0.3356,0.3178,0.3,0.2466,0.1935,0.1587,0.0,0.0,0.0,0.0,0.0,0.0,0.0,1.6978,1.6978,1.6978,1.6978,1.6978,1.6978,1.6978,1.6978,1.6978,1.6978,1.6978,1.6978,1.6978,1.6978,1.6978,1.6978,1.6978,1.6978,1.6978,1.6978,1.6978,1.6978,1.6978,1.6985,1.7053,1.736,1.7263,1.7378,1.7623,1.7765,1.7833,1.786,1.786,1.786,1.786,1.786,1.786,1.7853,1.7833,1.7985,1.7861,1.75,1.7358,1.6976,1.7066,1.6944,1.7037,1.6727,1.6852,1.6463,1.5883,1.5357,1.4724,1.4177,1.4423,1.4527,1.4872,1.4629,1.4368,1.4109,1.4266,1.4442,1.4429,1.4565,1.4094,1.3826,1.4343,1.4705,1.4909,1.4909,1.4507,1.4448,1.4408,1.4375,1.4315,1.443,1.4376,1.4529,1.4509,1.4468,1.4455,1.4256,1.4196,1.4024,1.3807,1.3432,1.3053,1.2343,1.1282,1.003,0.8778,0.7524,0.6796,0.5892,0.4825,0.4281,0.4112,0.3938,0.4114,0.4111,0.4269,0.4281,0.4303,0.4109,0.3735,0.3213,0.2857,0.2498,0.1961,0.0,0.0,0.0,0.0,0.0,0.0,1.6978,1.6978,1.6978,1.6978,1.6978,1.6978,1.6978,1.6978,1.6978,1.6978,1.6978,1.6978,1.6978,1.6978,1.6978,1.6978,1.6978,1.6978,1.6978,1.6978,1.6978,1.6978,1.6985,1.7005,1.708,1.7408,1.7331,1.7521,1.7745,1.784,1.7867,1.7867,1.7887,1.7907,1.7887,1.7887,1.7887,1.7867,1.7853,1.8026,1.7902,1.7827,1.7487,1.7283,1.7121,1.7046,1.6931,1.7016,1.6962,1.6852,1.6212,1.5971,1.5683,1.5629,1.5535,1.5428,1.5594,1.5355,1.5103,1.4832,1.4983,1.4937,1.5087,1.5026,1.4959,1.4912,1.4886,1.5072,1.5059,1.5052,1.5031,1.4964,1.4909,1.4869,1.4835,1.4767,1.4699,1.4672,1.4658,1.4638,1.4618,1.4563,1.4489,1.4263,1.4037,1.382,1.3604,1.3059,1.2183,1.1115,1.0035,0.8782,0.7885,0.6984,0.5918,0.5204,0.5025,0.4666,0.4659,0.4841,0.5022,0.5022,0.5201,0.4843,0.448,0.4126,0.3768,0.3047,0.251,0.1795,0.0,0.0,0.0,0.0,0.0,1.6978,1.6978,1.6978,1.6978,1.6978,1.6978,1.6978,1.6978,1.6978,1.6978,1.6978,1.6978,1.6978,1.6978,1.6978,1.6978,1.6978,1.6978,1.6978,1.6978,1.6978,1.6978,1.6992,1.7046,1.7182,1.7304,1.7521,1.7724,1.7867,1.7948,1.7968,1.7975,1.7996,1.8023,1.7982,1.7955,1.7921,1.7867,1.7867,1.7812,1.795,1.7889,1.7772,1.7351,1.7216,1.7127,1.7012,1.7099,1.7037,1.6907,1.6463,1.6293,1.609,1.6008,1.5886,1.5784,1.573,1.571,1.5642,1.5574,1.5513,1.5472,1.5452,1.5418,1.5418,1.518,1.506,1.5235,1.5147,1.5126,1.5126,1.5072,1.5065,1.5038,1.5011,1.4964,1.4855,1.476,1.4733,1.4699,1.4685,1.4672,1.4618,1.4611,1.4397,1.4209,1.3964,1.3534,1.2806,1.2252,1.1152,1.0064,0.9173,0.8075,0.717,0.6454,0.6099,0.5741,0.5383,0.592,0.6276,0.6097,0.5918,0.5918,0.5559,0.5201,0.4664,0.4126,0.323,0.2512,0.1795,0.0,0.0,0.0,0.0,1.6978,1.6978,1.6978,1.6978,1.6978,1.6978,1.6978,1.6978,1.6978,1.6978,1.6978,1.6978,1.6978,1.6978,1.6978,1.6978,1.6978,1.6978,1.6978,1.6978,1.6978,1.7012,1.7066,1.7134,1.7277,1.7473,1.769,1.7812,1.7921,1.8002,1.7853,1.7907,1.7967,1.8021,1.7927,1.7853,1.8023,1.7935,1.7894,1.7867,1.7806,1.7964,1.7834,1.7676,1.7304,1.6936,1.7053,1.6965,1.6904,1.6761,1.6564,1.6388,1.6259,1.6157,1.6035,1.5927,1.5886,1.5832,1.5757,1.5703,1.5676,1.5655,1.5662,1.5642,1.5635,1.5375,1.5254,1.518,1.5289,1.5221,1.5221,1.5187,1.5187,1.5174,1.5153,1.5126,1.4997,1.4882,1.4848,1.4808,1.4808,1.4801,1.4774,1.4774,1.476,1.4577,1.4355,1.3926,1.3325,1.2933,1.2181,1.1252,1.0339,0.9397,0.8262,0.7713,0.7356,0.717,0.6991,0.7173,0.7352,0.7527,0.7345,0.7349,0.6991,0.6458,0.5741,0.5201,0.4305,0.3416,0.2512,0.1795,0.0,0.0,0.0,1.6978,1.6978,1.6978,1.6978,1.6978,1.6978,1.6978,1.6978,1.6978,1.6978,1.6978,1.6978,1.6978,1.6978,1.6978,1.6978,1.6978,1.6978,1.6978,1.6978,1.6998,1.706,1.7141,1.7236,1.7378,1.7589,1.7792,1.7914,1.8016,1.8077,1.7934,1.8274,1.8527,1.8548,1.8514,1.8424,1.7873,1.8009,1.7928,1.7887,1.7867,1.7806,1.7971,1.7609,1.7237,1.709,1.6956,1.7039,1.6985,1.689,1.6748,1.6544,1.6395,1.6286,1.6164,1.6069,1.6029,1.5988,1.592,1.5852,1.5832,1.5805,1.5778,1.5703,1.5696,1.5689,1.5608,1.5588,1.5499,1.5398,1.5364,1.5269,1.5235,1.5215,1.5194,1.5181,1.5106,1.5079,1.5059,1.5045,1.5045,1.4997,1.493,1.4909,1.4875,1.4855,1.4808,1.4199,1.3814,1.3607,1.3224,1.2454,1.1518,1.051,0.9348,0.8977,0.8619,0.8429,0.8421,0.8421,0.8599,0.8773,0.8773,0.8599,0.8071,0.7542,0.6998,0.6305,0.5406,0.433,0.3414,0.2512,0.1977,0.0,0.0]}]]